[[{"header":{"parameterUnit":"m.s-1","parameterCategory":1,"la1":30.6,"la2":29.2853,"lo1":-89.7004,"lo2":-87.6739,"dy":0.0162,"dx":0.0183,"nx":112,"ny":82,"refTime":"2024-05-08T00:00:00:Z","depth":0,"parameterNumber":2,"parameterNumberName":"U-component_of_WINDS"},"data":[0.0,0.0,0.0,0.0,0.0,0.0,0.0,0.0,0.0,0.0,0.0,0.0,0.0,0.0,0.0,0.0,0.0,0.0,0.0,0.0,0.0,0.0,0.0,0.0,0.0,0.0,0.0,0.0,0.0,0.0,0.0,0.0,0.0,0.0,0.0,0.0,0.0,0.0,0.0,0.0,0.0,0.0,0.0,0.0,0.0,0.0,0.0,0.0,0.0,0.0,0.0,0.0,0.0,0.0,0.0,0.0,0.0,0.0,0.0,0.0,0.0,0.0,0.0,0.0,0.0,0.0,0.0,0.0,0.0,0.0,0.0,0.0,0.0,0.0,0.0,0.0,0.0,0.0,0.0,0.0,0.0,0.0,0.0,0.0,0.0,0.0,0.0,0.0,0.0,0.0,0.3411,0.3575,0.4301,0.5067,0.5808,0.5871,0.5486,0.4582,0.0,0.0,0.0,0.0,0.0,0.0,0.0,0.0,0.0,0.0,0.0,0.0,0.0,0.0,0.0,0.0,0.0,0.0,0.0,0.0,0.0,0.0,0.0,0.0,0.0,0.0,0.0,0.0,0.0,0.0,0.0,0.0,0.0,0.0,0.0,0.0,0.0,0.0,0.0,0.0,0.0,0.0,0.0,0.0,0.0,0.0,0.0,0.0,0.0,0.0,0.0,0.0,0.0,0.0,0.0,0.0,0.0,0.0,0.0,0.0,0.0,0.0,0.0,0.0,0.0,0.0,0.0,0.0,0.0,0.0,0.0,0.0,0.0,0.0,0.0,0.0,0.0,0.0,0.0,0.0,0.0,0.0,0.0,0.0,0.0,0.0,0.0,0.0,0.0,0.0,0.0,0.0,0.0,0.0,0.0,0.0,0.0,0.0,0.0,0.0,0.0,0.0,0.0,0.0,0.48,0.5719,0.5951,0.6079,0.6212,0.6231,0.5781,0.4731,0.0,0.0,0.0,0.0,0.0,0.0,0.0,0.0,0.0,0.0,0.0,0.0,0.0,0.0,0.0,0.0,0.0,0.0,0.0,0.0,0.0,0.0,0.0,0.0,0.0,0.0,0.0,0.0,0.0,0.0,0.0,0.0,0.0,0.0,0.0,0.0,0.0,0.0,0.0,0.0,0.0,0.0,0.0,0.0,0.0,0.0,0.0,0.0,0.0,0.0,0.0,0.0,0.0,0.0,0.0,0.0,0.0,0.0,0.0,0.0,0.0,0.0,0.0,0.0,0.0,0.0,0.0,0.0,0.0,0.0,0.0,0.0,0.0,0.0,0.0,0.0,0.0,0.0,0.0,0.0,0.0,0.0,0.0,0.0,0.0,0.0,0.0,0.0,0.0,0.0,0.0,0.0,0.0,0.0,0.0,0.0,0.0,0.0,0.0,0.0,0.0,0.0,0.0,0.4982,0.5747,0.6241,0.63,0.63,0.63,0.63,0.6083,0.5589,0.4496,0.0,0.0,0.0,0.0,0.0,0.0,0.0,0.0,0.0,0.0,0.0,0.0,0.0,0.0,0.0,0.0,0.0,0.0,0.0,0.0,0.0,0.0,0.0,0.0,0.0,0.0,0.0,0.0,0.0,0.0,0.0,0.0,0.0,0.0,0.0,0.0,0.0,0.0,0.0,0.0,0.0,0.0,0.0,0.0,0.0,0.0,0.0,0.0,0.0,0.0,0.0,0.0,0.0,0.0,0.0,0.0,0.0,0.0,0.0,0.0,0.0,0.0,0.0,0.0,0.0,0.0,0.0,0.0,0.0,0.0,0.0,0.0,0.0,0.0,0.0,0.0,0.0,0.0,0.0,0.0,0.0,0.0,0.0,0.0,0.0,0.0,0.0,0.0,0.0,0.0,0.0,0.0,0.0,0.0,0.0,0.0,0.0,0.0,0.0,0.0,0.0,0.0,0.5709,0.555,0.555,0.555,0.555,0.555,0.555,0.565,0.5906,0.4924,0.0,0.0,0.0,0.0,0.0,0.0,0.0,0.0,0.0,0.0,0.0,0.0,0.0,0.0,0.0,0.0,0.0,0.0,0.0,0.0,0.0,0.0,0.0,0.0,0.0,0.0,0.0,0.0,0.0,0.0,0.0,0.0,0.0,0.0,0.0,0.0,0.0,0.0,0.0,0.0,0.0,0.0,0.0,0.0,0.0,0.0,0.0,0.0,0.0,0.0,0.0,0.0,0.0,0.0,0.0,0.0,0.0,0.0,0.0,0.0,0.0,0.0,0.0,0.0,0.0,0.0,0.0,0.0,0.0,0.0,0.0,0.0,0.0,0.0,0.0,0.0,0.0,0.0,0.0,0.0,0.0,0.0,0.0,0.0,0.0,0.0,0.0,0.0,0.0,0.0,0.0,0.0,0.0,0.0,0.0,0.0,0.0,0.0,0.0,0.0,0.0,0.0,0.3943,0.3318,0.3318,0.3318,0.3318,0.3318,0.3318,0.3748,0.4746,0.3807,0.0,0.0,0.0,0.0,0.0,0.0,0.0,0.0,0.0,0.0,0.0,0.0,0.0,0.0,0.0,0.0,0.0,0.0,0.0,0.0,0.0,0.0,0.0,0.0,0.0,0.0,0.0,0.0,0.0,0.0,0.0,0.0,0.0,0.0,0.0,0.0,0.0,0.0,0.0,0.0,0.0,0.0,0.0,0.0,0.0,0.0,0.0,0.0,0.0,0.0,0.0,0.0,0.0,0.0,0.0,0.0,0.0,0.0,0.0,0.0,0.0,0.0,0.0,0.0,0.0,0.0,0.0,0.0,0.0,0.0,0.0,0.0,0.0,0.0,0.0,0.0,0.0,0.0,0.0,0.0,0.0,0.0,0.0,0.0,0.0,0.0,0.0,0.0,0.0,0.0,0.0,0.0,0.0,0.0,0.0,0.0,0.0,0.0,0.0,0.0,0.0,0.0,0.3768,0.3104,0.3104,0.3709,0.41,0.41,0.4708,0.5276,0.567,0.0,0.0,0.0,0.0,0.0,0.0,0.0,0.0,0.0,0.0,0.0,0.0,0.0,0.0,0.0,0.0,0.0,0.0,0.0,0.0,0.0,0.0,0.0,0.0,0.0,0.0,0.0,0.0,0.0,0.0,0.0,0.0,0.0,0.0,0.0,0.0,0.0,0.0,0.0,0.0,0.0,0.0,0.0,0.0,0.0,0.0,0.0,0.0,0.0,0.0,0.0,0.0,0.0,0.0,0.0,0.0,0.0,0.0,0.0,0.0,0.0,0.0,0.0,0.0,0.0,0.0,0.0,0.0,0.0,0.0,0.0,0.0,0.0,0.0,0.0,0.0,0.0,0.0,0.0,0.0,0.0,0.0,0.0,0.0,0.0,0.0,0.0,0.0,0.0,0.0,0.0,0.0,0.0,0.0,0.0,0.0,0.0,0.0,0.0,0.0,0.0,0.0,0.453,0.3478,0.2755,0.3065,0.3748,0.4198,0.4198,0.4863,0.5431,0.5767,0.0,0.0,0.0,0.0,0.0,0.0,0.0,0.0,0.0,0.0,0.0,0.0,0.0,0.0,0.0,0.0,0.0,0.0,0.0,0.0,0.0,0.0,0.0,0.0,0.0,0.0,0.0,0.0,0.0,0.0,0.0,0.0,0.0,0.0,0.0,0.0,0.0,0.0,0.0,0.0,0.0,0.0,0.0,0.0,0.0,0.0,0.0,0.0,0.0,0.0,0.0,0.0,0.0,0.0,0.0,0.0,0.0,0.0,0.0,0.0,0.0,0.0,0.0,0.0,0.0,0.0,0.0,0.0,0.0,0.0,0.0,0.0,0.0,0.0,0.0,0.0,0.0,0.0,0.0,0.0,0.0,0.0,0.0,0.0,0.0,0.0,0.0,0.0,0.0,0.0,0.0,0.0,0.0,0.0,0.0,0.0,0.0,0.0,0.0,0.0,0.0,0.0,0.4436,0.2895,0.1997,0.2989,0.3104,0.3124,0.3124,0.3124,0.3593,0.0,0.0,0.0,0.0,0.0,0.0,0.0,0.0,0.0,0.0,0.0,0.0,0.0,0.0,0.0,0.0,0.0,0.0,0.0,0.0,0.0,0.0,0.0,0.0,0.0,0.0,0.0,0.0,0.0,0.0,0.0,0.0,0.0,0.0,0.0,0.0,0.0,0.0,0.0,0.0,0.0,0.0,0.0,0.0,0.0,0.0,0.0,0.0,0.0,0.0,0.0,0.0,0.0,0.0,0.0,0.0,0.0,0.0,0.0,0.0,0.0,0.0,0.0,0.0,0.0,0.0,0.0,0.0,0.0,0.0,0.0,0.0,0.0,0.0,0.0,0.0,0.0,0.0,0.0,0.0,0.0,0.0,0.0,0.0,0.0,0.0,0.0,0.0,0.0,0.0,0.0,0.0,0.0,0.0,0.0,0.0,0.0,0.0,0.0,0.0,0.0,0.0,0.0,0.4798,0.3742,0.2985,0.3284,0.3866,0.4237,0.4237,0.4924,0.5492,0.5805,0.0,0.0,0.0,0.0,0.0,0.0,0.0,0.0,0.0,0.0,0.0,0.0,0.0,0.0,0.0,0.0,0.0,0.0,0.0,0.0,0.0,0.0,0.0,0.0,0.0,0.0,0.0,0.0,0.0,0.0,0.0,0.0,0.0,0.0,0.0,0.0,0.0,0.0,0.0,0.0,0.0,0.0,0.0,0.0,0.0,0.0,0.0,0.0,0.0,0.0,0.0,0.0,0.0,0.0,0.0,0.0,0.0,0.0,0.0,0.0,0.0,0.0,0.0,0.0,0.0,0.0,0.0,0.0,0.0,0.0,0.0,0.0,0.0,0.0,0.0,0.0,0.0,0.0,0.0,0.0,0.0,0.0,0.0,0.0,0.0,0.0,0.0,0.0,0.0,0.0,0.0,0.0,0.0,0.0,0.0,0.0,0.0,0.0,0.0,0.0,0.0,0.0,0.548,0.4776,0.4245,0.4676,0.5184,0.5505,0.5505,0.6092,0.6457,0.6457,0.0,0.0,0.0,0.0,0.0,0.0,0.0,0.0,0.0,0.0,0.0,0.0,0.0,0.0,0.0,0.0,0.0,0.0,0.0,0.0,0.0,0.0,0.0,0.0,0.0,0.0,0.0,0.0,0.0,0.0,0.0,0.0,0.0,0.0,0.0,0.0,0.0,0.0,0.0,0.0,0.0,0.0,0.0,0.0,0.0,0.0,0.0,0.0,0.0,0.0,0.0,0.0,0.0,0.0,0.0,0.0,0.0,0.0,0.0,0.0,0.0,0.0,0.0,0.0,0.0,0.0,0.0,0.0,0.0,0.0,0.0,0.0,0.0,0.0,0.0,0.0,0.0,0.0,0.0,0.0,0.0,0.0,0.0,0.0,0.0,0.0,0.0,0.0,0.0,0.0,0.0,0.0,0.0,0.0,0.0,0.0,0.0,0.0,0.0,0.0,0.0,0.0,0.6339,0.5883,0.5645,0.6615,0.6709,0.6702,0.6702,0.6702,0.6702,0.6702,0.0,0.0,0.0,0.0,0.0,0.0,0.0,0.0,0.0,0.0,0.0,0.0,0.0,0.0,0.0,0.0,0.0,0.0,0.0,0.0,0.0,0.0,0.0,0.0,0.0,0.0,0.0,0.0,0.0,0.0,0.0,0.0,0.0,0.0,0.0,0.0,0.0,0.0,0.0,0.0,0.0,0.0,0.0,0.0,0.0,0.0,0.0,0.0,0.0,0.0,0.0,0.0,0.0,0.0,0.0,0.0,0.0,0.0,0.0,0.0,-0.6252,-0.6072,0.0,0.0,0.0,0.0,0.0,0.0,0.0,0.0,0.0,0.0,0.0,0.0,0.0,0.0,0.0,0.0,0.0,0.0,0.0,0.0,0.0,0.0,0.0,0.0,0.0,0.0,0.0,0.0,0.0,0.0,0.0,0.0,0.0,0.0,0.0,0.0,0.0,0.0,0.0,0.0,0.6804,0.6731,0.6598,0.6836,0.6773,0.6702,0.6702,0.6702,0.6702,0.6702,0.6702,0.0,0.0,0.0,0.0,0.0,0.0,0.0,0.0,0.0,0.0,0.0,0.0,0.0,0.0,0.0,0.0,0.0,0.0,0.0,0.0,0.0,0.0,0.0,0.0,0.0,0.0,0.0,0.0,0.0,0.0,0.0,0.0,0.0,0.0,0.0,0.0,0.0,0.0,0.0,0.0,0.0,0.0,0.0,0.0,0.0,0.0,0.0,0.0,0.0,0.0,0.0,0.0,0.0,0.0,0.0,0.0,0.0,0.0,0.0,-0.6285,-0.6346,0.0,0.0,0.0,0.0,0.0,0.0,0.0,0.0,0.0,0.0,0.0,0.0,0.0,0.0,0.0,0.0,0.0,0.0,0.0,0.0,0.0,0.0,0.0,0.0,0.0,0.0,0.0,0.0,0.0,0.0,0.0,0.0,0.0,0.0,0.0,0.0,0.0,0.0,0.0,0.0,0.6962,0.7034,0.6987,0.6987,0.6938,0.6891,0.6891,0.6891,0.6891,0.6891,0.6891,0.0,0.0,0.0,0.0,0.0,0.0,0.0,0.0,0.0,0.0,0.0,0.0,0.0,0.0,0.0,0.0,0.0,0.0,0.0,0.0,0.0,0.0,0.0,0.0,0.0,0.0,0.0,0.0,0.0,0.0,0.0,0.0,0.0,0.0,0.0,0.0,0.0,0.0,0.0,0.0,0.0,0.0,0.0,0.0,0.0,0.0,0.0,0.0,0.0,0.0,0.0,0.0,0.0,0.0,-0.0652,-0.1868,-0.3076,-0.4316,-0.5519,-0.6461,-0.6722,-0.6479,-0.6692,0.0,0.0,0.0,0.0,0.0,0.0,0.0,0.0,0.0,0.0,0.0,0.0,0.0,0.0,0.0,0.0,0.0,0.0,0.0,0.0,0.0,0.0,0.0,0.0,0.0,0.0,0.0,0.0,0.0,0.0,0.0,0.0,0.0,0.0,0.0,0.0,0.0,0.0,0.6985,0.7095,0.7095,0.7095,0.7095,0.7095,0.7095,0.7095,0.7095,0.7095,0.7095,0.7095,0.0,0.0,0.0,0.0,0.0,0.0,0.0,0.0,0.0,0.0,0.0,0.0,0.0,0.0,0.0,0.0,0.0,0.0,0.0,0.0,0.0,0.0,0.0,0.0,0.0,0.0,0.0,0.0,0.0,0.0,0.0,0.0,0.6484,0.6484,0.0,0.0,0.0,0.0,0.0,0.0,0.0,0.0,0.0,0.0,0.0,0.0,0.0,0.0,0.0,0.0,0.0,0.0,0.0,-0.0702,-0.2023,-0.3212,-0.4489,-0.5808,-0.6978,0.0,-0.5648,-0.664,0.0,0.0,0.0,0.0,0.0,0.0,0.0,0.0,0.0,0.0,0.0,0.0,0.0,0.0,0.0,0.0,0.0,0.0,0.0,0.0,0.0,0.0,0.0,0.0,0.0,0.0,0.0,0.0,0.0045,0.0202,0.0247,0.0561,0.0,0.0,0.0,0.0,0.0,0.0,0.7073,0.7095,0.7095,0.7095,0.7095,0.7095,0.7095,0.7095,0.7095,0.7095,0.7095,0.7095,0.7095,0.7078,0.0,0.0,0.0,0.0,0.0,0.0,0.0,0.0,0.0,0.0,0.0,0.0,0.0,0.0,0.0,0.0,0.0,0.0,0.0,0.0,0.0,0.0,0.0,0.0,0.0,0.0,0.0,0.0,0.0,0.7528,0.7143,0.6571,0.6627,0.6702,0.0,0.0,0.0,0.0,0.0,0.0,0.0,0.0,0.0,0.0,0.0,0.0,0.0,0.0,0.0,0.0,0.0,-0.1049,-0.3025,-0.3561,-0.4893,-0.6832,-0.7359,-0.724,-0.6681,-0.7168,-0.7076,-0.6681,0.0,0.0,0.0,0.0,-0.7374,-0.7305,-0.6821,-0.6638,-0.6428,-0.5221,0.0,0.0,0.0,0.0,0.0,0.0,0.0,0.0,0.0,0.0,0.0,0.0,0.0,0.0,0.0,0.0,0.0208,0.0869,0.1618,0.2299,0.2842,0.387,0.0,0.0,0.0,0.7095,0.7095,0.7095,0.7095,0.7095,0.7095,0.7095,0.7095,0.7095,0.7095,0.7095,0.7095,0.7095,0.7095,0.7095,0.7095,0.0,0.0,0.0,0.0,0.0,0.0,0.0,0.0,0.0,0.0,0.0,0.0,0.0,0.0,0.0,0.0,0.0,0.0,0.0,0.0,0.0,0.0,0.0,0.0,0.0,0.0,0.0,0.0,0.78,0.7449,0.6688,0.6722,0.6793,0.0,0.0,0.0,0.0,0.0,0.0,0.133,0.0497,0.0,0.0,0.0,0.0,0.0,0.0,0.0,0.0,0.0,-0.1359,-0.3851,-0.3851,-0.5251,-0.7712,-0.7712,-0.7712,-0.7706,-0.7631,-0.76,-0.76,-0.76,-0.76,-0.76,-0.76,-0.76,-0.76,-0.76,-0.76,-0.7456,-0.6546,-0.5808,-0.5126,-0.4225,0.0,0.0,0.0,0.0,0.0,0.0,0.0,0.0,0.0,0.0,0.0,0.0,0.0266,0.0672,0.124,0.2139,0.3041,0.3689,0.4468,0.0,0.6,0.6759,0.7235,0.7235,0.7235,0.7219,0.7181,0.7178,0.7161,0.7098,0.7095,0.7095,0.7095,0.7095,0.7095,0.7095,0.7095,0.7095,0.7095,0.0,0.0,0.0,0.0,0.0,0.0,0.0,0.0,0.0,0.0,0.0,0.0,0.0,0.0,0.0,0.0,0.0,0.0,0.0,0.0,0.0,0.0,0.0,0.0,0.0,0.0,0.0,0.0,0.0,0.6884,0.6987,0.0,0.0,0.0,0.0,0.3676,0.1453,0.0091,0.0092,0.0023,0.0,0.0,0.0,0.0,0.0,0.0,0.0,0.0,0.0,-0.1393,-0.3978,-0.3978,-0.5444,-0.7993,-0.7993,-0.7993,-0.7969,-0.7716,-0.76,-0.76,-0.76,-0.76,-0.76,-0.76,-0.76,-0.76,-0.76,-0.76,-0.76,-0.7527,-0.5884,-0.3883,-0.3834,-0.2077,0.0,0.0,0.0,0.0,0.0,0.0,0.0,0.0,0.0,0.0,0.0,0.1005,0.1539,0.0336,0.0143,0.0951,0.3389,0.0,0.4707,0.7134,0.7533,0.7577,0.7577,0.7577,0.7519,0.7396,0.7382,0.7299,0.7109,0.7095,0.7095,0.7095,0.7095,0.7095,0.7095,0.7095,0.7095,0.7095,0.7095,0.0,0.0,0.0,0.0,0.0,0.0,0.0,0.0,0.0,0.0,0.0,0.0,0.0,0.0,0.0,0.0,0.0,0.0,0.0,0.0,0.0,0.0,0.0,0.0,0.0,0.0,0.0,0.0,0.6972,0.7011,0.0,0.7095,0.4966,0.3597,0.3597,0.1364,0.0,0.0,0.0,0.0,0.0,0.0,0.0,0.0,0.0,0.0,0.0,0.0,-0.0942,-0.2714,-0.2714,-0.3695,-0.547,-0.6329,-0.6706,-0.6775,-0.753,-0.7858,-0.7858,-0.7858,-0.7858,-0.7858,-0.7858,-0.7858,-0.7858,-0.7858,-0.7858,-0.7858,-0.7858,-0.6649,-0.5054,-0.4192,-0.2688,-0.1098,-0.025,0.0,0.0,0.0,0.0,0.0,0.0,0.0,0.0,0.0,0.0379,0.0578,0.0099,0.0685,0.1841,0.363,0.3854,0.4694,0.7334,0.7658,0.76,0.76,0.76,0.758,0.7522,0.7519,0.7495,0.7418,0.7411,0.7411,0.7411,0.7343,0.7288,0.7288,0.7171,0.7095,0.7095,0.7095,0.7095,0.0,0.0,0.0,0.0,0.0,0.0,0.0,0.0,0.0,0.0,0.0,0.0,0.0,0.0,0.0,0.0,0.0,0.0,0.0,0.0,0.0,0.0,0.0,0.0,0.0,0.7959,0.781,0.714,0.7185,0.7089,0.6628,0.4819,0.3489,0.3026,0.1133,0.0,0.0,0.0,0.0,0.0,0.0,0.0,0.0,0.0,0.0,0.0,0.0,-0.0706,-0.1988,-0.1988,-0.274,-0.4041,-0.4945,-0.5575,-0.6079,-0.6958,-0.7587,-0.7988,-0.7988,-0.7988,-0.7988,-0.7988,-0.7988,-0.7988,-0.7988,-0.7988,-0.7988,-0.7988,-0.6781,-0.5147,-0.4268,-0.274,-0.1134,-0.0252,0.0,0.0,0.0,0.0,0.0,0.0,0.0,0.0,0.0,0.0,0.0,0.0,0.0724,0.1754,0.3086,0.3637,0.4615,0.6863,0.7514,0.7722,0.7722,0.7722,0.7729,0.7678,0.7672,0.7651,0.7604,0.76,0.76,0.76,0.7529,0.7471,0.7471,0.735,0.7273,0.7273,0.7222,0.7168,0.7095,0.0,0.0,0.0,0.0,0.0,0.0,0.0,0.0,0.0,0.0,0.0,0.0,0.0,0.0,0.0,0.0,0.0,0.0,0.0,0.0,0.0,0.0,0.0,0.7152,0.7285,0.7403,0.7403,0.7509,0.7073,0.5735,0.4507,0.3232,0.1905,0.0692,0.0,0.0,0.0,0.0,0.0,0.0,0.0,0.0,0.0,0.0,0.0,0.0,-0.0681,-0.1938,-0.1938,-0.2639,-0.3865,-0.3915,-0.4695,-0.5954,-0.5979,-0.6783,-0.7988,-0.7988,-0.7988,-0.7988,-0.7988,-0.7988,-0.7988,-0.7988,-0.7988,-0.7988,-0.7988,-0.6224,-0.4066,-0.4016,-0.2163,-0.005,0.0,0.0,0.0,0.0,0.0,0.0,0.0,0.0,0.0,0.0,0.0,0.0,0.0,0.0,0.0429,0.1762,0.3065,0.4393,0.5727,0.7083,0.0,0.7939,0.7963,0.7959,0.781,0.7818,0.7763,0.7624,0.7614,0.7614,0.7614,0.7607,0.7607,0.7607,0.76,0.76,0.76,0.7478,0.7302,0.7109,0.0,0.0,0.0,0.0,0.0,0.0,0.0,0.0,0.0,0.0,0.0,0.0,0.0,0.0,0.0,0.0,0.0,0.0,0.0,0.0,0.0,0.8124,0.757,0.7485,0.7509,0.7536,0.7536,0.7573,0.7073,0.5735,0.4516,0.325,0.1896,0.069,0.0,0.0,0.0,0.0,0.0,0.0,0.0,0.0,0.0,0.0,0.0,0.0,-0.0202,-0.0555,-0.0555,-0.0756,-0.1159,-0.2138,-0.3316,-0.4618,-0.56,-0.6783,-0.7988,-0.7988,-0.7988,-0.7988,-0.7988,-0.7988,-0.7988,-0.7988,-0.7988,-0.7988,-0.7988,-0.6855,-0.5272,-0.4293,-0.2815,-0.1234,-0.0278,0.0,0.0,0.0,0.0,0.0,0.0,0.0,0.0,0.0,0.0,0.0,0.0,0.0,0.0429,0.1762,0.2314,0.3016,0.4343,0.5699,0.6556,0.6556,0.7409,0.7975,0.7956,0.7952,0.7935,0.7898,0.7895,0.7895,0.7895,0.779,0.7753,0.7753,0.7655,0.76,0.76,0.7556,0.7516,0.0,0.0,0.0,0.0,0.0,0.0,0.0,0.0,0.0,0.0,0.0,0.0,0.0,0.0,0.0,0.0,0.0,0.0,0.0,0.0,0.0,0.0,0.8163,0.776,0.776,0.7729,0.7689,0.7689,0.7722,0.7024,0.5122,0.4294,0.3092,0.1191,0.0401,0.0,0.0,0.0,0.0,0.0,0.0,0.0,0.0,0.0,0.0,0.0,0.0,0.0,0.0,0.0,0.0,-0.0051,-0.0832,-0.1913,-0.3215,-0.3994,-0.545,-0.721,0.0,0.0,0.0,0.0,-0.7988,-0.7988,-0.7988,-0.7988,-0.7988,-0.7988,-0.7083,-0.5752,-0.4418,-0.3065,-0.1711,-0.0379,0.0,0.0,0.0,0.0,0.0,0.0,0.0,0.0,0.0,0.0,0.0,0.0,0.0,0.0,0.1033,0.1637,0.2264,0.304,0.4293,0.5172,0.5172,0.6329,0.7157,0.7157,0.7662,0.7988,0.7988,0.7988,0.0,0.0,0.0,0.7881,0.7881,0.7804,0.0,0.0,0.0,0.7658,0.76,0.76,0.0,0.0,0.7242,0.7181,0.0,0.0,0.0,0.0,0.0,0.0,0.0,0.0,0.0,0.0,0.0,0.0,0.0,0.0,0.0,0.0,0.7925,0.7988,0.7988,0.7898,0.7762,0.7616,0.7707,0.6728,0.4041,0.3765,0.2715,0.0202,0.0,0.0,0.0,0.0,0.0,0.0,0.0,0.0,0.0,0.0,0.0,0.0,0.0,0.0,0.0,0.0,0.0,0.0,0.0,-0.0756,-0.1988,-0.1988,-0.3493,-0.5927,-0.7409,-0.7988,-0.7988,-0.7988,-0.7988,-0.7988,-0.7988,0.0,0.0,-0.7814,-0.6958,-0.5727,-0.4218,-0.2941,-0.1711,-0.0379,0.0,0.0,0.0,0.0,0.0,0.0,0.0,0.0,0.0,0.0,0.0,0.0,0.0,0.0,0.0,0.0983,0.1762,0.1762,0.2914,0.3765,0.3765,0.4947,0.5827,0.5979,0.7058,0.0,0.7988,0.7988,0.7988,0.7988,0.7988,0.7988,0.7988,0.7988,0.7952,0.7814,0.7814,0.7777,0.7648,0.7648,0.7641,0.7617,0.7491,0.7322,0.0,0.0,0.0,0.0,0.0,0.0,0.0,0.0,0.0,0.0,0.0,0.0,0.0,0.0,0.0,0.7994,0.7996,0.7988,0.7988,0.7989,0.757,0.647,0.6365,0.5325,0.2639,0.2388,0.1712,0.0126,0.0,0.0,0.0,0.0,0.0,0.0,0.0,0.0,0.0,0.0,0.0,0.0,0.0,0.0,0.0,0.0,0.0,0.0,0.0,-0.0756,-0.1988,-0.1988,-0.2941,-0.4618,-0.7055,-0.7988,-0.7988,-0.7988,-0.7988,-0.7988,-0.7988,-0.7988,-0.7814,-0.6734,-0.6204,-0.5552,-0.3116,-0.2213,0.0,-0.0379,0.0,0.0,0.0,0.0,0.0,0.0,0.0,0.0,0.0,0.0,0.0,0.0,0.0,0.0,0.0,0.0227,0.0379,0.0379,0.1536,0.2388,0.2388,0.3566,0.4795,0.5879,0.6232,0.6833,0.7914,0.7988,0.7988,0.7988,0.7988,0.7988,0.7988,0.7988,0.7975,0.7969,0.7969,0.7956,0.7929,0.7929,0.7868,0.7767,0.7624,0.7539,0.0,0.0,0.0,0.0,0.0,0.0,0.0,0.0,0.0,0.0,0.0,0.9998,0.9998,0.0,0.7988,0.7988,0.7988,0.7988,0.7988,0.7988,0.7512,0.6154,0.6004,0.4949,0.2264,0.1988,0.1436,0.0101,0.0,0.0,0.0,0.0,0.0,0.0,0.0,0.0,0.0,0.0,0.0,0.0,0.0,0.0,0.0,0.0,0.0,0.0,0.0,-0.0389,-0.1063,-0.1734,-0.2404,-0.3202,-0.5212,-0.5997,-0.5997,-0.5997,-0.5997,-0.5997,-0.5997,-0.5997,-0.5897,-0.5222,-0.4995,-0.462,-0.2615,-0.1988,-0.1711,-0.0379,0.0,0.0,0.0,0.0,0.0,0.0,0.0,0.0,0.0,0.0,0.0,0.0,0.0,0.0,0.0,0.0,0.0,0.0,0.058,0.1008,0.1008,0.2163,0.3267,0.3919,0.52,0.6279,0.6933,0.7612,0.7988,0.7988,0.7988,0.7988,0.7988,0.7988,0.7988,0.7988,0.7988,0.7988,0.7988,0.7988,0.7976,0.7898,0.7827,0.7716,0.0,0.0,0.0,0.0,0.0,0.0,0.0,0.0,1.2759,1.1434,1.0337,0.9608,0.9608,0.8726,0.7988,0.7988,0.7988,0.7988,0.7988,0.7988,0.7409,0.5802,0.5602,0.4547,0.1862,0.1611,0.1161,0.0076,0.0,0.0,0.0,0.0,0.0,0.0,0.0,0.0,0.0,0.0,0.0,0.0,0.0,0.0,0.0,0.0,0.0,0.0,0.0,0.0,-0.008,-0.1171,-0.1622,-0.1729,-0.2813,-0.3232,-0.3275,-0.3816,-0.4004,-0.3991,-0.3991,-0.3991,-0.3966,-0.369,-0.3615,-0.3364,-0.2013,-0.1611,-0.1385,-0.0303,0.0,0.0,0.0,0.0,0.0,0.0,0.0,0.0,0.0,0.0,0.0,0.0,0.0,0.0,0.0,0.0,0.0,0.0,0.0,0.0,0.0,0.0932,0.1711,0.1962,0.3944,0.5325,0.56,0.6603,0.7232,0.7232,0.7459,0.7612,0.7612,0.7864,0.7988,0.7988,0.7988,0.7988,0.7988,0.7988,0.7988,0.7988,0.7988,0.7888,1.5808,1.4973,1.4118,1.4118,1.3229,1.1994,0.0,0.0,1.0067,0.8701,0.8333,0.8233,0.8233,0.8113,0.7988,0.7988,0.7988,0.7988,0.7988,0.7988,0.7055,0.4518,0.4218,0.3165,0.0479,0.0227,0.0153,0.0,0.0,0.0,0.0,0.0,0.0,0.0,0.0,0.0,0.0,0.0,0.0,0.0,0.0,0.0,0.0,0.0,0.0,0.0,0.0,0.0,0.0,-0.016,-0.0213,-0.024,-0.04,-0.0452,-0.074,-0.3135,-0.3997,-0.3991,-0.3991,-0.3991,-0.3815,-0.2614,-0.2213,-0.1962,-0.0631,-0.0227,-0.0202,-0.0051,0.0,0.0,0.0,0.0,0.0,0.0,0.0,0.0,0.0,0.0,0.0,0.0,0.0,0.0,0.0,0.0,0.0,0.0,0.0,0.0,0.0,0.0126,0.0681,0.1862,0.2264,0.2941,0.4117,0.4368,0.4443,0.4443,0.5575,0.6229,0.6229,0.736,0.7988,0.7988,0.7988,0.7988,0.7988,0.7988,0.7988,0.7988,0.7988,0.7971,1.374,1.3132,1.2745,1.2745,1.2309,1.156,1.0288,0.9998,0.9608,0.8283,0.7988,0.7988,0.7988,0.7988,0.7988,0.7988,0.7988,0.7988,0.7988,0.7988,0.7005,0.4316,0.4004,0.2937,0.0257,0.0,0.0,0.0,0.0,0.0,0.0,0.0,0.0,0.0,0.0,0.0,0.0,0.0,0.0,0.0,0.0,0.0,0.0,0.0,0.0,0.0,0.0,0.0,0.0,0.0,0.0,0.0,0.0,0.0,-0.0135,-0.1272,-0.1675,-0.1664,-0.1664,-0.1678,-0.1587,-0.1024,-0.0839,-0.0731,-0.0177,0.0,0.0,0.0,0.0,0.0,0.0,0.0,0.0,0.0,0.0,0.0,0.0,0.0,0.0,0.0,0.0,0.0,0.0,0.0,0.0,0.0,0.0,0.0,0.0,0.0,0.0504,0.1862,0.1988,0.2539,0.389,0.3991,0.3991,0.3991,0.4518,0.5197,0.5979,0.6531,0.721,0.7988,0.7988,0.7988,0.7988,0.7988,0.7988,0.7988,0.7988,0.7988,1.2164,1.1629,1.139,1.139,1.1097,1.0583,0.9653,0.9435,0.9167,0.8212,0.7988,0.7988,0.7988,0.7988,0.7988,0.7988,0.7988,0.7988,0.7988,0.805,0.7058,0.4324,0.4037,0.2999,0.0263,0.0,0.0,0.0,0.0,0.0,0.0,0.0,0.0,0.0,0.0,0.0,0.0,0.0,0.0,0.0,0.0,0.0,0.0,0.0,0.0,0.0,0.0,0.0,0.0,0.0,0.0,0.0,0.0,0.0,0.0,0.0,0.0,0.0,0.0,0.0,0.0,0.0,0.0,0.0,0.0,0.0,0.0,0.0,0.0,0.0,0.0,0.0,0.0,0.0,0.0,0.0,0.0,0.0,0.0,0.0,0.0,0.0,0.0,0.0,0.0,0.0,0.0,0.0,0.0,0.0,0.0379,0.1335,0.1436,0.1837,0.2815,0.2889,0.2889,0.2889,0.324,0.3892,0.4847,0.525,0.5899,0.6877,0.6902,0.708,0.7437,0.7437,0.7637,0.7988,0.7988,0.7988,1.1901,1.0999,1.0071,1.0071,0.9069,0.8113,0.8063,0.8063,0.8038,0.8013,0.7988,0.7988,0.7988,0.7988,0.7988,0.7988,0.7988,0.7988,0.7988,0.817,0.7226,0.4332,0.4114,0.3098,0.0273,0.0,0.0,0.0,0.0,0.0,0.0,0.0,0.0,0.0,0.0,0.0,0.0,0.0,0.0,0.0,0.0,0.0,0.0,0.0,0.0,0.0,0.0,0.0,0.0,0.0,0.0,0.0,0.0,0.0,0.0,0.0,0.0,0.0,0.0,0.0,0.0,0.0,0.0,0.0,0.0,0.0,0.0,0.0,0.0,0.0,0.0,0.0,0.0,0.0,0.0,0.0,0.0,0.0,0.0,0.0,0.0,0.0,0.0,0.0,0.0,0.0,0.0,0.0,0.0,0.0,0.0025,0.005,0.005,0.0076,0.0126,0.0126,0.0126,0.0126,0.1335,0.2088,0.2113,0.3366,0.4091,0.4116,0.4116,0.477,0.6054,0.6054,0.6734,0.7988,0.7988,0.7988,0.9554,0.8994,0.8676,0.8676,0.8333,0.7988,0.7988,0.7988,0.7988,0.7988,0.7988,0.7988,0.7988,0.7988,0.7988,0.7988,0.7988,0.805,0.8177,0.8264,0.7264,0.4461,0.4164,0.3086,0.0274,0.0,0.0,0.0,0.0,0.0,0.0,0.0,0.0,0.0,0.0,0.0,0.0,0.0,0.0,0.0,0.0,0.0,0.0,0.0,0.0,0.0,0.0,0.0,0.0,0.0,0.0,0.0,0.0,0.0,0.0,0.0,0.0,0.0,0.0,0.0,0.0,0.0,0.0,0.0,0.0,0.0,0.0,0.0,0.0,0.0,0.0,0.0,0.0,0.0,0.0,0.0,0.0,0.0,0.0,0.0,0.0,0.0,0.0,0.0,0.0,0.0,0.0,0.0,0.0,0.0,0.0,0.0,0.0,0.0,0.0,0.0,0.0,0.0,0.0429,0.1084,0.1962,0.244,0.309,0.3991,0.3991,0.4216,0.467,0.467,0.4893,0.5345,0.5345,0.5824,0.8233,0.7988,0.7988,0.7988,0.7988,0.7988,0.7988,0.7988,0.7988,0.7988,0.7988,0.7988,0.7988,0.7988,0.7988,0.7988,0.7988,0.8067,0.8274,0.7898,0.6743,0.4461,0.378,0.2558,0.0221,0.0,0.0,0.0,0.0,0.0,0.0,0.0,0.0,0.0,0.0,0.0,0.0,0.0,0.0,0.0,0.0,0.0,0.0,0.0,0.0,0.0,0.0,0.0,0.0,0.0,0.0,0.0,0.0,0.0,0.0,0.0,0.0,0.0,0.0,0.0,0.0,0.0,0.0,0.0,0.0,0.0,0.0,0.0,0.0,0.0,0.0,0.0,0.0,0.0,0.0,0.0,0.0,0.0,0.0,0.0,0.0,0.0,0.0,0.0,0.0,0.0,0.0404,0.0706,0.0706,0.0706,0.0907,0.1385,0.1436,0.1234,0.0756,0.0706,0.0504,0.0025,0.0,0.0379,0.126,0.1285,0.1686,0.2564,0.2564,0.2815,0.3291,0.3291,0.3541,0.4016,0.4493,0.5172,0.7988,0.7988,0.7988,0.7988,0.7988,0.7988,0.7988,0.7988,0.7988,0.7988,0.7988,0.7988,0.0,0.0,0.7988,0.7988,0.7988,0.8071,0.8284,0.716,0.5789,0.0,0.0,0.0,0.0,0.0,0.0,0.0,0.0,0.0,0.0,0.0,0.0,0.0,0.0,0.0,0.0,0.0,0.0,0.0,0.0,0.0,0.0,0.0,0.0,0.0,0.0,0.0,0.0,0.0,0.0,0.0,0.0,0.0,0.0,0.0,0.0,0.0,0.0,0.0,0.0,0.0,0.0,0.0,0.0,0.0,0.0,0.0,0.0,0.0,0.0,0.0,0.0,0.0,0.0,0.0025,0.0076,0.0101,0.0126,0.0202,0.0202,0.0202,0.0202,0.0202,0.0202,0.0202,0.1285,0.2088,0.2013,0.2063,0.2589,0.3865,0.3991,0.349,0.2213,0.2113,0.1561,0.0278,0.0202,0.0177,0.0101,0.0101,0.0076,0.0,0.0,0.0631,0.1887,0.1962,0.2665,0.3941,0.5272,0.5929,0.7988,0.7988,0.7988,0.7988,0.7988,0.7988,0.7988,0.7988,0.7988,0.7988,0.7988,0.7988,0.0,0.0,0.0,0.7988,0.7988,0.0,0.8417,0.7215,0.0,0.4564,0.0,0.1622,0.014,0.0,0.0,0.0,0.0,0.0,0.0,0.0,0.0,0.0,0.0,0.0,0.0,0.0,0.0,0.0,0.0,0.0,0.0,0.0,0.0,0.0,0.0,0.0,0.0,0.0,0.0,0.0,0.0,0.0,0.0,0.0,0.0,0.0,0.0,0.0,0.0,0.0,0.0,0.0,0.0,0.0,0.0,0.0,0.0,0.0,0.0,0.0,0.0,0.0,0.0,0.0278,0.1285,0.1486,0.1787,0.279,0.299,0.299,0.299,0.299,0.299,0.299,0.3265,0.314,0.2138,0.2864,0.3615,0.3966,0.3991,0.3865,0.3516,0.349,0.3341,0.299,0.299,0.2539,0.1536,0.1486,0.1008,0.0025,0.0,0.0177,0.0504,0.1511,0.2188,0.2539,0.3892,0.5047,0.7988,0.7988,0.7988,0.7988,0.7988,0.7988,0.7988,0.7988,0.7988,0.7988,0.7988,0.7988,0.7988,0.7988,0.7988,0.0,0.0,0.0,0.7566,0.6253,0.4834,0.0,0.2153,0.0,0.0084,0.0,0.0,0.0,0.0,0.0,0.0,0.0,0.0,0.0,0.0,0.0,0.0,0.0,0.0,0.0,0.0,0.0,0.0,0.0,0.0,0.0,0.0,0.0,0.0,0.0,0.0,0.0,0.0,0.0392,0.0952,0.0952,0.1399,0.1986,0.1986,0.1986,0.1763,0.042,0.0448,0.0978,0.0969,0.1446,0.1956,0.1869,0.1835,0.1831,0.1765,0.1762,0.1762,0.1762,0.1762,0.1962,0.2715,0.2889,0.309,0.3865,0.3991,0.3991,0.3991,0.3991,0.3991,0.3991,0.4493,0.4595,0.3844,0.442,0.5095,0.5695,0.5747,0.552,0.492,0.487,0.4618,0.4041,0.3991,0.3665,0.2914,0.2889,0.2514,0.1762,0.1762,0.1762,0.1762,0.2514,0.2889,0.2914,0.4243,0.5275,0.7988,0.7988,0.7988,0.7988,0.7988,0.7988,0.7988,0.7988,0.7988,0.7988,0.0,0.8044,0.8044,0.806,0.8067,0.8047,0.0,0.763,0.6461,0.4982,0.3546,0.2337,0.0896,0.0,0.0,0.0,0.0,0.0,0.0,0.0,0.0,0.0,0.0,0.0,0.0,0.0,0.0,0.0,0.0,0.0,0.0,0.0,0.0,0.0,0.0,0.0,0.0,0.0,0.0,0.0,0.0112,0.028,0.028,0.1203,0.2515,0.2515,0.3352,0.4498,0.4498,0.4498,0.408,0.1456,0.1455,0.2515,0.2515,0.3451,0.4452,0.4278,0.4222,0.4166,0.4048,0.4024,0.3991,0.3991,0.3991,0.4041,0.4218,0.4416,0.4541,0.4541,0.4541,0.4541,0.4541,0.4541,0.4541,0.4541,0.5522,0.6254,0.6254,0.6254,0.6706,0.7889,0.7988,0.7537,0.6354,0.6254,0.5774,0.4593,0.4541,0.4443,0.4268,0.4268,0.4191,0.3991,0.3991,0.3991,0.3991,0.4191,0.4268,0.4291,0.565,0.6254,0.7988,0.7988,0.7988,0.7988,0.7988,0.7988,0.7988,0.7988,0.0,0.0,0.814,0.8257,0.8257,0.8326,0.8367,0.8274,0.8257,0.7795,0.6474,0.4982,0.3546,0.0,0.0896,0.0,0.0,0.0,0.0,0.0,0.0,0.0,0.0,0.0,0.0,0.0,0.0,0.0,0.0,0.0,0.0,0.0,0.0,0.0,0.0,0.0,0.0,0.0,0.0,0.0,0.0,0.0,0.0728,0.1817,0.1817,0.2767,0.4108,0.4108,0.4275,0.4498,0.4498,0.4498,0.4416,0.3885,0.3885,0.4108,0.4108,0.428,0.4492,0.4451,0.4316,0.4205,0.4164,0.4089,0.3991,0.3991,0.3991,0.4291,0.5425,0.6528,0.7307,0.7307,0.7307,0.7307,0.7307,0.7307,0.7307,0.7307,0.7509,0.7662,0.7662,0.7662,0.7739,0.7963,0.7988,0.7914,0.7662,0.7662,0.7562,0.7332,0.7307,0.6805,0.5702,0.5652,0.5122,0.4016,0.3991,0.3991,0.3991,0.5122,0.5652,0.5675,0.7033,0.7662,0.7988,0.7988,0.7988,0.7988,0.7988,0.7988,0.7988,0.0,0.0,0.0,0.8243,0.8318,0.8393,0.8461,0.0,0.8417,0.8345,0.7588,0.5487,0.4507,0.3279,0.1282,0.042,0.0,0.0,0.0,0.0,0.0,0.0,0.0,0.0,0.0,0.0,0.0,0.0,0.0,0.0,0.0,0.0,0.0,0.0,0.0,0.0,0.0,0.0,0.0,0.0,0.0448,0.1147,0.1147,0.2042,0.3409,0.3409,0.4329,0.5641,0.5641,0.6142,0.6785,0.6785,0.6785,0.6785,0.6785,0.6283,0.5641,0.5641,0.6192,0.6772,0.6712,0.6613,0.6537,0.6451,0.6351,0.624,0.624,0.6168,0.6251,0.6905,0.7537,0.7988,0.7988,0.7988,0.7988,0.7988,0.7988,0.7988,0.7988,0.7988,0.7988,0.7988,0.7988,0.7988,0.7988,0.7988,0.7988,0.7988,0.7988,0.7988,0.7988,0.7988,0.7711,0.7058,0.7033,0.6731,0.6099,0.6074,0.6074,0.6074,0.6731,0.7033,0.7058,0.7711,0.7988,0.7988,0.7988,0.7988,0.7988,0.7988,0.7988,0.7988,0.7786,0.0,0.7785,0.7597,0.7565,0.7984,0.8107,0.8219,0.0,0.8464,0.7412,0.4582,0.4115,0.3051,0.0,0.0,0.0,0.0,0.0,0.0,0.0,0.0,0.0,0.0,0.0,0.0,0.0,0.0,0.0,0.0,0.0,0.0,0.0,0.0,0.0,0.0,0.0,0.0168,0.0476,0.0476,0.1315,0.2682,0.2682,0.3603,0.4973,0.4973,0.5864,0.7177,0.7177,0.7903,0.8912,0.8912,0.8912,0.8912,0.8912,0.8125,0.7177,0.7177,0.7986,0.8885,0.8767,0.8733,0.8682,0.8564,0.8451,0.8335,0.8304,0.815,0.7988,0.7988,0.7988,0.7988,0.7988,0.7988,0.7988,0.7988,0.7988,0.7988,0.7988,0.7988,0.7988,0.7988,0.7988,0.7988,0.7988,0.7988,0.7988,0.7988,0.7988,0.7988,0.7988,0.7988,0.7988,0.7988,0.7988,0.7988,0.7988,0.7988,0.7988,0.7988,0.7988,0.7988,0.7988,0.7988,0.7988,0.7988,0.7988,0.7988,0.7988,0.7988,0.7988,0.7988,0.0,0.6182,0.6217,0.5354,0.5,0.6411,0.6775,0.727,0.0,0.8679,0.7618,0.4626,0.4187,0.3148,0.0336,0.0,0.0,0.0,0.0,0.0,0.0,0.0,0.0,0.0,0.0,0.0,0.0,0.0,0.0,0.0,0.0,0.0,0.0,0.0,0.0,0.0,0.0,0.0728,0.1984,0.1984,0.2879,0.4275,0.4275,0.5166,0.6505,0.6505,0.7399,0.8688,0.8688,0.8771,0.8912,0.8912,0.8912,0.8912,0.8912,0.8799,0.8688,0.8688,0.8799,0.8906,0.8892,0.8791,0.8706,0.8693,0.8577,0.8457,0.8325,0.815,0.7988,0.7988,0.7988,0.7988,0.7988,0.7988,0.7988,0.7988,0.7988,0.7988,0.7988,0.7988,0.7988,0.7988,0.7988,0.7988,0.7988,0.7988,0.7988,0.7988,0.7988,0.7988,0.7988,0.7988,0.7988,0.7988,0.7988,0.7988,0.7988,0.7988,0.7988,0.7988,0.7988,0.7988,0.7988,0.7988,0.7988,0.5595,0.5595,0.5595,0.5595,0.5595,0.5595,0.5595,0.0,0.4811,0.4892,0.4547,0.4412,0.5153,0.5341,0.5836,0.7265,0.7424,0.6991,0.585,0.5643,0.452,0.1674,0.1315,0.0964,0.0088,0.0,0.0,0.0,0.0,0.0,0.0,0.0,0.0,0.0,0.0,0.0,0.0,0.0,0.0,0.0,0.1038,0.1499,0.1543,0.2513,0.3234,0.3712,0.3712,0.4508,0.5836,0.5836,0.6702,0.8014,0.8014,0.838,0.8912,0.8912,0.8912,0.8912,0.8912,0.8912,0.8912,0.8912,0.8912,0.8912,0.8912,0.8912,0.8912,0.8912,0.8869,0.8821,0.8821,0.8706,0.856,0.8352,0.8247,0.8153,0.8033,0.7988,0.7988,0.7988,0.7988,0.7988,0.7988,0.7988,0.7988,0.7988,0.7988,0.7988,0.7988,0.7988,0.7988,0.7988,0.7988,0.7988,0.7988,0.7988,0.7988,0.7988,0.7988,0.7988,0.7988,0.7988,0.7988,0.7988,0.7988,0.7988,0.7988,0.7988,0.7988,0.7988,0.7988,0.7988,0.3991,0.3991,0.3991,0.3991,0.3991,0.3991,0.0,0.0,0.3428,0.3525,0.3243,0.3125,0.3712,0.3814,0.4322,0.581,0.5978,0.5948,0.6049,0.5581,0.4488,0.2427,0.0,0.1134,0.0088,0.0,0.0,0.0,0.0,0.0,0.0,0.0,0.0,0.0,0.0,0.0,0.0,0.0494,0.0736,0.0758,0.2411,0.3197,0.325,0.4379,0.5096,0.5416,0.5416,0.6211,0.7505,0.7466,0.8044,0.897,0.8926,0.8912,0.8912,0.8912,0.8912,0.8912,0.8912,0.8912,0.8912,0.8912,0.8912,0.8912,0.8912,0.8912,0.8912,0.8912,0.8912,0.8912,0.8912,0.8798,0.8659,0.8448,0.8359,0.8267,0.8108,0.8047,0.7988,0.7988,0.7988,0.7988,0.7988,0.7988,0.7988,0.7988,0.7988,0.7988,0.7988,0.7988,0.7988,0.7988,0.7988,0.7988,0.7988,0.7988,0.7988,0.7988,0.7988,0.7988,0.7988,0.7988,0.7988,0.7988,0.7988,0.7988,0.7988,0.7988,0.7988,0.7988,0.7988,0.7988,0.3991,0.3991,0.3991,0.3991,0.3991,0.3991,0.0,0.2964,0.2013,0.2013,0.0972,0.0493,0.1942,0.2212,0.2728,0.4278,0.4531,0.4526,0.4528,0.3212,0.2235,0.0,0.0924,0.0028,0.0,0.0,0.0,0.0,0.0,0.0,0.0,0.0,0.0,0.0,0.0,0.0,0.0,0.1633,0.2462,0.2492,0.4115,0.4864,0.489,0.4902,0.5685,0.7087,0.7087,0.7939,0.9364,0.9243,0.9179,0.9165,0.8967,0.8912,0.8912,0.8912,0.8912,0.8912,0.8912,0.8912,0.8912,0.8912,0.8912,0.8912,0.8912,0.8912,0.8912,0.8912,0.8912,0.8912,0.8912,0.8798,0.871,0.8706,0.8482,0.8298,0.8294,0.8147,0.7988,0.7988,0.7988,0.7988,0.7988,0.7988,0.7988,0.7988,0.7988,0.7988,0.7988,0.7988,0.7988,0.7988,0.7988,0.7988,0.7988,0.7988,0.7988,0.7988,0.7988,0.7988,0.7988,0.7988,0.7988,0.7988,0.7988,0.7988,0.7988,0.7988,0.7988,0.7988,0.7988,0.7988,0.126,0.126,0.126,0.126,0.126,0.126,0.126,0.0932,0.0631,0.0631,0.0304,0.0153,0.0621,0.0707,0.1196,0.2689,0.2931,0.3283,0.0,0.0,0.0,0.2319,0.0886,0.0,0.0,0.0,0.0,0.0,0.0,0.0,0.0,0.1079,0.1171,0.0031,0.111,0.1694,0.1694,0.3322,0.4149,0.4149,0.5803,0.661,0.6638,0.7758,0.845,0.8819,0.8819,0.9033,0.9407,0.9356,0.9339,0.9322,0.9172,0.9114,0.91,0.8946,0.8912,0.8912,0.8912,0.8912,0.8912,0.8912,0.8912,0.8912,0.8912,0.8912,0.8912,0.8912,0.8912,0.8912,0.8912,0.8875,0.8814,0.8733,0.8638,0.8543,0.8464,0.8325,0.8197,0.8197,0.8088,0.7988,0.7988,0.7988,0.7988,0.7988,0.7988,0.7988,0.7988,0.7988,0.7988,0.7988,0.7988,0.7988,0.7988,0.7988,0.7988,0.7988,0.7988,0.7988,0.7988,0.7988,0.7988,0.7988,0.7988,0.7988,0.7988,0.7988,0.7988,0.7988,0.7988,0.7988,0.0,0.0,0.0,0.0,0.0,0.0,0.0,0.0,0.0,0.0,0.0,0.0,0.0,0.0,0.0288,0.1212,0.136,0.1894,0.3429,0.0,0.0,0.1482,0.0545,0.0,0.0,0.0,0.0,0.0,0.0,0.0,0.0,0.1602,0.2033,0.0986,0.2554,0.3414,0.3414,0.5037,0.5833,0.5863,0.7515,0.831,0.8343,0.9329,0.9744,0.969,0.969,0.9635,0.0,0.949,0.9466,0.9452,0.9328,0.9233,0.92,0.9052,0.8956,0.8912,0.8912,0.8912,0.8912,0.8912,0.8912,0.8912,0.8912,0.8912,0.8912,0.8912,0.8912,0.8912,0.8912,0.8912,0.8885,0.8791,0.8727,0.8682,0.8587,0.8481,0.8376,0.8376,0.8228,0.8101,0.8101,0.8054,0.7988,0.7988,0.7988,0.7988,0.7988,0.7988,0.7988,0.7988,0.7988,0.7988,0.7988,0.7988,0.7988,0.7988,0.7988,0.7988,0.7988,0.7988,0.7988,0.7988,0.7988,0.7988,0.7988,0.7988,0.7988,0.7988,0.7988,0.7988,0.0,0.0,0.0,0.0,0.0,0.0,0.0,0.0,0.0,0.0,0.0,0.0,0.0,0.0,0.0,0.0,0.0,0.0467,0.1841,0.0868,0.0,0.0,0.0,0.0,0.0,0.0,0.0,0.0,0.0,0.0062,0.0185,0.1756,0.2739,0.283,0.4426,0.5192,0.5069,0.675,0.7576,0.7573,0.9083,0.9792,0.9792,0.9792,0.9792,0.9792,0.9792,0.9792,0.9781,0.968,0.9625,0.9608,0.9456,0.9332,0.9224,0.9214,0.9062,0.8912,0.8912,0.8912,0.8912,0.8912,0.8912,0.8912,0.8912,0.8912,0.8912,0.8912,0.8912,0.8912,0.8912,0.8912,0.8912,0.8912,0.8801,0.8726,0.8726,0.8608,0.8526,0.8526,0.841,0.8311,0.8311,0.8167,0.8044,0.8033,0.803,0.8027,0.7992,0.7988,0.7988,0.7988,0.7988,0.7988,0.7988,0.7988,0.7988,0.7988,0.7988,0.7988,0.7988,0.7988,0.7988,0.7988,0.7988,0.7988,0.7988,0.7988,0.7988,0.7988,0.7988,0.7988,0.0,0.0,0.0,0.0,0.0,0.0,0.0,0.0,0.0,0.0,0.0,0.0,0.0,0.0,0.0,0.0,0.0,0.0108,0.0474,0.0224,0.0,0.0,0.0,0.0,0.0,0.0,0.0,0.0,0.0,0.0555,0.1848,0.3445,0.4914,0.6198,0.7822,0.8069,0.6811,0.8434,0.9235,0.9235,0.9606,0.9792,0.9792,0.9792,0.9792,0.9792,0.9792,0.9792,0.9788,0.9754,0.9741,0.9727,0.9612,0.9462,0.9342,0.9226,0.9062,0.8912,0.8912,0.8912,0.8912,0.8912,0.8912,0.8912,0.8912,0.8912,0.8912,0.8912,0.8912,0.8912,0.8912,0.8912,0.8912,0.8912,0.8882,0.8855,0.8855,0.8737,0.8655,0.8655,0.8533,0.8457,0.8457,0.8401,0.834,0.8235,0.824,0.8174,0.803,0.7988,0.7988,0.7988,0.7988,0.7988,0.7988,0.7988,0.7988,0.7988,0.7988,0.7988,0.7988,0.7988,0.7988,0.7988,0.7988,0.7988,0.7988,0.7988,0.7988,0.7988,0.7988,0.7988,0.0,0.0,0.0,0.0,0.0,0.0,0.0,0.0,0.0,0.0,0.0,0.0,0.0,0.0,0.0,0.0,0.0,0.0,0.0,0.0,0.0,0.0,0.0,0.0,0.0,0.0,0.0,0.0,0.0,0.0401,0.1295,0.3598,0.5314,0.623,0.8559,0.939,0.8498,0.9359,0.9792,0.9792,0.9792,0.9792,0.9792,0.9792,0.9792,0.9792,0.9792,0.9792,0.9792,0.9792,0.9792,0.9785,0.9707,0.9615,0.9466,0.9342,0.9192,0.9028,0.8933,0.8912,0.8912,0.8912,0.8912,0.8912,0.8912,0.8912,0.8912,0.8912,0.8912,0.8912,0.8912,0.8912,0.8912,0.8912,0.8912,0.8912,0.8912,0.8845,0.8787,0.8787,0.9219,0.9395,0.8717,0.9099,0.9254,0.8507,0.8338,0.8267,0.8157,0.8057,0.7988,0.7988,0.7988,0.7988,0.7988,0.7988,0.7988,0.7988,0.7988,0.7988,0.7988,0.7988,0.7988,0.7988,0.7988,0.7988,0.7988,0.7988,0.7988,0.7988,0.7988,0.7988,0.0,0.0,0.0,0.0,0.0,0.0,0.0,0.0,0.0,0.0,0.0,0.0,0.0,0.0,0.0,0.0,0.0,0.0,0.0,0.0,0.0,0.0,0.0,0.0,0.0,0.0,0.0,0.0,0.0,0.0123,0.037,0.326,0.5008,0.5284,0.8224,0.9792,0.9792,0.9792,0.9792,0.9792,0.9792,0.9792,0.9792,0.9792,0.9792,0.9792,0.9792,0.9792,0.9792,0.9792,0.9792,0.9792,0.9792,0.9704,0.9591,0.9439,0.9315,0.9158,0.896,0.8912,0.8912,0.8912,0.8912,0.8912,0.8912,0.8912,0.8912,0.8912,0.8912,0.8912,0.8912,0.8912,0.8912,0.8912,0.8912,0.8912,0.8912,0.8912,0.8912,0.8912,0.9825,1.0257,0.925,1.0,1.0331,0.9065,0.8775,0.8599,0.8327,0.8157,0.804,0.7992,0.7988,0.7988,0.7988,0.7988,0.7988,0.7988,0.7988,0.7988,0.7988,0.7988,0.7988,0.7988,0.7988,0.7988,0.7988,0.7988,0.7988,0.7988,0.7988,0.7988,0.0,0.0,0.0,0.0,0.0,0.0,0.0,0.0,0.0,0.0,0.0,0.0,0.0,0.0,0.0,0.0,0.0,0.0,0.0,0.0,0.0,0.0,0.0,0.0,0.0,0.0,0.0,0.0,0.0,0.0617,0.2033,0.3873,0.5557,0.6963,0.8836,0.9792,0.9792,0.9792,0.9792,0.9792,0.9792,0.9792,0.9792,0.9792,0.9792,0.9792,0.9792,0.9792,0.9792,0.9792,0.9792,0.9792,0.9792,0.9704,0.9591,0.9439,0.9315,0.9158,0.896,0.8912,0.8912,0.8912,0.8912,0.8912,0.8912,0.8912,0.8912,0.8912,0.8912,0.8912,0.8912,0.8912,0.8912,0.8912,0.8912,0.8912,0.8912,0.8912,0.8912,0.8912,0.9054,0.9525,1.0549,1.0906,1.0912,1.0592,1.052,0.9981,0.8479,0.8274,0.8184,0.803,0.7988,0.7988,0.7988,0.7988,0.7988,0.7988,0.7988,0.7988,0.7988,0.7988,0.7988,0.7988,0.7988,0.7988,0.7988,0.7988,0.7988,0.7988,0.7988,0.7988,0.0,0.0,0.0,0.0,0.0,0.0,0.0,0.0,0.0,0.0,0.0,0.0,0.0,0.0,0.0,0.0,0.0,0.0,0.0,0.0,0.0,0.0,0.0,0.0,0.0,0.0,0.0,0.0,0.0,0.0339,0.111,0.2708,0.4364,0.5986,0.764,0.8927,0.9792,0.9792,0.9792,0.9792,0.9792,0.9792,0.9792,0.9792,0.9792,0.9792,0.9792,0.9792,0.9792,0.9792,0.9792,0.9792,0.9792,0.9751,0.9696,0.9466,0.9235,0.9028,0.8933,0.8912,0.8912,0.8912,0.8912,0.8912,0.8912,0.8912,0.8912,0.8912,0.8912,0.8912,0.8912,0.8912,0.8912,0.8912,0.8912,0.8912,0.8912,0.8912,0.8912,0.8912,0.9533,1.0296,1.0973,1.1755,1.2262,1.2217,1.1474,1.0604,0.9818,0.888,0.827,0.8174,0.8064,0.7988,0.7988,0.7988,0.7988,0.7988,0.7988,0.7988,0.7988,0.7988,0.7988,0.7988,0.7988,0.7988,0.7988,0.7988,0.7988,0.7988,0.7988,0.7988,0.0,0.0,0.0,0.0,0.0,0.0,0.0,0.0,0.0,0.0,0.0,0.0,0.0,0.0,0.0,0.0,0.0,0.0,0.0,0.0,0.0,0.0,0.0,0.0,0.0,0.0,0.0,0.0,0.0,0.0,0.0,0.194,0.3629,0.4855,0.6902,0.8556,0.9792,0.9792,0.9792,0.9792,0.9792,0.9792,0.9792,0.9792,0.9792,0.9792,0.9792,0.9792,0.9792,0.9792,0.9792,0.9792,0.9792,0.9748,0.9686,0.9451,0.9161,0.8912,0.8912,0.8912,0.8912,0.8912,0.8912,0.8912,0.8912,0.8912,0.8912,0.8912,0.8912,0.8912,0.8912,0.8912,0.8912,0.8912,0.8912,0.8912,0.8912,0.8912,0.8912,0.8912,0.9805,1.0699,1.1055,1.205,1.2778,1.2778,1.1729,1.0819,1.0434,0.9212,0.8372,0.8304,0.8163,0.8054,0.7992,0.7988,0.7988,0.7988,0.7988,0.7988,0.7988,0.7988,0.7988,0.7988,0.7988,0.7988,0.7988,0.7988,0.7988,0.7988,0.7988,0.7988,0.0,0.0,0.0,0.0,0.0,0.0,0.0,0.0,0.0,0.0,0.0,0.0,0.0,0.0,0.0,0.0,0.0,0.0,0.0,0.0,0.0,0.0,0.0,0.0,0.0,0.0,0.0,0.0,0.0,0.0,0.0,0.3015,0.4794,0.4885,0.7978,0.9697,0.9792,0.9792,0.9792,0.9792,0.9792,0.9792,0.9792,0.9792,0.9792,0.9792,0.9792,0.9792,0.9792,0.9792,0.9792,0.9792,0.9792,0.9652,0.9424,0.9257,0.9069,0.8912,0.8912,0.8912,0.8912,0.8912,0.8912,0.8912,0.8912,0.8912,0.8912,0.8912,0.8912,0.8912,0.8912,0.8912,0.8912,0.8912,0.8912,0.8912,0.8912,0.8912,0.8912,0.8912,0.8992,0.9482,1.0863,1.1187,1.1269,1.1269,1.1147,1.054,0.9047,0.8746,0.8574,0.8325,0.8284,0.8197,0.8027,0.7988,0.7988,0.7988,0.7988,0.7988,0.7988,0.7988,0.7988,0.7988,0.7988,0.7988,0.7988,0.7988,0.7988,0.7988,0.7988,0.7988,0.0,0.0,0.0,0.0,0.0,0.0,0.0,0.0,0.0,0.0,0.0,0.0,0.0,0.0,0.0,0.0,0.0,0.0,0.0,0.0,0.0,0.0,0.0,0.0,0.0,0.0,0.0,0.0,0.0,0.0,0.0,0.1171,0.28,0.4826,0.611,0.7734,0.9788,0.9792,0.9792,0.9792,0.9792,0.9792,0.9792,0.9792,0.9792,0.9792,0.9792,0.9792,0.9792,0.9792,0.9792,0.9781,0.9694,0.9503,0.926,0.9231,0.9062,0.8912,0.8912,0.8912,0.8912,0.8912,0.8912,0.8912,0.8912,0.8912,0.8912,0.8912,0.8912,0.8912,0.8912,0.8912,0.8912,0.8912,0.8912,0.8912,0.8912,0.8912,0.8912,0.8912,0.8912,0.9372,1.0836,1.1105,1.1406,1.2322,1.1701,1.0893,1.0256,0.9329,0.8632,0.8451,0.8235,0.8077,0.7995,0.7988,0.7988,0.7988,0.7988,0.7988,0.7988,0.7988,0.7988,0.7988,0.7988,0.7988,0.7988,0.7988,0.7988,0.7988,0.7988,0.7988,0.0,0.0,0.0,0.0,0.0,0.0,0.0,0.0,0.0,0.0,0.0,0.0,0.0,0.0,0.0,0.0,0.0,0.0,0.0,0.0,0.0,0.0,0.0,0.0,0.0,0.0,0.0,0.0,0.0,0.0,0.0,0.0492,0.2063,0.4824,0.5406,0.7027,0.9758,0.9792,0.9792,0.9792,0.9792,0.9792,0.9792,0.9792,0.9792,0.9792,0.9792,0.9792,0.9792,0.9792,0.9765,0.9704,0.954,0.9366,0.9204,0.9128,0.9022,0.8912,0.8912,0.8912,0.8912,0.8912,0.8912,0.8912,0.8912,0.8912,0.8912,0.8912,0.8912,0.8912,0.8912,0.8912,0.8912,0.8912,0.8912,0.8912,0.8912,0.8912,0.8912,0.8912,0.8912,0.921,1.0241,1.0402,1.0758,1.1755,1.1051,1.0402,1.0402,0.9439,0.8706,0.8529,0.8262,0.8067,0.7992,0.7988,0.7988,0.7988,0.7988,0.7988,0.7988,0.7988,0.7988,0.7988,0.7988,0.7988,0.7988,0.7988,0.7988,0.7988,0.7988,0.7988,0.0,0.0,0.0,0.0,0.0,0.0,0.0,0.0,0.0,0.0,0.0,0.0,0.0,0.0,0.0,0.0,0.0,0.0,0.0,0.0,0.0,0.0,0.0,0.0,0.0,0.0,0.0,0.0,0.0,0.0,0.0,0.1588,0.3229,0.4822,0.6503,0.8158,0.9758,0.9792,0.9792,0.9792,0.9792,0.9792,0.9792,0.9792,0.9792,0.9792,0.9792,0.9792,0.9788,0.9788,0.9704,0.9574,0.9298,0.921,0.9162,0.8963,0.8912,0.8912,0.8912,0.8912,0.8912,0.8912,0.8912,0.8912,0.8912,0.8912,0.8912,0.8912,0.8912,0.8912,0.8912,0.8912,0.8912,0.8912,0.8912,0.8912,0.8912,0.8912,0.8912,0.8912,0.8912,0.8912,0.8912,0.8912,0.8912,0.8912,0.8912,0.8912,0.8912,0.8909,0.8791,0.8543,0.8383,0.8208,0.8027,0.7988,0.7988,0.7988,0.7988,0.7988,0.7988,0.7988,0.7988,0.7988,0.7988,0.7988,0.7988,0.7988,0.7988,0.7988,0.7988,0.7988,0.0,0.0,0.0,0.0,0.0,0.0,0.0,0.0,0.0,0.0,0.0,0.0,0.0,0.0,0.0,0.0,0.0,0.0,0.0,0.0,0.0,0.0,0.0,0.0,0.0,0.0,0.0,0.0,0.0,0.0,0.0,0.0476,0.1491,0.3155,0.4779,0.6434,0.8096,0.922,0.9792,0.9792,0.9792,0.9792,0.9792,0.9792,0.9792,0.9792,0.9792,0.9734,0.9663,0.9554,0.9451,0.9308,0.9245,0.9117,0.897,0.8926,0.8912,0.8912,0.8912,0.8912,0.8912,0.8912,0.8912,0.8912,0.8912,0.8912,0.8912,0.8912,0.8912,0.8912,0.8912,0.8912,0.8912,0.8912,0.8912,0.8912,0.8912,0.8912,0.8912,0.8912,0.8912,0.8912,0.8912,0.8912,0.8912,0.8912,0.8912,0.8912,0.8912,0.8818,0.8703,0.8529,0.8383,0.8208,0.8027,0.7988,0.7988,0.7988,0.7988,0.7988,0.7988,0.7988,0.7988,0.7988,0.7988,0.7988,0.7988,0.7988,0.7988,0.7988,0.7988,0.7988,0.0,0.0,0.0,0.0,0.0,0.0,0.0,0.0,0.0,0.0,0.0,0.0,0.0,0.0,0.0,0.0,0.0,0.0,0.0,0.0,0.0,0.0,0.0,0.0,0.0,0.0,0.0,0.0,0.0,0.0,0.0,0.0,0.0765,0.2437,0.3435,0.5026,0.7254,0.8248,0.9042,0.9646,0.9646,0.9646,0.9649,0.9737,0.9761,0.9734,0.9673,0.9598,0.9507,0.9383,0.9264,0.9204,0.9117,0.9015,0.8912,0.8912,0.8912,0.8912,0.8912,0.8912,0.8912,0.8912,0.8912,0.8912,0.8912,0.8912,0.8912,0.8912,0.8912,0.8912,0.8912,0.8912,0.8912,0.8912,0.8912,0.8912,0.8912,0.8912,0.8912,0.8912,0.8912,0.8912,0.8912,0.8912,0.8912,0.8912,0.8912,0.8912,0.8912,0.8831,0.8716,0.8587,0.8468,0.8318,0.8143,0.805,0.7988,0.7988,0.7988,0.7988,0.7988,0.7988,0.7988,0.7988,0.7988,0.7988,0.7988,0.7988,0.7988,0.7988,0.7988,0.7988,0.0,0.0,0.0,0.0,0.0,0.0,0.0,0.0,0.0,0.0,0.0,0.0,0.0,0.0,0.0,0.0,0.0,0.0,0.0,0.0,0.0,0.0,0.0,0.0,0.0,0.0,0.0,0.0,0.0,0.0,0.0,0.0,0.0703,0.2223,0.2431,0.3833,0.6664,0.682,0.7677,0.9204,0.9204,0.9262,0.942,0.9659,0.971,0.9581,0.9425,0.939,0.9376,0.9226,0.9162,0.9148,0.8963,0.8912,0.8912,0.8912,0.8912,0.8912,0.8912,0.8912,0.8912,0.8912,0.8912,0.8912,0.8912,0.8912,0.8912,0.8912,0.8912,0.8912,0.8912,0.8912,0.8912,0.8912,0.8912,0.8912,0.8912,0.8912,0.8912,0.8912,0.8912,0.8912,0.8912,0.8912,0.8912,0.8912,0.8912,0.8912,0.8912,0.8912,0.8852,0.8726,0.8584,0.8464,0.8311,0.814,0.803,0.7992,0.7988,0.7988,0.7988,0.7988,0.7988,0.7988,0.7988,0.7988,0.7988,0.7988,0.7988,0.7988,0.7988,0.7988,0.0,0.0,0.0,0.0,0.0,0.0,0.0,0.0,0.0,0.0,0.0,0.0,0.0,0.0,0.0,0.0,0.0,0.0,0.0,0.0,0.0,0.0,0.0,0.0,0.0,0.0,0.0,0.0,0.0,0.0,0.0,0.0,0.017,0.0538,0.1804,0.2823,0.3483,0.4748,0.6125,0.759,0.759,0.8232,0.9413,0.9445,0.9459,0.9422,0.9298,0.923,0.922,0.9045,0.8956,0.8953,0.8923,0.8912,0.8912,0.8912,0.8912,0.8912,0.8912,0.8912,0.8912,0.8912,0.8912,0.8912,0.8912,0.8912,0.8912,0.8912,0.8912,0.8912,0.8912,0.8912,0.8912,0.8912,0.8912,0.8912,0.8912,0.8912,0.8912,0.8912,0.8912,0.8912,0.8912,0.8912,0.8912,0.8912,0.8912,0.8912,0.8912,0.8912,0.8852,0.8726,0.8679,0.8557,0.8318,0.8267,0.817,0.802,0.7988,0.7988,0.7988,0.7988,0.7988,0.7988,0.7988,0.7988,0.7988,0.7988,0.7988,0.7988,0.7988,0.7988,0.0,0.0,0.0,0.0,0.0,0.0,0.0,0.0,0.0,0.0,0.0,0.0,0.0,0.0,0.0,0.0,0.0,0.0,0.0,0.0,0.0,0.0,0.0,0.0,0.0,0.0,0.0,0.0,0.0,0.0,0.0,0.0,0.0,0.0,0.0847,0.1644,0.235,0.3197,0.4354,0.5873,0.6557,0.7704,0.9171,0.9267,0.9301,0.9291,0.9141,0.9052,0.9045,0.894,0.8912,0.8912,0.8912,0.8912,0.8912,0.8912,0.8912,0.8912,0.8912,0.8912,0.8912,0.8912,0.8912,0.8912,0.8912,0.8912,0.8912,0.8912,0.8912,0.8912,0.8912,0.8912,0.8912,0.8912,0.8912,0.8912,0.8912,0.8912,0.8912,0.8912,0.8912,0.8912,0.8912,0.8912,0.8912,0.8912,0.8912,0.8912,0.8912,0.8912,0.8882,0.8801,0.8727,0.8618,0.8417,0.8335,0.8204,0.8027,0.7988,0.7988,0.7988,0.7988,0.7988,0.7988,0.7988,0.7988,0.7988,0.7988,0.7988,0.7988,0.7988,0.7988,0.0,0.0,0.0,0.0,0.0,0.0,0.0,0.0,0.0,0.0,0.0,0.0,0.0,0.0,0.0,0.0,0.0,0.0,0.0,0.0,0.0,0.0,0.0,0.0,0.0,0.0,0.0,0.0,0.0,0.0,0.0,0.0,0.0,0.0,0.0,0.0588,0.1817,0.1817,0.2599,0.4108,0.5611,0.7091,0.8522,0.8691,0.8916,0.9138,0.8963,0.8912,0.8912,0.8912,0.8912,0.8912,0.8912,0.8912,0.8912,0.8912,0.8912,0.8912,0.8912,0.8912,0.8912,0.8912,0.8912,0.8912,0.8912,0.8912,0.8912,0.8912,0.8912,0.8912,0.8912,0.8912,0.8912,0.8912,0.8912,0.8912,0.8912,0.8912,0.8912,0.8912,0.8912,0.8912,0.8912,0.8912,0.8912,0.8912,0.8912,0.8912,0.8912,0.8912,0.8912,0.8912,0.8798,0.8686,0.8533,0.844,0.8269,0.8067,0.8054,0.8044,0.7992,0.7988,0.7988,0.7988,0.7988,0.7988,0.7988,0.7988,0.7988,0.7988,0.7988,0.7988,0.0,0.0,0.0,0.0,0.0,0.0,0.0,0.0,0.0,0.0,0.0,0.0,0.0,0.0,0.0,0.0,0.0,0.0,0.0,0.0,0.0,0.0,0.0,0.0,0.0,0.0,0.0,0.0,0.0,0.0,0.0,0.0,0.0,0.0,0.0,0.0084,0.028,0.028,0.1036,0.2515,0.405,0.5558,0.6982,0.7023,0.7733,0.8936,0.8919,0.8912,0.8912,0.8912,0.8912,0.8912,0.8912,0.8912,0.8912,0.8912,0.8912,0.8912,0.8912,0.8912,0.8912,0.8912,0.8912,0.8912,0.8912,0.8912,0.8912,0.8912,0.8912,0.8912,0.8912,0.8912,0.8912,0.8912,0.8912,0.8912,0.8912,0.8912,0.8912,0.8912,0.8912,0.8912,0.8912,0.8912,0.8912,0.8912,0.8912,0.8912,0.8912,0.8912,0.8912,0.8912,0.8892,0.8818,0.8693,0.8662,0.8533,0.8284,0.8267,0.818,0.7995,0.7988,0.7988,0.7988,0.7988,0.7988,0.7988,0.7988,0.7988,0.7988,0.7988,0.7988,0.0,0.0,0.0,0.0,0.0,0.0,0.0,0.0,0.0,0.0,0.0,0.0,0.0,0.0,0.0,0.0,0.0,0.0,0.0,0.0,0.0,0.0,0.0,0.0,0.0,0.0,0.0,0.0,0.0,0.0,0.0,0.0,0.0,0.0,0.0,0.0,0.0,0.0,0.0728,0.2208,0.2878,0.3995,0.5502,0.6311,0.7512,0.8912,0.8912,0.8912,0.8912,0.8912,0.8912,0.8912,0.8912,0.8912,0.8912,0.8912,0.8912,0.8912,0.8912,0.8912,0.8912,0.8912,0.8912,0.8912,0.8912,0.8912,0.8912,0.8912,0.8912,0.8912,0.8912,0.8912,0.8912,0.8912,0.8912,0.8912,0.8912,0.8912,0.8912,0.8912,0.8912,0.8912,0.8912,0.8912,0.8912,0.8912,0.8912,0.8912,0.8912,0.8912,0.8912,0.8912,0.8912,0.8848,0.8723,0.871,0.8618,0.843,0.8342,0.8267,0.817,0.806,0.7988,0.7988,0.7988,0.7988,0.7988,0.7988,0.7988,0.7988,0.7988,0.7988,0.0,0.0,0.0,0.0,0.0,0.0,0.0,0.0,0.0,0.0,0.0,0.0,0.0,0.0,0.0,0.0,0.0,0.0,0.0,0.0,0.0,0.0,0.0,0.0,0.0,0.0,0.0,0.0,0.0,0.0,0.0,0.0,0.0,0.0,0.0,0.0,0.0,0.0,0.056,0.165,0.165,0.2432,0.3939,0.5053,0.6364,0.782,0.8574,0.8912,0.8912,0.8912,0.8912,0.8912,0.8912,0.8912,0.8912,0.8912,0.8912,0.8912,0.8912,0.8912,0.8912,0.8912,0.8912,0.8912,0.8912,0.8912,0.8912,0.8912,0.8912,0.8912,0.8912,0.8912,0.8912,0.8912,0.8912,0.8912,0.8912,0.8912,0.8912,0.8912,0.8912,0.8912,0.8912,0.8912,0.8912,0.8912,0.8912,0.8912,0.8912,0.8912,0.8912,0.8912,0.8912,0.8865,0.875,0.874,0.8703,0.855,0.8468,0.8372,0.8301,0.816,0.8054,0.7988,0.7988,0.7988,0.7988,0.7988,0.7988,0.7988,0.7988,0.7988,0.0,0.0,0.0,0.0,0.0,0.0,0.0,0.0,0.0,0.0,0.0,0.0,0.0,0.0,0.0,0.0,0.0,0.0,0.0,0.0,0.0,0.0,0.0,0.0,0.0,0.0,0.0,0.0,0.0,0.0,0.0,0.0,0.0,0.0,0.0,0.0,0.0,0.0,0.0028,0.0112,0.0112,0.0896,0.2319,0.2403,0.3268,0.489,0.7679,0.8912,0.8912,0.8912,0.8912,0.8912,0.8912,0.8912,0.8912,0.8912,0.8912,0.8912,0.8912,0.8912,0.8912,0.8912,0.8912,0.8912,0.8912,0.8912,0.8912,0.8912,0.8912,0.8912,0.8912,0.8912,0.8912,0.8912,0.8912,0.8912,0.8912,0.8912,0.8912,0.8912,0.8912,0.8912,0.8912,0.8912,0.8912,0.8912,0.8912,0.8912,0.8912,0.8912,0.8912,0.8912,0.8912,0.8906,0.8899,0.8899,0.8835,0.871,0.8693,0.8564,0.8308,0.8287,0.8187,0.7992,0.7988,0.7988,0.7988,0.7988,0.7988,0.7988,0.7988,0.7988,0.0,0.0,0.0,0.0,0.0,0.0,0.0,0.0,0.0,0.0,0.0,0.0,0.0,0.0,0.0,0.0,0.0,0.0,0.0,0.0,0.0,0.0,0.0,0.0,0.0,0.0,0.0,0.0,0.0,0.0,0.0,0.0,0.0,0.0,0.0,0.0,0.0,0.0,0.0,0.0,0.0,0.028,0.0812,0.1761,0.2515,0.3129,0.5194,0.6089,0.6089,0.6089,0.6647,0.7485,0.7485,0.8072,0.8912,0.8912,0.8912,0.8912,0.8912,0.8912,0.8912,0.8912,0.8912,0.8912,0.8912,0.8912,0.8912,0.8912,0.8912,0.8912,0.8912,0.8912,0.8912,0.8912,0.8912,0.8912,0.8912,0.8912,0.8912,0.8912,0.8912,0.8912,0.8912,0.8912,0.8912,0.8912,0.8912,0.8912,0.8912,0.8912,0.8912,0.8912,0.8912,0.8912,0.8912,0.8912,0.8889,0.8831,0.8737,0.8662,0.8557,0.8396,0.827,0.8187,0.8064,0.7988,0.7988,0.7988,0.7988,0.7988,0.7988,0.7988,0.0,0.0,0.0,0.0,0.0,0.0,0.0,0.0,0.0,0.0,0.0,0.0,0.0,0.0,0.0,0.0,0.0,0.0,0.0,0.0,0.0,0.0,0.0,0.0,0.0,0.0,0.0,0.0,0.0,0.0,0.0,0.0,0.0,0.0,0.0,0.0,0.0,0.0,0.0,0.0,0.0,0.0,0.0028,0.1008,0.1454,0.151,0.2545,0.3578,0.4498,0.4498,0.5085,0.5947,0.5947,0.6561,0.7426,0.7426,0.7426,0.7426,0.7426,0.7426,0.7426,0.7426,0.7426,0.7426,0.7426,0.7762,0.8156,0.8156,0.8519,0.8912,0.8912,0.8912,0.8912,0.8912,0.8912,0.8912,0.8912,0.8912,0.8912,0.8912,0.8912,0.8912,0.8912,0.8912,0.8912,0.8912,0.8912,0.8912,0.8912,0.8912,0.8912,0.8912,0.8912,0.8912,0.8912,0.8912,0.8912,0.8912,0.8818,0.8737,0.8713,0.8523,0.8396,0.8298,0.817,0.8067,0.7988,0.7988,0.7988,0.7988,0.7988,0.7988,0.0,0.0,0.0,0.0,0.0,0.0,0.0,0.0,0.0,0.0,0.0,0.0,0.0,0.0,0.0,0.0,0.0,0.0,0.0,0.0,0.0,0.0,0.0,0.0,0.0,0.0,0.0,0.0,0.0,0.0,0.0,0.0,0.0,0.0,0.0,0.0,0.0,0.0,0.0,0.0,0.0,0.0,0.0,0.0,0.0,0.0,0.0,0.1651,0.4359,0.4359,0.4387,0.4442,0.4442,0.447,0.4498,0.4498,0.4498,0.4498,0.4498,0.4498,0.4498,0.4498,0.4498,0.4498,0.4498,0.5502,0.6647,0.6647,0.7679,0.8771,0.8771,0.8771,0.8771,0.8826,0.8826,0.8854,0.8881,0.8912,0.8912,0.8912,0.8912,0.8912,0.8912,0.8912,0.8912,0.8912,0.8912,0.8912,0.8912,0.8912,0.8912,0.8912,0.8912,0.8912,0.8912,0.8912,0.8912,0.8912,0.8912,0.8845,0.8723,0.8713,0.8574,0.8315,0.8304,0.8201,0.7995,0.7992,0.7988,0.7988,0.7988,0.7988,0.0,0.0,0.0,0.0,0.0,0.0,0.0,0.0,0.0,0.0,0.0,0.0,0.0,0.0,0.0,0.0,0.0,0.0,0.0,0.0,0.0,0.0,0.0,0.0,0.0,0.0,0.0,0.0,0.0,0.0,0.0,0.0,0.0,0.0,0.0,0.0,0.0,0.0,0.0,0.0,0.0,0.0,0.0,0.0,0.0,0.0,0.0,0.0476,0.1232,0.1232,0.1874,0.285,0.285,0.3521,0.4498,0.4498,0.4498,0.4498,0.4498,0.4498,0.4498,0.4498,0.4498,0.4498,0.4498,0.4777,0.5111,0.5111,0.5391,0.5725,0.5725,0.5725,0.5975,0.7063,0.7315,0.7595,0.866,0.8912,0.8912,0.8912,0.8912,0.8912,0.8912,0.8912,0.8912,0.8912,0.8912,0.8912,0.8912,0.8912,0.8912,0.8912,0.8912,0.8912,0.8912,0.8912,0.8912,0.8912,0.8912,0.8892,0.8848,0.874,0.8672,0.8591,0.8505,0.8376,0.8208,0.8071,0.7988,0.7988,0.7988,0.7988,0.0,0.0,0.0,0.0,0.0,0.0,0.0,0.0,0.0,0.0,0.0,0.0,0.0,0.0,0.0,0.0,0.0,0.0,0.0,0.0,0.0,0.0,0.0,0.0,0.0,0.0,0.0,0.0,0.0,0.0,0.0,0.0,0.0,0.0,0.0,0.0,0.0,0.0,0.0,0.0,0.0,0.0,0.0,0.0,0.0,0.0,0.0,0.0,0.0,0.0,0.0504,0.1287,0.1287,0.1818,0.2628,0.2628,0.2628,0.2628,0.2628,0.2628,0.2628,0.2628,0.2628,0.2628,0.2628,0.3047,0.3548,0.3548,0.3995,0.4498,0.4498,0.4498,0.4721,0.5586,0.6255,0.6924,0.7789,0.8463,0.8912,0.8912,0.8912,0.8912,0.8912,0.8912,0.8912,0.8912,0.8912,0.8912,0.8912,0.8912,0.8912,0.8912,0.8912,0.8912,0.8912,0.8912,0.8912,0.8912,0.8912,0.8912,0.8912,0.8825,0.8747,0.8713,0.8621,0.8506,0.8386,0.8208,0.8077,0.7988,0.7988,0.7988,0.0,0.0,0.0,0.0,0.0,0.0,0.0,0.0,0.0,0.0,0.0,0.0,0.0,0.0,0.0,0.0,0.0,0.0,0.0,0.0,0.0,0.0,0.0,0.0,0.0,0.0,0.0,0.0,0.0,0.0,0.0,0.0,0.0,0.0,0.0,0.0,0.0,0.0,0.0,0.0,0.0,0.0,0.0,0.0,0.0,0.0,0.0,0.0,0.0,0.0,0.0,0.0,0.0,0.0,0.0,0.0,0.0,0.0,0.0,0.0,0.0,0.0,0.0,0.0,0.0,0.0924,0.1956,0.1956,0.2935,0.3996,0.3996,0.3996,0.4052,0.4219,0.525,0.6253,0.6422,0.7623,0.8657,0.8657,0.8799,0.8912,0.8912,0.8912,0.8912,0.8912,0.8912,0.8912,0.8912,0.8912,0.8912,0.8912,0.8912,0.8912,0.8912,0.8912,0.8912,0.8912,0.8912,0.8912,0.8912,0.8912,0.8848,0.8737,0.872,0.8645,0.8532,0.8372,0.8201,0.804,0.7998,0.7988,-0.0314,0.0,0.0,0.0,0.0,0.0,0.0,0.0,0.0,0.0,0.0,0.0,0.0,0.0,0.0,0.0,0.0,0.0,0.0,0.0,0.0,0.0,0.0,0.0,0.0,0.0,0.0,0.0,0.0,0.0,0.0,0.0,0.0,0.0,0.0,0.0,0.0,0.0,0.0,0.0,0.0,0.0,0.0,0.0,0.0,0.0,0.0,0.0,0.0,0.0,0.0,0.0,0.0,0.0,0.0,0.0,0.0,0.0,0.0,0.0,0.0,0.0,0.0,0.0,0.0,0.0196,0.042,0.042,0.0644,0.0868,0.0868,0.0868,0.1176,0.2376,0.2878,0.3408,0.4665,0.6089,0.7118,0.7118,0.8097,0.8912,0.8912,0.8912,0.8912,0.8912,0.8912,0.8912,0.8912,0.8912,0.8912,0.8912,0.8912,0.8912,0.8912,0.8912,0.8912,0.8912,0.8912,0.8912,0.8912,0.8912,0.8896,0.8869,0.8747,0.8696,0.8665,0.8423,0.8281,0.8247,0.8074,0.7988,-0.0402,0.0,0.0,0.0,0.0,0.0,0.0,0.0,0.0,0.0,0.0,0.0,0.0,0.0,0.0,0.0,0.0,0.0,0.0,0.0,0.0,0.0,0.0,0.0,0.0,0.0,0.0,0.0,0.0,0.0,0.0,0.0,0.0,0.0,0.0,0.0,0.0,0.0,0.0,0.0,0.0,0.0,0.0,0.0,0.0,0.0,0.0,0.0,0.0,0.0,0.0,0.0,0.0,0.0,0.0,0.0,0.0,0.0,0.0,0.0,0.0,0.0,0.0,0.0,0.0,0.0,0.0,0.0,0.0,0.0,0.0,0.0,0.0196,0.0924,0.1677,0.2626,0.4164,0.5669,0.6924,0.7651,0.8408,0.8912,0.8912,0.8912,0.8912,0.8912,0.8912,0.8912,0.8912,0.8912,0.8912,0.8912,0.8912,0.8912,0.8912,0.8912,0.8912,0.8912,0.8912,0.8912,0.8912,0.8912,0.8912,0.8912,0.8835,0.8798,0.8798,0.8601,0.8475,0.84,0.8225,0.8153,-0.0493,0.0,0.0,0.0,0.0,0.0,0.0,0.0,0.0,0.0,0.0,0.0,0.0,0.0,0.0,0.0,0.0,0.0,0.0,0.0,0.0,0.0,0.0,0.0,0.0,0.0,0.0,0.0,0.0,0.0,0.0,0.0,0.0,0.0,0.0,0.0,0.0,0.0,0.0,0.0,0.0,0.0,0.0,0.0,0.0,0.0,0.0,0.0,0.0,0.0,0.0,0.0,0.0,0.0,0.0,0.0,0.0,0.0,0.0,0.0,0.0,0.0,0.0,0.0,0.0,0.0,0.0,0.0,0.0,0.0,0.0,0.0,0.0,0.0,0.0896,0.2125,0.3354,0.5027,0.6619,0.782,0.8519,0.8912,0.8912,0.8912,0.8912,0.8912,0.8912,0.8912,0.8912,0.8912,0.8912,0.8912,0.8912,0.8912,0.8912,0.8912,0.8912,0.8912,0.8912,0.8912,0.8912,0.8912,0.8912,0.8912,0.8912,0.8912,0.8912,0.8787,0.8676,0.8523,0.8403,0.8338,-0.0769,0.0,0.0,0.0,0.0,0.0,0.0,0.0,0.0,0.0,0.0,0.0,0.0,0.0,0.0,0.0,0.0,0.0,0.0,0.0,0.0,0.0,0.0,0.0,0.0,0.0,0.0,0.0,0.0,0.0,0.0,0.0,0.0,0.0,0.0,0.0,0.0,0.0,0.0,0.0,0.0,0.0,0.0,0.0,0.0,0.0,0.0,0.0,0.0,0.0,0.0,0.0,0.0,0.0,0.0,0.0,0.0,0.0,0.0,0.0,0.0,0.0,0.0,0.0,0.0,0.0,0.0,0.0,0.0,0.0,0.0,0.0,0.0,0.0,0.014,0.0308,0.0476,0.274,0.4804,0.4973,0.7118,0.8912,0.8912,0.8912,0.8912,0.8912,0.8912,0.8912,0.8912,0.8912,0.8912,0.8912,0.8912,0.8912,0.8912,0.8912,0.8912,0.8912,0.8912,0.8912,0.8912,0.8912,0.8912,0.8912,0.8912,0.8912,0.8912,0.8892,0.8804,0.8679,0.853,0.8485,-0.0833,0.0,0.0,0.0,0.0,0.0,0.0,0.0,0.0,0.0,0.0,0.0,0.0,0.0,0.0,0.0,0.0,0.0,0.0,0.0,0.0,0.0,0.0,0.0,0.0,0.0,0.0,0.0,0.0,0.0,0.0,0.0,0.0,0.0,0.0,0.0,0.0,0.0,0.0,0.0,0.0,0.0,0.0,0.0,0.0,0.0,0.0,0.0,0.0,0.0,0.0,0.0,0.0,0.0,0.0,0.0,0.0,0.0,0.0,0.0,0.0,0.0,0.0,0.0,0.0,0.0,0.0,0.0,0.0,0.0,0.0,0.0,0.0,0.0,0.0,0.0224,0.1091,0.2264,0.3687,0.5447,0.6785,0.7903,0.8743,0.8912,0.8912,0.8912,0.8912,0.8912,0.8912,0.8912,0.8912,0.8912,0.8912,0.8912,0.8912,0.8912,0.8912,0.8912,0.8912,0.8912,0.8912,0.8912,0.8912,0.8912,0.8912,0.8912,0.8912,0.8912,0.8879,0.8811,0.8686,0.8615,-0.1427,-0.0611,-0.0495,-0.011,0.0,0.0,0.0,0.0,0.0,0.0,0.0,0.0,0.0,0.0,0.0,0.0,0.0,0.0,0.0,0.0,0.0,0.0,0.0,0.0,0.0,0.0,0.0,0.0,0.0,0.0,0.0,0.0,0.0,0.0,0.0,0.0,0.0,0.0,0.0,0.0,0.0,0.0,0.0,0.0,0.0,0.0,0.0,0.0,0.0,0.0,0.0,0.0,0.0,0.0,0.0,0.0,0.0,0.0,0.0,0.0,0.0,0.0,0.0,0.0,0.0,0.0,0.0,0.0,0.0,0.0,0.0,0.0,0.0,0.0,0.0,0.028,0.1371,0.1929,0.2849,0.5051,0.5808,0.6561,0.8042,0.8629,0.8912,0.8912,0.8912,0.8912,0.8912,0.8912,0.8912,0.8912,0.8912,0.8912,0.8912,0.8912,0.8912,0.8912,0.8912,0.8912,0.8912,0.8912,0.8912,0.8912,0.8912,0.8912,0.8912,0.8912,0.8912,0.8909,0.8798,0.8747,-0.296,-0.2123,-0.1781,-0.0357,0.0,0.0,0.0,0.0,0.0,0.0,0.0,0.0,0.0,0.0,0.0,0.0,0.0,0.0,0.0,0.0,0.0,0.0,0.0,0.0,0.0,0.0,0.0,0.0,0.0,0.0,0.0,0.0,0.0,0.0,0.0,0.0,0.0,0.0,0.0,0.0,0.0,0.0,0.0,0.0,0.0,0.0,0.0,0.0,0.0,0.0,0.0,0.0,0.0,0.0,0.0,0.0,0.0,0.0,0.0,0.0,0.0,0.0,0.0,0.0,0.0,0.0,0.0,0.0,0.0,0.0,0.0,0.0,0.0,0.0,0.0,0.0,0.0056,0.1203,0.2235,0.2319,0.3548,0.5027,0.6505,0.7959,0.8912,0.8912,0.8912,0.8912,0.8912,0.8912,0.8912,0.8912,0.8912,0.8912,0.8912,0.8912,0.8912,0.8912,0.8912,0.8912,0.8912,0.8912,0.8912,0.8912,0.8912,0.8912,0.8912,0.8912,0.8912,0.8912,0.8906,0.8902,-0.3995,-0.2265,-0.0867,-0.1334,-0.0713,0.0,0.0,0.0,0.0,0.0,0.0,0.0,0.0,0.0,0.0,0.0,0.0,0.0,0.0,0.0,0.0,0.0,0.0,0.0,0.0,0.0,0.0,0.0,0.0,0.0,0.0,0.0,0.0,0.0,0.0,0.0,0.0,0.0,0.0,0.0,0.0,0.0,0.0,0.0,0.0,0.0,0.0,0.0,0.0,0.0,0.0,0.0,0.0,0.0,0.0,0.0,0.0,0.0,0.0,0.0,0.0,0.0,0.0,0.0,0.0,0.0,0.0,0.0,0.0,0.0,0.0,0.0,0.0,0.0,0.0,0.0,0.0,0.0392,0.1036,0.2012,0.2626,0.3463,0.4972,0.6478,0.7762,0.8743,0.8912,0.8912,0.8912,0.8912,0.8912,0.8912,0.8912,0.8912,0.8912,0.8912,0.8912,0.8912,0.8912,0.8912,0.8912,0.8912,0.8912,0.8912,0.8912,0.8912,0.8912,0.8912,0.8912,0.8912,0.8912,0.8912,-0.4777,-0.3075,-0.1567,-0.1454,-0.0692,0.0,0.0,0.0,0.0,0.0,0.0,0.0,0.0,0.0,0.0,0.0,0.0,0.0,0.0,0.0,0.0,0.0,0.0,0.0,0.0,0.0,0.0,0.0,0.0,0.0,0.0,0.0,0.0,0.0,0.0,0.0,0.0,0.0,0.0,0.0,0.0,0.0,0.0,0.0,0.0,0.0,0.0,0.0,0.0,0.0,0.0,0.0,0.0,0.0,0.0,0.0,0.0,0.0,0.0,0.0,0.0,0.0,0.0,0.0,0.0,0.0,0.0,0.0,0.0,0.0,0.0,0.0,0.0,0.0,0.0,0.0,0.0,0.0,0.028,0.1231,0.1426,0.1901,0.3409,0.4914,0.6422,0.7903,0.8574,0.8912,0.8912,0.8912,0.8912,0.8912,0.8912,0.8912,0.8912,0.8912,0.8912,0.8912,0.8912,0.8912,0.8912,0.8912,0.8912,0.8912,0.8912,0.8912,0.8912,0.8912,0.8912,0.8912,0.8912,0.8912]},{"header":{"parameterUnit":"m.s-1","parameterCategory":1,"la1":30.6,"la2":29.2853,"lo1":-89.7004,"lo2":-87.6739,"dy":0.0162,"dx":0.0183,"nx":112,"ny":82,"refTime":"2024-05-08T00:00:00:Z","depth":0,"parameterNumber":3,"parameterNumberName":"V-component_of_WINDS"},"data":[0.0,0.0,0.0,0.0,0.0,0.0,0.0,0.0,0.0,0.0,0.0,0.0,0.0,0.0,0.0,0.0,0.0,0.0,0.0,0.0,0.0,0.0,0.0,0.0,0.0,0.0,0.0,0.0,0.0,0.0,0.0,0.0,0.0,0.0,0.0,0.0,0.0,0.0,0.0,0.0,0.0,0.0,0.0,0.0,0.0,0.0,0.0,0.0,0.0,0.0,0.0,0.0,0.0,0.0,0.0,0.0,0.0,0.0,0.0,0.0,0.0,0.0,0.0,0.0,0.0,0.0,0.0,0.0,0.0,0.0,0.0,0.0,0.0,0.0,0.0,0.0,0.0,0.0,0.0,0.0,0.0,0.0,0.0,0.0,0.0,0.0,0.0,0.0,0.0,0.0,3.5422,3.4738,3.4558,3.4157,3.3365,3.3295,3.3341,3.3398,0.0,0.0,0.0,0.0,0.0,0.0,0.0,0.0,0.0,0.0,0.0,0.0,0.0,0.0,0.0,0.0,0.0,0.0,0.0,0.0,0.0,0.0,0.0,0.0,0.0,0.0,0.0,0.0,0.0,0.0,0.0,0.0,0.0,0.0,0.0,0.0,0.0,0.0,0.0,0.0,0.0,0.0,0.0,0.0,0.0,0.0,0.0,0.0,0.0,0.0,0.0,0.0,0.0,0.0,0.0,0.0,0.0,0.0,0.0,0.0,0.0,0.0,0.0,0.0,0.0,0.0,0.0,0.0,0.0,0.0,0.0,0.0,0.0,0.0,0.0,0.0,0.0,0.0,0.0,0.0,0.0,0.0,0.0,0.0,0.0,0.0,0.0,0.0,0.0,0.0,0.0,0.0,0.0,0.0,0.0,0.0,0.0,0.0,0.0,0.0,0.0,0.0,0.0,0.0,3.5556,3.5361,3.5323,3.5261,3.5119,3.5115,3.5133,3.5191,0.0,0.0,0.0,0.0,0.0,0.0,0.0,0.0,0.0,0.0,0.0,0.0,0.0,0.0,0.0,0.0,0.0,0.0,0.0,0.0,0.0,0.0,0.0,0.0,0.0,0.0,0.0,0.0,0.0,0.0,0.0,0.0,0.0,0.0,0.0,0.0,0.0,0.0,0.0,0.0,0.0,0.0,0.0,0.0,0.0,0.0,0.0,0.0,0.0,0.0,0.0,0.0,0.0,0.0,0.0,0.0,0.0,0.0,0.0,0.0,0.0,0.0,0.0,0.0,0.0,0.0,0.0,0.0,0.0,0.0,0.0,0.0,0.0,0.0,0.0,0.0,0.0,0.0,0.0,0.0,0.0,0.0,0.0,0.0,0.0,0.0,0.0,0.0,0.0,0.0,0.0,0.0,0.0,0.0,0.0,0.0,0.0,0.0,0.0,0.0,0.0,0.0,0.0,3.559,3.5534,3.551,3.55,3.55,3.55,3.55,3.5518,3.554,3.4887,0.0,0.0,0.0,0.0,0.0,0.0,0.0,0.0,0.0,0.0,0.0,0.0,0.0,0.0,0.0,0.0,0.0,0.0,0.0,0.0,0.0,0.0,0.0,0.0,0.0,0.0,0.0,0.0,0.0,0.0,0.0,0.0,0.0,0.0,0.0,0.0,0.0,0.0,0.0,0.0,0.0,0.0,0.0,0.0,0.0,0.0,0.0,0.0,0.0,0.0,0.0,0.0,0.0,0.0,0.0,0.0,0.0,0.0,0.0,0.0,0.0,0.0,0.0,0.0,0.0,0.0,0.0,0.0,0.0,0.0,0.0,0.0,0.0,0.0,0.0,0.0,0.0,0.0,0.0,0.0,0.0,0.0,0.0,0.0,0.0,0.0,0.0,0.0,0.0,0.0,0.0,0.0,0.0,0.0,0.0,0.0,0.0,0.0,0.0,0.0,0.0,0.0,3.554,3.5546,3.5546,3.5546,3.5546,3.5546,3.5546,3.555,3.5528,3.5599,0.0,0.0,0.0,0.0,0.0,0.0,0.0,0.0,0.0,0.0,0.0,0.0,0.0,0.0,0.0,0.0,0.0,0.0,0.0,0.0,0.0,0.0,0.0,0.0,0.0,0.0,0.0,0.0,0.0,0.0,0.0,0.0,0.0,0.0,0.0,0.0,0.0,0.0,0.0,0.0,0.0,0.0,0.0,0.0,0.0,0.0,0.0,0.0,0.0,0.0,0.0,0.0,0.0,0.0,0.0,0.0,0.0,0.0,0.0,0.0,0.0,0.0,0.0,0.0,0.0,0.0,0.0,0.0,0.0,0.0,0.0,0.0,0.0,0.0,0.0,0.0,0.0,0.0,0.0,0.0,0.0,0.0,0.0,0.0,0.0,0.0,0.0,0.0,0.0,0.0,0.0,0.0,0.0,0.0,0.0,0.0,0.0,0.0,0.0,0.0,0.0,0.0,3.5642,3.5686,3.5686,3.5686,3.5686,3.5686,3.5686,3.5663,3.5603,3.5657,0.0,0.0,0.0,0.0,0.0,0.0,0.0,0.0,0.0,0.0,0.0,0.0,0.0,0.0,0.0,0.0,0.0,0.0,0.0,0.0,0.0,0.0,0.0,0.0,0.0,0.0,0.0,0.0,0.0,0.0,0.0,0.0,0.0,0.0,0.0,0.0,0.0,0.0,0.0,0.0,0.0,0.0,0.0,0.0,0.0,0.0,0.0,0.0,0.0,0.0,0.0,0.0,0.0,0.0,0.0,0.0,0.0,0.0,0.0,0.0,0.0,0.0,0.0,0.0,0.0,0.0,0.0,0.0,0.0,0.0,0.0,0.0,0.0,0.0,0.0,0.0,0.0,0.0,0.0,0.0,0.0,0.0,0.0,0.0,0.0,0.0,0.0,0.0,0.0,0.0,0.0,0.0,0.0,0.0,0.0,0.0,0.0,0.0,0.0,0.0,0.0,0.0,3.5661,3.5705,3.5705,3.5667,3.5644,3.5644,3.5608,3.5568,3.5547,0.0,0.0,0.0,0.0,0.0,0.0,0.0,0.0,0.0,0.0,0.0,0.0,0.0,0.0,0.0,0.0,0.0,0.0,0.0,0.0,0.0,0.0,0.0,0.0,0.0,0.0,0.0,0.0,0.0,0.0,0.0,0.0,0.0,0.0,0.0,0.0,0.0,0.0,0.0,0.0,0.0,0.0,0.0,0.0,0.0,0.0,0.0,0.0,0.0,0.0,0.0,0.0,0.0,0.0,0.0,0.0,0.0,0.0,0.0,0.0,0.0,0.0,0.0,0.0,0.0,0.0,0.0,0.0,0.0,0.0,0.0,0.0,0.0,0.0,0.0,0.0,0.0,0.0,0.0,0.0,0.0,0.0,0.0,0.0,0.0,0.0,0.0,0.0,0.0,0.0,0.0,0.0,0.0,0.0,0.0,0.0,0.0,0.0,0.0,0.0,0.0,0.0,3.5611,3.571,3.5753,3.5708,3.5663,3.5632,3.5632,3.5587,3.5544,3.5531,0.0,0.0,0.0,0.0,0.0,0.0,0.0,0.0,0.0,0.0,0.0,0.0,0.0,0.0,0.0,0.0,0.0,0.0,0.0,0.0,0.0,0.0,0.0,0.0,0.0,0.0,0.0,0.0,0.0,0.0,0.0,0.0,0.0,0.0,0.0,0.0,0.0,0.0,0.0,0.0,0.0,0.0,0.0,0.0,0.0,0.0,0.0,0.0,0.0,0.0,0.0,0.0,0.0,0.0,0.0,0.0,0.0,0.0,0.0,0.0,0.0,0.0,0.0,0.0,0.0,0.0,0.0,0.0,0.0,0.0,0.0,0.0,0.0,0.0,0.0,0.0,0.0,0.0,0.0,0.0,0.0,0.0,0.0,0.0,0.0,0.0,0.0,0.0,0.0,0.0,0.0,0.0,0.0,0.0,0.0,0.0,0.0,0.0,0.0,0.0,0.0,0.0,3.5643,3.5781,3.5862,3.5735,3.5705,3.5703,3.5703,3.5703,3.5679,0.0,0.0,0.0,0.0,0.0,0.0,0.0,0.0,0.0,0.0,0.0,0.0,0.0,0.0,0.0,0.0,0.0,0.0,0.0,0.0,0.0,0.0,0.0,0.0,0.0,0.0,0.0,0.0,0.0,0.0,0.0,0.0,0.0,0.0,0.0,0.0,0.0,0.0,0.0,0.0,0.0,0.0,0.0,0.0,0.0,0.0,0.0,0.0,0.0,0.0,0.0,0.0,0.0,0.0,0.0,0.0,0.0,0.0,0.0,0.0,0.0,0.0,0.0,0.0,0.0,0.0,0.0,0.0,0.0,0.0,0.0,0.0,0.0,0.0,0.0,0.0,0.0,0.0,0.0,0.0,0.0,0.0,0.0,0.0,0.0,0.0,0.0,0.0,0.0,0.0,0.0,0.0,0.0,0.0,0.0,0.0,0.0,0.0,0.0,0.0,0.0,0.0,0.0,3.7389,3.6959,3.6656,3.6611,3.6024,3.5628,3.5628,3.5599,3.5555,3.5525,0.0,0.0,0.0,0.0,0.0,0.0,0.0,0.0,0.0,0.0,0.0,0.0,0.0,0.0,0.0,0.0,0.0,0.0,0.0,0.0,0.0,0.0,0.0,0.0,0.0,0.0,0.0,0.0,0.0,0.0,0.0,0.0,0.0,0.0,0.0,0.0,0.0,0.0,0.0,0.0,0.0,0.0,0.0,0.0,0.0,0.0,0.0,0.0,0.0,0.0,0.0,0.0,0.0,0.0,0.0,0.0,0.0,0.0,0.0,0.0,0.0,0.0,0.0,0.0,0.0,0.0,0.0,0.0,0.0,0.0,0.0,0.0,0.0,0.0,0.0,0.0,0.0,0.0,0.0,0.0,0.0,0.0,0.0,0.0,0.0,0.0,0.0,0.0,0.0,0.0,0.0,0.0,0.0,0.0,0.0,0.0,0.0,0.0,0.0,0.0,0.0,0.0,3.8084,3.7706,3.7436,3.7404,3.6884,3.656,3.656,3.6527,3.6504,3.6504,0.0,0.0,0.0,0.0,0.0,0.0,0.0,0.0,0.0,0.0,0.0,0.0,0.0,0.0,0.0,0.0,0.0,0.0,0.0,0.0,0.0,0.0,0.0,0.0,0.0,0.0,0.0,0.0,0.0,0.0,0.0,0.0,0.0,0.0,0.0,0.0,0.0,0.0,0.0,0.0,0.0,0.0,0.0,0.0,0.0,0.0,0.0,0.0,0.0,0.0,0.0,0.0,0.0,0.0,0.0,0.0,0.0,0.0,0.0,0.0,0.0,0.0,0.0,0.0,0.0,0.0,0.0,0.0,0.0,0.0,0.0,0.0,0.0,0.0,0.0,0.0,0.0,0.0,0.0,0.0,0.0,0.0,0.0,0.0,0.0,0.0,0.0,0.0,0.0,0.0,0.0,0.0,0.0,0.0,0.0,0.0,0.0,0.0,0.0,0.0,0.0,0.0,3.8267,3.8222,3.8198,3.8122,3.8046,3.8007,3.8007,3.8007,3.8007,3.8007,0.0,0.0,0.0,0.0,0.0,0.0,0.0,0.0,0.0,0.0,0.0,0.0,0.0,0.0,0.0,0.0,0.0,0.0,0.0,0.0,0.0,0.0,0.0,0.0,0.0,0.0,0.0,0.0,0.0,0.0,0.0,0.0,0.0,0.0,0.0,0.0,0.0,0.0,0.0,0.0,0.0,0.0,0.0,0.0,0.0,0.0,0.0,0.0,0.0,0.0,0.0,0.0,0.0,0.0,0.0,0.0,0.0,0.0,0.0,0.0,3.7866,3.7539,0.0,0.0,0.0,0.0,0.0,0.0,0.0,0.0,0.0,0.0,0.0,0.0,0.0,0.0,0.0,0.0,0.0,0.0,0.0,0.0,0.0,0.0,0.0,0.0,0.0,0.0,0.0,0.0,0.0,0.0,0.0,0.0,0.0,0.0,0.0,0.0,0.0,0.0,0.0,0.0,3.9992,3.943,3.9036,3.9015,3.8411,3.8007,3.8007,3.8007,3.8007,3.8007,3.8007,0.0,0.0,0.0,0.0,0.0,0.0,0.0,0.0,0.0,0.0,0.0,0.0,0.0,0.0,0.0,0.0,0.0,0.0,0.0,0.0,0.0,0.0,0.0,0.0,0.0,0.0,0.0,0.0,0.0,0.0,0.0,0.0,0.0,0.0,0.0,0.0,0.0,0.0,0.0,0.0,0.0,0.0,0.0,0.0,0.0,0.0,0.0,0.0,0.0,0.0,0.0,0.0,0.0,0.0,0.0,0.0,0.0,0.0,0.0,3.8593,3.8049,0.0,0.0,0.0,0.0,0.0,0.0,0.0,0.0,0.0,0.0,0.0,0.0,0.0,0.0,0.0,0.0,0.0,0.0,0.0,0.0,0.0,0.0,0.0,0.0,0.0,0.0,0.0,0.0,0.0,0.0,0.0,0.0,0.0,0.0,0.0,0.0,0.0,0.0,0.0,0.0,4.0519,4.015,3.9881,3.9881,3.9473,3.9204,3.9204,3.9204,3.9204,3.9204,3.9204,0.0,0.0,0.0,0.0,0.0,0.0,0.0,0.0,0.0,0.0,0.0,0.0,0.0,0.0,0.0,0.0,0.0,0.0,0.0,0.0,0.0,0.0,0.0,0.0,0.0,0.0,0.0,0.0,0.0,0.0,0.0,0.0,0.0,0.0,0.0,0.0,0.0,0.0,0.0,0.0,0.0,0.0,0.0,0.0,0.0,0.0,0.0,0.0,0.0,0.0,0.0,0.0,0.0,4.1191,4.1206,4.1227,4.1096,4.1063,4.1056,3.9534,3.8737,3.8462,3.8445,0.0,0.0,0.0,0.0,0.0,0.0,0.0,0.0,0.0,0.0,0.0,0.0,0.0,0.0,0.0,0.0,0.0,0.0,0.0,0.0,0.0,0.0,4.1445,4.1601,4.1641,4.1641,4.1641,0.0,0.0,0.0,0.0,0.0,0.0,0.0,0.0,0.0,0.0,0.0,4.0516,4.0496,4.0496,4.0496,4.0496,4.0496,4.0496,4.0496,4.0496,4.0496,4.0496,4.0496,0.0,0.0,0.0,0.0,0.0,0.0,0.0,0.0,0.0,0.0,0.0,0.0,0.0,0.0,0.0,0.0,0.0,0.0,0.0,0.0,0.0,0.0,0.0,0.0,0.0,0.0,0.0,0.0,0.0,0.0,0.0,0.0,3.6538,3.6538,0.0,0.0,0.0,0.0,0.0,0.0,0.0,0.0,0.0,0.0,0.0,0.0,0.0,4.1035,4.1035,4.1133,4.1191,4.1191,4.1191,4.1537,4.2119,4.1987,4.2262,4.285,4.2557,0.0,4.0349,4.0217,0.0,0.0,0.0,0.0,0.0,0.0,0.0,0.0,0.0,0.0,0.0,0.0,0.0,0.0,0.0,0.0,0.0,0.0,0.0,0.0,0.0,0.0,4.2422,4.3183,4.3379,4.3379,4.3379,4.2226,4.1191,4.1171,4.1171,4.1148,0.0,0.0,0.0,0.0,0.0,0.0,4.05,4.0496,4.0496,4.0496,4.0496,4.0496,4.0496,4.0496,4.0496,4.0496,4.0496,4.0496,4.0496,4.04,0.0,0.0,0.0,0.0,0.0,0.0,0.0,0.0,0.0,0.0,0.0,0.0,0.0,0.0,0.0,0.0,0.0,0.0,0.0,0.0,0.0,0.0,0.0,0.0,0.0,0.0,0.0,0.0,0.0,3.5899,3.6535,3.6682,3.7465,3.8007,0.0,0.0,0.0,0.0,0.0,0.0,0.0,0.0,0.0,4.1191,4.1641,4.1875,4.1875,4.2363,4.2617,4.2617,4.2617,4.2721,4.2921,4.286,4.2945,4.3134,4.3107,4.2691,4.2031,4.199,4.2006,4.2031,0.0,0.0,0.0,0.0,4.1954,4.1966,4.2028,4.2057,4.207,4.2139,0.0,0.0,0.0,0.0,0.0,0.0,0.0,4.3125,4.3125,4.3125,4.3223,4.3613,4.3691,4.3691,4.3691,4.3125,4.2441,4.1924,4.1765,4.1694,4.1622,4.1127,0.0,0.0,0.0,4.0496,4.0496,4.0496,4.0496,4.0496,4.0496,4.0496,4.0496,4.0496,4.0496,4.0496,4.0496,4.0496,4.0496,4.0496,4.0496,0.0,0.0,0.0,0.0,0.0,0.0,0.0,0.0,0.0,0.0,0.0,0.0,0.0,0.0,0.0,0.0,0.0,0.0,0.0,0.0,0.0,0.0,0.0,0.0,0.0,0.0,0.0,0.0,3.65,3.7131,3.7335,3.8123,3.8646,0.0,0.0,0.0,0.0,0.0,0.0,4.1307,4.1442,4.1601,4.1836,4.2422,4.2734,4.2734,4.3379,4.3691,4.3691,4.3691,4.3709,4.3737,4.3737,4.3748,4.3739,4.3739,4.3739,4.3701,4.3278,4.3104,4.3104,4.3104,4.3104,4.3104,4.3104,4.3104,4.3104,4.3104,4.3104,4.311,4.3159,4.3205,4.3311,4.3624,0.0,0.0,0.0,0.0,4.4023,4.4023,4.4023,4.4082,4.4316,4.4375,4.4375,4.4375,4.4335,4.3999,4.2873,4.2583,4.2489,4.2437,4.1852,0.0,4.2193,4.1643,4.1166,4.1166,4.1166,4.107,4.0858,4.0839,4.0743,4.0516,4.0496,4.0496,4.0496,4.0496,4.0496,4.0496,4.0496,4.0496,4.0496,0.0,0.0,0.0,0.0,0.0,0.0,0.0,0.0,0.0,0.0,0.0,0.0,0.0,0.0,0.0,0.0,0.0,0.0,0.0,0.0,0.0,0.0,0.0,0.0,0.0,0.0,0.0,0.0,0.0,3.9165,3.9881,0.0,0.0,0.0,0.0,4.0733,4.097,4.1484,4.2285,4.2344,4.2715,4.3555,4.3613,4.3633,4.3633,4.3672,4.3691,4.3691,4.3691,4.4021,4.4628,4.4628,4.4945,4.5475,4.5475,4.5475,4.534,4.3758,4.3104,4.3104,4.3104,4.3104,4.3104,4.3104,4.3104,4.3104,4.3104,4.3104,4.3104,4.3098,4.3234,4.3558,4.4385,4.4776,0.0,0.0,4.4922,4.4922,4.4922,4.4922,4.5137,4.5976,4.6172,4.6172,4.6172,4.6063,4.5501,4.3944,4.3613,4.3564,4.3364,0.0,4.3201,4.3065,4.2997,4.297,4.297,4.297,4.2643,4.1812,4.1735,4.1393,4.0573,4.0496,4.0496,4.0496,4.0496,4.0496,4.0496,4.0496,4.0496,4.0496,4.0496,0.0,0.0,0.0,0.0,0.0,0.0,0.0,0.0,0.0,0.0,0.0,0.0,0.0,0.0,0.0,0.0,0.0,0.0,0.0,0.0,0.0,0.0,0.0,0.0,0.0,0.0,0.0,0.0,3.9288,4.0015,0.0,4.0496,4.1186,4.1642,4.1642,4.2361,4.293,4.3223,4.3242,4.3379,4.3691,4.4238,4.4531,4.4531,4.5098,4.5371,4.5371,4.5371,4.5459,4.5603,4.5603,4.5671,4.5788,4.5756,4.5722,4.5672,4.4999,4.4705,4.4705,4.4705,4.4705,4.4705,4.4705,4.4705,4.4705,4.4705,4.4705,4.4705,4.4705,4.4822,4.501,4.5353,4.5585,4.5729,4.582,4.584,4.584,4.584,4.584,4.5918,4.623,4.6308,4.6308,4.6308,4.6268,4.6051,4.5488,4.4858,4.4376,4.4265,4.3776,4.3517,4.3824,4.3431,4.3104,4.3104,4.3104,4.2989,4.2662,4.2643,4.2508,4.2205,4.2166,4.2166,4.2166,4.1643,4.1335,4.1335,4.08,4.0496,4.0496,4.0496,4.0496,0.0,0.0,0.0,0.0,0.0,0.0,0.0,0.0,0.0,0.0,0.0,0.0,0.0,0.0,0.0,0.0,0.0,0.0,0.0,0.0,0.0,0.0,0.0,0.0,0.0,3.934,3.9947,4.0112,4.0877,4.1389,4.1406,4.2088,4.2552,4.2607,4.3286,4.3828,4.4121,4.4141,4.4277,4.457,4.5137,4.5449,4.5449,4.6016,4.6308,4.6308,4.6308,4.6225,4.6109,4.6109,4.6032,4.5897,4.5847,4.5814,4.579,4.5704,4.5643,4.5594,4.5594,4.5594,4.5594,4.5594,4.5594,4.5594,4.5594,4.5594,4.5594,4.5594,4.5711,4.5845,4.5896,4.6032,4.6197,4.6269,4.6308,4.6308,4.6308,4.6308,4.6308,4.6308,4.6308,4.6308,4.6308,4.6308,4.6308,4.6308,4.5756,4.5278,4.5188,4.4657,4.437,4.475,4.4309,4.3936,4.3936,4.3936,4.3835,4.3547,4.3508,4.3393,4.3124,4.3104,4.3104,4.3104,4.2562,4.2235,4.2235,4.1681,4.1377,4.1377,4.1089,4.0781,4.0496,0.0,0.0,0.0,0.0,0.0,0.0,0.0,0.0,0.0,0.0,0.0,0.0,0.0,0.0,0.0,0.0,0.0,0.0,0.0,0.0,0.0,0.0,0.0,4.0823,4.1316,4.185,4.185,4.2585,4.3135,4.3195,4.334,4.3493,4.363,4.3725,4.4141,4.5,4.5039,4.543,4.6269,4.6308,4.6308,4.6308,4.6308,4.6308,4.6308,4.6308,4.6225,4.6112,4.6112,4.6038,4.5912,4.5907,4.5874,4.5806,4.5803,4.573,4.5594,4.5594,4.5594,4.5594,4.5594,4.5594,4.5594,4.5594,4.5594,4.5594,4.5594,4.5731,4.5894,4.5899,4.6082,4.6289,4.6308,4.6308,4.6308,4.6308,4.6308,4.6308,4.6308,4.6308,4.6308,4.6308,4.6308,4.6308,4.6308,4.6308,4.6267,4.6119,4.5992,4.5884,4.5815,4.5685,0.0,4.5603,4.5599,4.5282,4.4436,4.4335,4.4028,4.3239,4.3181,4.3181,4.3181,4.3143,4.3143,4.3143,4.3104,4.3104,4.3104,4.2273,4.1412,4.0573,0.0,0.0,0.0,0.0,0.0,0.0,0.0,0.0,0.0,0.0,0.0,0.0,0.0,0.0,0.0,0.0,0.0,0.0,0.0,0.0,0.0,4.279,4.2931,4.245,4.2585,4.2739,4.2739,4.2951,4.3135,4.3195,4.3889,4.4393,4.453,4.519,4.5683,4.5937,4.5937,4.6055,4.6289,4.6308,4.6308,4.6308,4.6308,4.6308,4.6308,4.6308,4.6289,4.6247,4.6247,4.6224,4.6177,4.6083,4.5974,4.5862,4.5811,4.573,4.5594,4.5594,4.5594,4.5594,4.5594,4.5594,4.5594,4.5594,4.5594,4.5594,4.5594,4.57,4.583,4.5893,4.6027,4.6175,4.6269,4.6308,4.6308,4.6308,4.6308,4.6308,4.6308,4.6308,4.6308,4.6308,4.6308,4.6308,4.6308,4.6308,4.6267,4.6119,4.6075,4.6014,4.5889,4.5799,4.5743,4.5743,4.5653,4.5518,4.5263,4.5244,4.5148,4.4936,4.4917,4.4917,4.4917,4.4321,4.397,4.397,4.3412,4.3104,4.3104,4.2854,4.2624,0.0,0.0,0.0,0.0,0.0,0.0,0.0,0.0,0.0,0.0,0.0,0.0,0.0,0.0,0.0,0.0,0.0,0.0,0.0,0.0,0.0,0.0,4.3777,4.4147,4.4147,4.3835,4.3605,4.3605,4.3936,4.4191,4.4314,4.4853,4.5285,4.5473,4.5994,4.6308,4.6308,4.6308,4.6308,4.6308,4.6308,4.6308,4.6308,4.6308,4.6308,4.6308,4.6308,4.6308,4.6308,4.6308,4.6308,4.6308,4.6223,4.6113,4.5981,4.594,4.5829,4.5684,0.0,0.0,0.0,0.0,4.5594,4.5594,4.5594,4.5594,4.5594,4.5594,4.5685,4.5812,4.5881,4.5992,4.612,4.6268,4.6308,4.6308,4.6308,4.6308,4.6308,4.6308,4.6308,4.6308,4.6308,4.6308,4.6308,4.6308,4.6308,0.0,4.6199,4.6143,4.6077,4.5993,4.5893,4.5842,4.5842,4.5756,4.5673,4.5673,4.5631,4.5594,4.5594,4.5594,0.0,0.0,0.0,4.484,4.484,4.4397,0.0,0.0,0.0,4.3431,4.3104,4.3104,0.0,0.0,4.1204,4.0858,0.0,0.0,0.0,0.0,0.0,0.0,0.0,0.0,0.0,0.0,0.0,0.0,0.0,0.0,0.0,0.0,4.509,4.5594,4.5594,4.4936,4.4444,4.447,4.5148,4.5699,4.5897,4.592,4.6033,4.6289,4.6308,4.6308,4.6308,4.6308,0.0,0.0,0.0,4.6308,4.6308,4.6308,4.6308,4.6308,4.6308,4.6308,4.6308,4.6308,4.6308,4.6308,4.6308,4.6224,4.6109,4.6109,4.5981,4.579,4.5653,4.5594,4.5594,4.5594,4.5594,4.5594,4.5594,0.0,0.0,4.5625,4.5704,4.5815,4.59,4.6019,4.612,4.6268,4.6308,4.6308,4.6308,4.6308,4.6308,4.6308,4.6308,4.6308,4.6308,4.6308,4.6308,4.6308,4.6308,4.6308,4.6308,4.62,4.6119,4.6119,4.6001,4.592,4.592,4.5867,4.5803,4.5803,4.5688,0.0,4.5594,4.5594,4.5594,4.5594,4.5594,4.5594,4.5594,4.5594,4.5244,4.4455,4.4455,4.4105,4.3374,4.3374,4.3335,4.3201,4.235,4.1527,0.0,0.0,0.0,0.0,0.0,0.0,0.0,0.0,0.0,0.0,0.0,0.0,0.0,0.0,0.0,4.5336,4.5494,4.5594,4.5594,4.5455,4.5389,4.5499,4.5652,4.5844,4.6038,4.6051,4.614,4.6289,4.6308,4.6308,4.6308,4.6308,4.6308,4.6308,4.6308,4.6308,4.6308,4.6308,4.6308,4.6308,4.6308,0.0,4.6308,4.6308,4.6308,4.6308,4.6308,4.6224,4.6109,4.6109,4.6019,4.5862,4.5669,4.5594,4.5594,4.5594,4.5594,4.5594,4.5594,4.5594,4.5625,4.5737,4.5773,4.5837,4.6008,4.608,0.0,4.6268,4.6308,4.6308,4.6308,4.6308,4.6308,4.6308,4.6308,4.6308,4.6308,4.6308,4.6308,4.6308,4.6308,4.6308,4.6308,4.6288,4.6268,4.6268,4.6146,4.6051,4.6051,4.5955,4.5863,4.5816,4.5789,4.5723,4.5607,4.5594,4.5594,4.5594,4.5594,4.5594,4.5594,4.5594,4.5518,4.534,4.534,4.5263,4.5109,4.5109,4.4763,4.4047,4.3239,4.2758,0.0,0.0,0.0,0.0,0.0,0.0,0.0,0.0,0.0,0.0,0.0,4.5096,4.5096,0.0,4.5594,4.5594,4.5594,4.5594,4.5594,4.5594,4.5656,4.578,4.5799,4.5886,4.6077,4.6109,4.6169,4.6289,4.6699,4.6953,4.6953,4.7363,4.7598,4.7598,4.7598,4.7598,4.7598,4.7598,4.7598,4.7598,4.7598,4.7598,4.7598,4.7598,4.7598,4.7598,4.7598,4.7557,4.7508,4.7429,4.7361,4.7274,4.7115,4.6529,4.5741,4.5741,4.5741,4.5741,4.5741,4.5741,4.5754,4.5836,4.5842,4.5881,4.6059,4.6109,4.612,4.6268,4.6308,4.6308,4.6308,4.6308,4.6308,4.6308,4.6308,4.6308,4.6308,4.6308,4.6308,4.6308,4.6308,4.6308,4.6308,4.6308,4.6308,4.6308,4.6246,4.62,4.62,4.6082,4.5997,4.5946,4.5858,4.5763,4.5708,4.5639,4.5594,4.5594,4.5594,4.5594,4.5594,4.5594,4.5594,4.5594,4.5594,4.5594,4.5594,4.5594,4.5379,4.4936,4.4532,4.3897,0.0,0.0,0.0,0.0,0.0,0.0,0.0,0.0,4.4313,4.4714,4.5,4.5201,4.5201,4.5419,4.5594,4.5594,4.5594,4.5594,4.5594,4.5594,4.5653,4.5806,4.5831,4.5908,4.6115,4.6144,4.6255,4.6523,4.7207,4.7676,4.7832,4.8516,4.8906,4.8906,4.8906,4.8906,4.8906,4.8906,4.8906,4.8906,4.8906,4.8906,4.8906,4.8906,4.8906,4.8906,4.8906,4.8906,4.8887,4.8775,4.8742,4.8739,4.861,4.7723,4.6467,4.6229,4.6057,4.5901,4.5901,4.5901,4.5903,4.5926,4.5932,4.5951,4.6108,4.6144,4.6151,4.6268,4.6308,4.6308,4.6308,4.6308,4.6308,4.6308,4.6308,4.6308,4.6308,4.6308,4.6308,4.6308,4.6308,4.6308,4.6308,4.6308,4.6308,4.6308,4.6308,4.6308,4.6308,4.6201,4.612,4.6091,4.5944,4.5844,4.5811,4.5717,4.5661,4.5661,4.5644,4.5639,4.5639,4.5616,4.5594,4.5594,4.5594,4.5594,4.5594,4.5594,4.5594,4.5594,4.5594,4.4878,4.3506,4.3718,4.394,4.394,4.4216,4.4567,0.0,0.0,4.5061,4.5424,4.5513,4.5531,4.5531,4.5573,4.5594,4.5594,4.5594,4.5594,4.5594,4.5594,4.5669,4.5872,4.59,4.5985,4.6247,4.6288,4.6601,4.7402,4.7539,4.7949,4.8711,4.8848,4.8906,4.8906,4.8906,4.8906,4.8906,4.8906,4.8906,4.8906,4.8906,4.8906,4.8906,4.8906,4.8906,4.8906,4.8906,4.8906,4.8906,4.8886,4.8886,4.8886,4.8865,4.8748,4.8432,4.7435,4.6567,4.5901,4.5901,4.5901,4.5916,4.6039,4.608,4.6091,4.6246,4.6288,4.6289,4.6308,4.6308,4.6308,4.6308,4.6308,4.6308,4.6308,4.6308,4.6308,4.6308,4.6308,4.6308,4.6308,4.6308,4.6308,4.6308,4.6308,4.6308,4.6308,4.6308,4.6308,4.6308,4.6289,4.6225,4.6115,4.6077,4.6019,4.5909,4.5886,4.5879,4.5879,4.5814,4.5769,4.5769,4.5661,4.5594,4.5594,4.5594,4.5594,4.5594,4.5594,4.5594,4.5594,4.5594,4.5498,4.408,4.4245,4.4357,4.4357,4.448,4.4701,4.5011,4.5096,4.5201,4.5522,4.5594,4.5594,4.5594,4.5594,4.5594,4.5594,4.5594,4.5594,4.5594,4.5594,4.5677,4.5872,4.6351,4.6763,4.703,4.7051,4.7422,4.8281,4.8828,4.9277,4.9648,5.0098,5.0351,5.0351,5.0351,5.0351,5.0351,5.0351,5.0351,5.0351,5.0351,5.0351,5.0351,5.0351,5.0351,5.0351,5.0351,5.0351,5.0351,5.0351,5.0351,5.0351,5.0351,5.0078,4.9531,4.8557,4.7959,4.7647,4.7647,4.7314,4.6907,4.6942,4.6633,4.6225,4.6289,4.6308,4.6308,4.6308,4.6308,4.6308,4.6308,4.6308,4.6308,4.6308,4.6308,4.6308,4.6308,4.6308,4.6308,4.6308,4.6308,4.6308,4.6308,4.6308,4.6308,4.6308,4.6308,4.6308,4.6308,4.6308,4.6247,4.6115,4.6109,4.6043,4.591,4.5901,4.5901,4.5901,4.5872,4.5839,4.5803,4.5747,4.5684,4.5594,4.5594,4.5594,4.5594,4.5594,4.5594,4.5594,4.5594,4.5594,4.452,4.4663,4.4745,4.4745,4.4818,4.4943,4.5171,4.5237,4.5312,4.5555,4.5594,4.5594,4.5594,4.5594,4.5594,4.5594,4.5594,4.5594,4.5594,4.5802,4.6024,4.6224,4.7034,4.7757,4.8261,4.8105,4.832,4.9199,4.9844,5.0293,5.0527,5.1074,5.1406,5.1406,5.1406,5.1406,5.1406,5.1406,5.1406,5.1406,5.1406,5.1406,5.1406,5.1406,5.1406,5.1406,5.1406,5.1406,5.1406,5.1406,5.1406,5.1406,5.1406,5.1035,5.0449,4.9824,4.9297,4.8906,4.8906,4.8496,4.7969,4.7969,4.7363,4.666,4.666,4.6484,4.6308,4.6308,4.6308,4.6308,4.6308,4.6308,4.6308,4.6308,4.6308,4.6308,4.6308,4.6308,4.6308,4.6308,4.6308,4.6308,4.6308,4.6308,4.6308,4.6308,4.6308,4.6308,4.6308,4.6308,4.6268,4.6172,4.6169,4.6116,4.6027,4.6003,4.6003,4.6003,4.598,4.5929,4.5877,4.5853,4.5774,4.5676,4.5673,4.5665,4.5668,4.5668,4.5635,4.5594,4.5594,4.5594,4.4612,4.4843,4.508,4.508,4.5332,4.5573,4.5581,4.5581,4.5586,4.559,4.5594,4.5594,4.5594,4.5594,4.5594,4.5594,4.5594,4.5594,4.5594,4.6336,4.6947,4.7145,4.7929,4.8906,5.0019,4.9355,4.9219,5.0098,5.0195,5.0547,5.1328,5.1387,5.1406,5.1406,5.1406,5.1406,5.1406,5.1406,5.1406,5.1406,5.1406,5.1406,5.1406,5.1406,5.1406,5.1406,5.1406,5.1406,5.1406,5.1406,5.1406,5.1406,5.1406,5.1387,5.1367,5.1328,5.0293,4.8906,4.8906,4.8887,4.8867,4.8867,4.8262,4.7558,4.7558,4.6973,4.6308,4.6308,4.6308,4.6308,4.6308,4.6308,4.6308,4.6308,4.6308,4.6308,4.6308,4.6308,4.6308,4.6308,4.6308,4.6308,4.6308,4.6308,4.6308,4.6308,4.6308,4.6308,4.6308,4.6308,4.6308,4.6289,4.6289,4.6289,4.6289,4.6289,4.6289,4.6289,4.6172,4.6085,4.6084,4.5971,4.5892,4.589,4.589,4.5866,4.5793,4.5793,4.5737,4.5594,4.5594,4.5594,4.5192,4.5347,4.5429,4.5429,4.5513,4.5594,4.5594,4.5594,4.5594,4.5594,4.5594,4.5594,4.5594,4.5594,4.5594,4.5594,4.5594,4.5802,4.6374,4.6716,4.7198,4.7977,4.8827,4.9572,5.0155,4.9922,5.0117,5.0937,5.0996,5.1113,5.1387,5.1406,5.1406,5.1406,5.1406,5.1406,5.1406,5.1406,5.1406,5.1406,5.1406,5.1406,5.1406,5.1406,5.1406,5.1406,5.1406,5.1406,5.1406,5.1406,5.1406,5.1406,5.1406,5.1406,5.1406,5.1406,5.1035,5.0566,5.0566,5.0215,4.9766,4.9766,4.918,4.8359,4.7773,4.7402,4.7031,4.6465,4.6308,4.6308,4.6308,4.6308,4.6308,4.6308,4.6308,4.6308,4.6308,4.6308,4.6308,4.6308,4.6308,4.6308,4.6308,4.6308,4.6308,4.6308,4.6308,4.6308,4.6308,4.6308,4.6308,4.6308,4.6308,4.6308,4.6308,4.6308,4.6308,4.6308,4.6267,4.6198,4.6091,4.6068,4.599,4.5901,4.5901,4.5881,4.5876,4.5876,4.5833,4.5802,4.5802,4.5783,4.5531,4.5594,4.5594,4.5594,4.5594,4.5594,4.5594,4.5594,4.5594,4.5594,4.5594,4.5594,4.5594,4.5594,4.5594,4.5594,4.5594,4.5898,4.6774,4.7195,4.7788,4.884,4.9759,5.0384,5.0605,5.0625,5.084,5.1367,5.1406,5.1406,5.1406,5.1406,5.1406,5.1406,5.1406,5.1406,5.1406,5.1406,5.1406,5.1406,5.1406,5.1406,5.1406,5.1406,5.1406,5.1406,5.1406,5.1406,5.1406,5.1406,5.1406,5.1406,5.1406,5.1406,5.1406,5.1406,5.1406,5.1406,5.1406,5.1055,5.0625,5.0625,5.0058,4.9258,4.8691,4.8086,4.748,4.6914,4.6543,4.6308,4.6308,4.6308,4.6308,4.6308,4.6308,4.6308,4.6308,4.6308,4.6308,4.6308,4.6308,4.6308,4.6308,4.6308,4.6308,4.6308,4.6268,4.6225,4.6225,4.6225,4.6202,4.6151,4.6169,4.6175,4.6224,4.6225,4.6247,4.6308,4.6308,4.6268,4.6174,4.6173,4.6121,4.6042,4.6042,4.6027,4.5976,4.5976,4.5957,4.5899,4.5874,4.5842,4.5594,4.5594,4.5594,4.5594,4.5594,4.5594,4.5594,4.5594,4.5594,4.5594,4.5594,4.5594,0.0,0.0,4.5594,4.5594,4.5594,4.5917,4.6831,4.7728,4.868,0.0,0.0,0.0,0.0,0.0,5.1406,5.1406,5.1406,5.1406,5.1406,5.1406,5.1406,5.1406,5.1406,5.1406,5.1406,5.1406,5.1406,5.1406,5.1406,5.1406,5.1406,5.1406,5.1406,5.1406,5.1406,5.1406,5.1406,5.1406,5.1406,5.1406,5.1406,5.1406,5.1406,5.1406,5.1406,5.1406,5.1406,5.1406,5.1406,5.1406,5.0879,5.0254,5.0215,4.9004,4.7656,4.7617,4.6973,4.6308,4.6308,4.6308,4.6308,4.6308,4.6308,4.6308,4.6289,4.6289,4.6289,4.6289,4.6289,4.6289,4.6289,4.6289,4.6289,4.6289,4.6173,4.6085,4.6108,4.6087,4.604,4.5912,4.5901,4.5942,4.608,4.6084,4.6145,4.6269,4.6289,4.6289,4.6289,4.6289,4.6289,4.6308,4.6308,4.6246,4.6114,4.6091,4.6036,4.5905,4.583,4.5809,4.5594,4.5594,4.5594,4.5594,4.5594,4.5594,4.5594,4.5594,4.5594,4.5594,4.5594,4.5594,0.0,0.0,0.0,4.5594,4.5594,0.0,4.7582,4.8095,0.0,5.0576,0.0,5.1244,5.1386,5.1406,5.1406,5.1406,5.1406,5.1406,5.1406,5.1406,5.1406,5.1406,5.1406,5.1406,5.1406,5.1406,5.1406,5.1406,5.1406,5.1406,5.1406,5.1406,5.1406,5.1406,5.1406,5.1406,5.1406,5.1406,5.1406,5.1406,5.1406,5.1406,5.1406,5.1406,5.1406,5.1406,5.1406,5.1406,5.1406,5.1406,5.1269,5.0976,5.0371,4.9433,4.8437,4.7773,4.6973,4.6308,4.6308,4.6308,4.6308,4.6308,4.6308,4.6269,4.6173,4.6148,4.6118,4.6029,4.5997,4.5997,4.5997,4.5997,4.5997,4.5997,4.5978,4.5987,4.6083,4.6005,4.5932,4.5903,4.5901,4.5912,4.5959,4.5942,4.5972,4.5997,4.5997,4.6043,4.6146,4.6148,4.62,4.6308,4.6308,4.6289,4.6247,4.6147,4.6081,4.6043,4.5929,4.5856,4.5594,4.5594,4.5594,4.5594,4.5594,4.5594,4.5594,4.5594,4.5594,4.5594,4.5594,4.5594,4.5594,4.5594,4.5594,0.0,0.0,0.0,4.7942,4.8308,4.9079,0.0,5.1224,0.0,5.1387,5.1758,5.1973,5.1973,5.1973,5.1973,5.1973,5.2324,5.2539,5.2539,5.2539,5.2363,5.1973,5.1582,5.1406,5.1406,5.1406,5.1406,5.1406,5.1406,5.1406,5.1406,5.1406,5.1406,5.1406,5.1406,5.1406,5.1406,5.1406,5.1366,5.1319,5.1319,5.1289,5.127,5.127,5.127,5.1278,5.1365,5.1365,5.1221,5.0772,5.0018,4.9102,4.8245,4.7367,4.6605,4.6216,4.6119,4.6119,4.6119,4.6119,4.6091,4.6033,4.6003,4.599,4.5912,4.5901,4.5901,4.5901,4.5901,4.5901,4.5901,4.5874,4.5884,4.5953,4.5901,4.5831,4.576,4.5773,4.5782,4.585,4.5855,4.5862,4.5897,4.5901,4.5928,4.6001,4.6003,4.6045,4.6119,4.6119,4.6119,4.6119,4.6045,4.6003,4.6001,4.5898,4.585,4.5594,4.5594,4.5594,4.5594,4.5594,4.5594,4.5594,4.5594,4.5594,4.5594,0.0,4.5763,4.5763,4.5859,4.5898,4.5782,0.0,4.6369,4.8064,4.8416,4.9169,5.0981,5.132,5.1445,5.1562,5.2266,5.2754,5.2851,5.2988,5.2988,5.2871,5.3594,5.4004,5.4004,5.4004,5.3574,5.2715,5.1953,5.1504,5.1406,5.1406,5.1406,5.1406,5.1406,5.1406,5.1406,5.1406,5.1406,5.1406,5.1406,5.1386,5.1366,5.1366,5.1294,5.1188,5.1188,5.114,5.1091,5.1091,5.1091,5.1126,5.1307,5.1288,5.1188,5.1188,5.0546,4.9644,4.8895,4.7959,4.7023,4.6268,4.5996,4.5901,4.5901,4.5901,4.5897,4.59,4.5862,4.585,4.585,4.585,4.585,4.585,4.585,4.585,4.585,4.5801,4.5766,4.5766,4.5766,4.5722,4.5612,4.5594,4.5651,4.5752,4.5766,4.579,4.5864,4.585,4.5879,4.5896,4.5896,4.5883,4.5901,4.5901,4.5901,4.5901,4.5883,4.5896,4.5874,4.5805,4.5766,4.5594,4.5594,4.5594,4.5594,4.5594,4.5594,4.5594,4.5594,0.0,0.0,4.6163,4.6678,4.6678,4.7221,4.7451,4.6774,4.6678,4.7054,4.816,4.8416,4.9169,0.0,5.132,5.168,5.2402,5.2617,5.3008,5.3711,5.4433,5.4531,5.3808,5.3926,5.4004,5.4004,5.4004,5.3574,5.2715,5.2558,5.2109,5.1406,5.1406,5.1406,5.1406,5.1406,5.1406,5.1406,5.1406,5.1406,5.1406,5.1406,5.1323,5.1237,5.1237,5.1195,5.1124,5.1124,5.111,5.1091,5.1091,5.1091,5.1118,5.1142,5.1142,5.1124,5.1124,5.0502,4.9778,4.9625,4.8421,4.7176,4.7003,4.6441,4.5901,4.5901,4.5901,4.5874,4.5832,4.5728,4.5649,4.5649,4.5649,4.5649,4.5649,4.5649,4.5649,4.5649,4.5636,4.5631,4.5631,4.5631,4.5637,4.5599,4.5594,4.5607,4.5631,4.5631,4.5647,4.5645,4.5649,4.5707,4.5818,4.5825,4.5847,4.5899,4.5901,4.5901,4.5901,4.5847,4.5825,4.5802,4.5692,4.5631,4.5594,4.5594,4.5594,4.5594,4.5594,4.5594,4.5594,0.0,0.0,0.0,4.6601,4.7024,4.7447,4.7832,0.0,4.7582,4.7178,4.7404,4.8872,4.8757,4.9207,5.1078,5.1365,5.1738,5.2617,5.3105,5.373,5.4609,5.5488,5.5605,5.4726,5.5117,5.5351,5.5351,5.4902,5.4473,5.4062,5.3594,5.2949,5.207,5.207,5.1836,5.1406,5.1406,5.1406,5.1406,5.1406,5.1365,5.1296,5.1296,5.1248,5.1156,5.1156,5.1086,5.0997,5.0997,5.094,5.0897,5.0897,5.0897,5.0897,5.0897,5.0942,5.0997,5.0997,5.0658,5.017,4.9725,4.8989,4.8231,4.7789,4.7054,4.6418,4.6418,4.6073,4.5747,4.5692,4.5651,4.5594,4.5594,4.5594,4.5594,4.5594,4.5594,4.5594,4.5594,4.5594,4.5594,4.5594,4.5594,4.5594,4.5594,4.5594,4.5594,4.5594,4.5594,4.5594,4.5594,4.5594,4.5622,4.5688,4.5692,4.5718,4.5747,4.5751,4.5751,4.5751,4.5718,4.5692,4.5688,4.5622,4.5594,4.5594,4.5594,4.5594,4.5594,4.5594,4.5594,4.5594,4.561,0.0,4.6521,4.6968,4.7428,4.8032,4.8447,4.8627,0.0,4.7851,4.7985,4.9574,4.9203,4.9437,0.0,5.1406,0.0,5.2871,5.3594,5.4433,5.5508,5.6211,5.6308,5.5625,5.623,5.6601,5.6601,5.5937,5.5488,5.5293,5.4629,5.3848,5.2988,5.2793,5.2344,5.168,5.1484,5.1386,5.1365,5.1365,5.1292,5.118,5.118,5.1123,5.1067,5.1067,5.0972,5.0863,5.0863,5.0795,5.0707,5.0707,5.0707,5.0707,5.0707,5.076,5.0863,5.0863,5.0782,5.0553,4.988,4.9529,4.924,4.8567,4.7774,4.712,4.6947,4.622,4.5594,4.5594,4.5594,4.5594,4.5594,4.5594,4.5594,4.5594,4.5594,4.5594,4.5594,4.5594,4.5594,4.5594,4.5594,4.5594,4.5594,4.5594,4.5594,4.5594,4.5594,4.5594,4.5594,4.5594,4.5594,4.5594,4.5594,4.5594,4.5594,4.5594,4.5594,4.5594,4.5594,4.5594,4.5594,4.5594,4.5594,4.5594,4.5594,4.5594,4.5594,4.5594,4.5594,4.5594,0.0,4.5796,4.587,4.7217,4.8336,4.8287,4.9578,5.0337,0.0,4.9221,4.9317,4.9746,4.9726,5.0116,5.1268,0.0,0.0,5.3711,5.3945,5.4687,5.6367,5.6543,5.6562,5.6484,5.6562,5.6601,5.6601,5.6523,5.6094,5.5312,5.5215,5.4746,5.3867,5.3086,5.2656,5.2558,5.1758,5.1323,5.1211,5.1211,5.1189,5.111,5.111,5.1028,5.0914,5.0914,5.0831,5.0726,5.0726,5.0712,5.0707,5.0707,5.0707,5.0707,5.0707,5.0707,5.0726,5.0726,5.0707,5.0668,5.0592,5.0014,4.9375,4.9298,4.8644,4.7812,4.7062,4.622,4.5594,4.5594,4.5594,4.5594,4.5594,4.5594,4.5594,4.5594,4.5594,4.5594,4.5594,4.5594,4.5594,4.5594,4.5594,4.5594,4.5594,4.5594,4.5594,4.5594,4.5594,4.5594,4.5594,4.5594,4.5594,4.5594,4.5594,4.5594,4.5594,4.5594,4.5594,4.5594,4.5594,4.5594,4.5594,4.5594,4.5594,4.5773,4.5773,4.5773,4.5773,4.5773,4.5773,4.5773,0.0,4.6019,4.654,4.7223,4.802,4.9027,4.9773,5.0248,5.0298,4.986,4.9745,5.0364,5.0015,5.0089,5.1144,5.1272,5.2003,5.3828,5.4004,5.4726,5.6465,5.6601,5.6601,5.6601,5.6601,5.6601,5.6601,5.6601,5.6426,5.6094,5.6074,5.5644,5.4785,5.4345,5.3866,5.3356,5.2929,5.24,5.1859,5.1859,5.1522,5.0975,5.0975,5.0908,5.0778,5.0778,5.0758,5.0707,5.0707,5.0707,5.0707,5.0707,5.0707,5.0707,5.0707,5.0707,5.0707,5.0707,5.0707,5.0707,5.0707,5.0457,5.0188,5.0188,4.9534,4.8548,4.7216,4.662,4.624,4.5706,4.5594,4.5594,4.5594,4.5594,4.5594,4.5594,4.5594,4.5594,4.5594,4.5594,4.5594,4.5594,4.5594,4.5594,4.5594,4.5594,4.5594,4.5594,4.5594,4.5594,4.5594,4.5594,4.5594,4.5594,4.5594,4.5594,4.5594,4.5594,4.5594,4.5594,4.5594,4.5594,4.5594,4.5594,4.5594,4.5901,4.5901,4.5901,4.5901,4.5901,4.5901,0.0,0.0,4.6123,4.6742,4.7115,4.7671,4.8863,4.9502,5.0028,5.0507,5.0271,5.0255,5.0872,5.0454,5.0347,5.1114,0.0,5.198,5.3828,5.4473,5.5273,5.6504,5.6601,5.6601,5.6601,5.6601,5.6601,5.6601,5.6601,5.6601,5.6601,5.656,5.6226,5.562,5.5221,5.4711,5.4102,5.3767,5.3233,5.2632,5.2632,5.223,5.1566,5.1295,5.1149,5.1034,5.0784,5.0707,5.0707,5.0707,5.0707,5.0707,5.0707,5.0707,5.0707,5.0707,5.0707,5.0707,5.0707,5.0707,5.0707,5.0707,5.0707,5.0707,5.0707,5.0053,4.9106,4.7913,4.7255,4.6735,4.6129,4.5782,4.5594,4.5594,4.5594,4.5594,4.5594,4.5594,4.5594,4.5594,4.5594,4.5594,4.5594,4.5594,4.5594,4.5594,4.5594,4.5594,4.5594,4.5594,4.5594,4.5594,4.5594,4.5594,4.5594,4.5594,4.5594,4.5594,4.5594,4.5594,4.5594,4.5594,4.5594,4.5594,4.5594,4.5594,4.5901,4.5901,4.5901,4.5901,4.5901,4.5901,0.0,4.5998,4.6108,4.6108,4.6904,4.7556,4.7441,4.8837,4.9965,4.9836,5.052,5.1089,5.1108,5.1149,5.1182,0.0,5.132,5.207,5.3828,5.5566,5.6582,5.6601,5.6601,5.6601,5.6601,5.6601,5.6601,5.6601,5.6601,5.6601,5.6601,5.6461,5.6391,5.6371,5.5375,5.4902,5.486,5.3997,5.3527,5.3379,5.3379,5.3318,5.3106,5.2255,5.189,5.1813,5.1015,5.0707,5.0707,5.0707,5.0707,5.0707,5.0707,5.0707,5.0707,5.0707,5.0707,5.0707,5.0707,5.0707,5.0707,5.0707,5.0707,5.0707,5.0707,5.0053,4.9394,4.9375,4.8105,4.6908,4.6889,4.6201,4.5594,4.5594,4.5594,4.5594,4.5594,4.5594,4.5594,4.5594,4.5594,4.5594,4.5594,4.5594,4.5594,4.5594,4.5594,4.5594,4.5594,4.5594,4.5594,4.5594,4.5594,4.5594,4.5594,4.5594,4.5594,4.5594,4.5594,4.5594,4.5594,4.5594,4.5594,4.5594,4.5594,4.5594,4.6174,4.6174,4.6174,4.6174,4.6174,4.6174,4.6174,4.6201,4.6246,4.6246,4.6483,4.6875,4.7437,4.7983,4.8716,4.9751,5.0168,5.0518,0.0,0.0,0.0,5.1197,5.2375,5.3398,5.3945,5.5586,5.6601,5.6601,5.6601,5.6601,5.6601,5.6513,5.6511,5.6601,5.6512,5.6459,5.6459,5.6328,5.6253,5.6253,5.5793,5.5585,5.5562,5.52,5.4703,5.415,5.415,5.3798,5.3178,5.289,5.2794,5.2697,5.1851,5.1524,5.1447,5.0899,5.0707,5.0707,5.0707,5.0707,5.0707,5.0707,5.0707,5.0707,5.0707,5.0707,5.0707,5.0707,5.0707,5.0707,5.0707,5.0495,5.0149,4.9529,4.899,4.8452,4.7851,4.7062,4.649,4.649,4.6013,4.5594,4.5594,4.5594,4.5594,4.5594,4.5594,4.5594,4.5594,4.5594,4.5594,4.5594,4.5594,4.5594,4.5594,4.5594,4.5594,4.5594,4.5594,4.5594,4.5594,4.5594,4.5594,4.5594,4.5594,4.5594,4.5594,4.5594,4.5594,4.5594,4.5594,4.5594,4.6308,4.6308,4.6308,4.6308,4.6308,4.6308,4.6308,4.6308,4.6308,4.6308,4.6308,4.6465,4.7012,4.7383,4.8046,4.938,4.9864,5.0316,5.1037,0.0,0.0,5.1268,5.2595,5.3633,5.3965,5.5273,5.625,5.6582,5.6601,5.6601,5.6601,5.6462,5.6448,5.6515,5.6387,5.6322,5.6322,5.6161,5.6084,5.6081,5.5903,5.581,5.5825,5.5748,5.5439,5.4953,5.4953,5.4645,0.0,5.3818,5.3683,5.3606,5.2736,5.2197,5.1846,5.1337,5.0957,5.0707,5.0707,5.0707,5.0707,5.0707,5.0707,5.0707,5.0707,5.0707,5.0707,5.0707,5.0707,5.0707,5.0707,5.0707,5.0553,5.0014,4.9649,4.924,4.8702,4.7947,4.7351,4.7351,4.6663,4.609,4.609,4.5821,4.5594,4.5594,4.5594,4.5594,4.5594,4.5594,4.5594,4.5594,4.5594,4.5594,4.5594,4.5594,4.5594,4.5594,4.5594,4.5594,4.5594,4.5594,4.5594,4.5594,4.5594,4.5594,4.5594,4.5594,4.5594,4.5594,4.5594,4.5594,0.0,4.6308,4.6308,4.6308,4.6308,4.6308,4.6308,4.6308,0.0,4.6308,4.6308,4.6308,4.6308,4.6953,4.7812,4.875,4.957,5.0369,5.1119,5.1321,0.0,0.0,5.2168,5.3047,5.3926,5.4785,5.5664,5.6523,5.6601,5.6601,5.6582,5.6457,5.6379,5.6355,5.6232,5.6167,5.6178,5.5981,5.5895,5.5876,5.5769,5.5708,5.5708,5.5708,5.5708,5.5708,5.5708,5.5708,5.5651,5.4895,5.4587,5.4491,5.3626,5.2755,5.1981,5.1923,5.1395,5.0707,5.0707,5.0707,5.0707,5.0707,5.0707,5.0707,5.0707,5.0707,5.0707,5.0707,5.0707,5.0707,5.0707,5.0707,5.0707,5.0707,5.0072,4.949,4.949,4.8817,4.8197,4.8197,4.7543,4.6985,4.6985,4.6317,4.5763,4.5706,4.5686,4.5667,4.5614,4.5594,4.5594,4.5594,4.5594,4.5594,4.5594,4.5594,4.5594,4.5594,4.5594,4.5594,4.5594,4.5594,4.5594,4.5594,4.5594,4.5594,4.5594,4.5594,4.5594,4.5594,4.5594,4.5594,4.6308,0.0,4.6308,4.6308,4.6308,4.6308,0.0,4.6308,4.6308,4.6308,0.0,4.6308,4.6308,4.6465,4.7109,4.8652,4.9062,4.9707,5.115,5.1386,0.0,5.1406,5.2168,5.3047,5.3926,5.4785,5.5664,5.6523,5.6601,5.656,5.6454,5.632,5.6172,5.6025,5.5881,5.5865,5.5974,5.5811,5.5744,5.5744,5.5721,5.5708,5.5708,5.5708,5.5708,5.5708,5.5708,5.5708,5.5689,5.5497,5.542,5.5343,5.4511,5.3664,5.2813,5.2159,5.1395,5.0707,5.0707,5.0707,5.0707,5.0707,5.0707,5.0707,5.0707,5.0707,5.0707,5.0707,5.0707,5.0707,5.0707,5.0707,5.0707,5.0707,5.0534,5.038,5.038,4.9707,4.9086,4.9086,4.8394,4.7812,4.7812,4.7644,4.7298,4.6701,4.6581,4.6355,4.5686,4.5594,4.5594,4.5594,4.5594,4.5594,4.5594,4.5594,4.5594,4.5594,4.5594,4.5594,4.5594,4.5594,4.5594,4.5594,4.5594,4.5594,4.5594,4.5594,4.5594,4.5594,4.5594,4.5594,4.6308,4.6308,4.6308,4.6308,4.6308,4.6308,4.6308,0.0,0.0,0.0,0.0,4.6308,4.6308,4.6308,4.6738,4.8086,4.8633,4.9492,0.0,0.0,5.1406,5.1406,5.2168,5.3047,5.3926,5.4785,5.5664,5.6523,5.6601,5.6561,5.6508,5.6311,5.6155,5.6041,5.5812,5.5738,5.5822,5.5743,5.5708,5.5708,5.5708,5.5708,5.5708,5.5708,5.5708,5.5708,5.5708,5.5708,5.5708,5.5708,5.5708,5.567,5.5228,5.453,5.3683,5.2813,5.1967,5.1202,5.0822,5.0707,5.0707,5.0707,5.0707,5.0707,5.0707,5.0707,5.0707,5.0707,5.0707,5.0707,5.0707,5.0707,5.0707,5.0707,5.0707,5.0707,5.0707,5.0322,4.9995,4.9995,4.9143,4.8473,4.8659,4.8211,4.7744,4.7486,4.7139,4.6735,4.6259,4.584,4.5594,4.5594,4.5594,4.5594,4.5594,4.5594,4.5594,4.5594,4.5594,4.5594,4.5594,4.5594,4.5594,4.5594,4.5594,4.5594,4.5594,4.5594,4.5594,4.5594,4.5594,4.5594,4.6308,4.6308,4.6308,4.6308,4.6308,4.6308,4.6308,0.0,0.0,0.0,0.0,0.0,0.0,4.6308,0.0,4.7637,4.8633,4.9726,5.1035,5.1328,5.1406,5.1406,5.2051,5.2891,5.3906,5.4668,5.5527,5.6523,5.6601,5.6582,5.6561,5.6331,5.6183,5.6158,5.5863,5.5708,5.5708,5.5708,5.5708,5.5708,5.5708,5.5708,5.5708,5.5708,5.5708,5.5708,5.5708,5.5708,5.5708,5.5708,5.5708,5.5708,5.5708,5.5208,5.4395,5.353,5.2659,5.1774,5.0976,5.0707,5.0707,5.0707,5.0707,5.0707,5.0707,5.0707,5.0707,5.0707,5.0707,5.0707,5.0707,5.0707,5.0707,5.0707,5.0707,5.0707,5.0707,5.0707,5.0707,5.0707,4.9822,4.9176,4.9455,4.8611,4.7962,4.8178,4.7636,4.7112,4.6923,4.6259,4.5744,4.5614,4.5594,4.5594,4.5594,4.5594,4.5594,4.5594,4.5594,4.5594,4.5594,4.5594,4.5594,4.5594,4.5594,4.5594,4.5594,4.5594,4.5594,4.5594,4.5594,4.5594,4.6308,4.6308,4.6308,4.6308,4.6308,4.6308,4.6308,0.0,0.0,0.0,0.0,0.0,0.0,4.6308,4.6836,0.0,0.0,5.0879,5.0449,5.0976,5.1406,5.1406,5.1523,5.2226,5.3848,5.4121,5.4863,5.6484,5.6601,5.6559,5.6448,5.6273,5.6112,5.5955,5.5789,5.5708,5.5708,5.5708,5.5708,5.5708,5.5708,5.5708,5.5708,5.5708,5.5708,5.5708,5.5708,5.5708,5.5708,5.5708,5.5708,5.5708,5.5708,5.5208,5.4395,5.353,5.2659,5.1774,5.0976,5.0707,5.0707,5.0707,5.0707,5.0707,5.0707,5.0707,5.0707,5.0707,5.0707,5.0707,5.0707,5.0707,5.0707,5.0707,5.0707,5.0707,5.0707,5.0707,5.0707,5.0707,5.0543,5.0317,5.0033,4.9836,4.9475,4.8785,4.8581,4.8116,4.7035,4.6774,4.6413,4.5686,4.5594,4.5594,4.5594,4.5594,4.5594,4.5594,4.5594,4.5594,4.5594,4.5594,4.5594,4.5594,4.5594,4.5594,4.5594,4.5594,4.5594,4.5594,4.5594,4.5594,4.6308,4.6308,4.6308,4.6308,4.6308,4.6308,4.6308,0.0,0.0,0.0,0.0,0.0,0.0,0.0,4.6875,4.8613,4.9551,5.0234,5.0762,5.1172,5.1406,5.1406,5.1816,5.2598,5.3887,5.4433,5.5234,5.6504,5.6601,5.6561,5.6512,5.638,5.6237,5.6068,5.5906,5.5774,5.5708,5.5708,5.5708,5.5708,5.5708,5.5708,5.5708,5.5708,5.5708,5.5708,5.5708,5.5708,5.5708,5.5708,5.5708,5.5708,5.5708,5.5478,5.4991,5.3683,5.2375,5.1202,5.0822,5.0707,5.0707,5.0707,5.0707,5.0707,5.0707,5.0707,5.0707,5.0707,5.0707,5.0707,5.0707,5.0707,5.0707,5.0707,5.0707,5.0707,5.0707,5.0707,5.0707,5.0707,5.0514,5.0325,5.0141,4.9924,4.9641,4.9229,4.8967,4.8583,4.799,4.7338,4.6755,4.6355,4.5879,4.5594,4.5594,4.5594,4.5594,4.5594,4.5594,4.5594,4.5594,4.5594,4.5594,4.5594,4.5594,4.5594,4.5594,4.5594,4.5594,4.5594,4.5594,4.5594,4.6308,4.6308,4.6308,4.6308,4.6308,4.6308,4.6308,4.6308,0.0,0.0,0.0,0.0,0.0,4.6465,0.0,4.8652,4.9062,4.9648,5.0937,5.1289,5.1406,5.1406,5.1992,5.2734,5.3613,5.4473,5.5351,5.623,5.6484,5.6601,5.6601,5.6431,5.6309,5.6197,5.5963,5.5793,5.5708,5.5708,5.5708,5.5708,5.5708,5.5708,5.5708,5.5708,5.5708,5.5708,5.5708,5.5708,5.5708,5.5708,5.5708,5.5708,5.5708,5.5458,5.4934,5.3428,5.1952,5.0707,5.0707,5.0707,5.0707,5.0707,5.0707,5.0707,5.0707,5.0707,5.0707,5.0707,5.0707,5.0707,5.0707,5.0707,5.0707,5.0707,5.0707,5.0707,5.0707,5.0707,5.0707,5.0707,5.0442,5.0201,5.0123,4.9833,4.9631,4.9631,4.9328,4.9055,4.8959,4.809,4.7331,4.6947,4.6297,4.5821,4.5614,4.5594,4.5594,4.5594,4.5594,4.5594,4.5594,4.5594,4.5594,4.5594,4.5594,4.5594,4.5594,4.5594,4.5594,4.5594,4.5594,4.5594,4.6308,4.6308,4.6308,4.6308,4.6308,0.0,4.6308,4.6308,0.0,4.6308,0.0,0.0,0.0,4.6953,4.7812,4.875,4.957,5.0156,5.0273,5.0937,5.1406,5.1406,5.1465,5.1836,5.2715,5.3574,5.4453,5.5332,5.6133,5.6601,5.6601,5.6345,5.6202,5.6194,5.5879,5.5705,5.5708,5.5708,5.5708,5.5708,5.5708,5.5708,5.5708,5.5708,5.5708,5.5708,5.5708,5.5708,5.5708,5.5708,5.5708,5.5708,5.5708,5.4741,5.3274,5.2332,5.1433,5.0707,5.0707,5.0707,5.0707,5.0707,5.0707,5.0707,5.0707,5.0707,5.0707,5.0707,5.0707,5.0707,5.0707,5.0707,5.0707,5.0707,5.0707,5.0707,5.0707,5.0707,5.0707,5.0707,5.0673,5.0544,5.0165,5.0074,5.0056,5.0056,5.0023,4.9855,4.9413,4.9288,4.8625,4.7062,4.6831,4.649,4.5667,4.5594,4.5594,4.5594,4.5594,4.5594,4.5594,4.5594,4.5594,4.5594,4.5594,4.5594,4.5594,4.5594,4.5594,4.5594,4.5594,4.5594,4.6308,4.6308,4.6308,4.6308,4.6308,0.0,0.0,4.6308,4.6308,4.6308,4.6308,0.0,0.0,0.0,4.8066,4.9473,4.998,5.0371,5.0879,5.1211,5.1406,5.1406,5.1406,5.1738,5.2617,5.3008,5.3789,5.5195,5.5605,5.6035,5.6562,5.6492,5.6376,5.6219,5.6074,5.5913,5.5689,5.5708,5.5708,5.5708,5.5708,5.5708,5.5708,5.5708,5.5708,5.5708,5.5708,5.5708,5.5708,5.5708,5.5708,5.5651,5.5151,5.3895,5.2351,5.2019,5.1395,5.0707,5.0707,5.0707,5.0707,5.0707,5.0707,5.0707,5.0707,5.0707,5.0707,5.0707,5.0707,5.0707,5.0707,5.0707,5.0707,5.0707,5.0707,5.0707,5.0707,5.0707,5.0707,5.0707,5.0707,5.0565,5.0171,5.0092,5.0025,4.9767,4.9936,5.0039,4.9854,4.9579,4.8952,4.7774,4.6701,4.5956,4.5633,4.5594,4.5594,4.5594,4.5594,4.5594,4.5594,4.5594,4.5594,4.5594,4.5594,4.5594,4.5594,4.5594,4.5594,4.5594,4.5594,4.5594,4.6308,4.6308,4.6308,4.6308,0.0,0.0,4.6308,4.6308,4.6308,4.6308,4.6308,4.6562,4.7441,0.0,4.8164,4.9922,5.0195,5.0488,5.1289,5.1406,5.1406,5.1406,5.1406,5.1621,5.2226,5.2539,5.3183,5.4394,5.498,5.5566,5.6152,5.6404,5.6427,5.6199,5.6146,5.5967,5.5695,5.5708,5.5708,5.5708,5.5708,5.5708,5.5708,5.5708,5.5708,5.5708,5.5708,5.5708,5.5708,5.5708,5.5555,5.5208,5.4107,5.2947,5.1865,5.1601,5.1164,5.0707,5.0707,5.0707,5.0707,5.0707,5.0707,5.0707,5.0707,5.0707,5.0707,5.0707,5.0707,5.0707,5.0707,5.0707,5.0707,5.0707,5.0707,5.0707,5.0707,5.0707,5.0707,5.0707,5.0707,5.0614,5.0336,5.0283,5.0208,4.9924,5.0104,5.0283,5.0283,5.0015,4.9375,4.8216,4.6855,4.5898,4.5614,4.5594,4.5594,4.5594,4.5594,4.5594,4.5594,4.5594,4.5594,4.5594,4.5594,4.5594,4.5594,4.5594,4.5594,4.5594,4.5594,4.5594,4.6308,4.6308,4.6308,0.0,0.0,0.0,4.6308,4.6308,4.6308,4.6308,4.6308,4.6562,4.7441,4.7617,4.8183,4.9922,5.0215,5.0488,5.1289,5.1406,5.1406,5.1406,5.1406,5.1406,5.1406,5.2187,5.2695,5.2695,5.4297,5.5273,5.5293,5.5973,5.6314,5.618,5.5991,5.5833,5.5695,5.5708,5.5708,5.5708,5.5708,5.5708,5.5708,5.5708,5.5708,5.5708,5.5708,5.5708,5.5689,5.5689,5.5208,5.4299,5.2563,5.1904,5.1793,5.0996,5.0707,5.0707,5.0707,5.0707,5.0707,5.0707,5.0707,5.0707,5.0707,5.0707,5.0707,5.0707,5.0707,5.0707,5.0707,5.0707,5.0707,5.0707,5.0707,5.0707,5.0707,5.0707,5.0707,5.0707,5.0707,5.0707,5.0707,5.0707,5.0707,5.0707,5.0707,5.0707,5.0707,5.0688,5.0014,4.8293,4.7389,4.6547,4.5667,4.5594,4.5594,4.5594,4.5594,4.5594,4.5594,4.5594,4.5594,4.5594,4.5594,4.5594,4.5594,4.5594,4.5594,4.5594,4.5594,4.5594,4.6308,4.6308,0.0,4.6308,0.0,0.0,0.0,4.6308,0.0,0.0,4.6308,4.6758,4.8242,4.8516,4.9062,5.0762,5.1035,5.1133,5.1367,5.1406,5.1406,5.1406,5.1406,5.1406,5.1406,5.1621,5.2031,5.2656,5.3183,5.373,5.4355,5.4588,5.4648,5.4518,5.4968,5.5134,5.4993,5.5469,5.5708,5.5708,5.5708,5.5708,5.5708,5.5708,5.5708,5.5708,5.5708,5.5381,5.4799,5.4184,5.3428,5.262,5.2096,5.1543,5.1034,5.0784,5.0707,5.0707,5.0707,5.0707,5.0707,5.0707,5.0707,5.0707,5.0707,5.0707,5.0707,5.0707,5.0707,5.0707,5.0707,5.0707,5.0707,5.0707,5.0707,5.0707,5.0707,5.0707,5.0707,5.0707,5.0707,5.0707,5.0707,5.0707,5.0707,5.0707,5.0707,5.0707,5.0707,5.0168,4.9356,4.8216,4.7389,4.6547,4.5667,4.5594,4.5594,4.5594,4.5594,4.5594,4.5594,4.5594,4.5594,4.5594,4.5594,4.5594,4.5594,4.5594,4.5594,4.5594,4.5594,4.5594,4.6308,4.6308,0.0,4.6308,4.6308,4.6308,4.6308,0.0,0.0,0.0,4.6308,4.6621,4.7676,4.8437,4.9238,5.0234,5.0976,5.1406,5.1406,5.1406,5.1406,5.1406,5.1406,5.1406,5.1406,5.1406,5.1621,5.2148,5.25,5.293,5.3457,5.3808,5.394,5.3792,5.4227,5.4377,5.4184,5.4575,5.4766,5.4703,5.4703,5.4703,5.4722,5.5401,5.5535,5.5203,5.4857,5.4434,5.3914,5.3044,5.237,5.1865,5.1543,5.1125,5.0707,5.0707,5.0707,5.0707,5.0707,5.0707,5.0707,5.0707,5.0707,5.0707,5.0707,5.0707,5.0707,5.0707,5.0707,5.0707,5.0707,5.0707,5.0707,5.0707,5.0707,5.0707,5.0707,5.0707,5.0707,5.0707,5.0707,5.0707,5.0707,5.0707,5.0707,5.0707,5.0707,5.0707,5.0707,5.0245,4.9591,4.8702,4.787,4.7024,4.6182,4.5802,4.5594,4.5594,4.5594,4.5594,4.5594,4.5594,4.5594,4.5594,4.5594,4.5594,4.5594,4.5594,4.5594,4.5594,4.5594,4.5594,4.6308,4.6308,0.0,4.6308,4.6308,0.0,4.6308,4.6308,4.6308,4.6308,4.6308,4.6328,4.6406,4.7773,4.8926,4.9004,5.0351,5.1406,5.1406,5.1406,5.1406,5.1406,5.1406,5.1406,5.1406,5.1406,5.1406,5.1406,5.2129,5.2578,5.2578,5.332,5.3706,5.3587,5.3656,5.3554,5.3315,5.3375,5.3357,5.3214,5.3214,5.3204,5.3255,5.478,5.5068,5.4337,5.3453,5.3082,5.3005,5.2159,5.1793,5.1717,5.0996,5.0707,5.0707,5.0707,5.0707,5.0707,5.0707,5.0707,5.0707,5.0707,5.0707,5.0707,5.0707,5.0707,5.0707,5.0707,5.0707,5.0707,5.0707,5.0707,5.0707,5.0707,5.0707,5.0707,5.0707,5.0707,5.0707,5.0707,5.0707,5.0707,5.0707,5.0707,5.0707,5.0707,5.0707,5.0707,5.0707,5.0707,5.0361,4.949,4.8682,4.7851,4.6985,4.6163,4.5686,4.5614,4.5594,4.5594,4.5594,4.5594,4.5594,4.5594,4.5594,4.5594,4.5594,4.5594,4.5594,4.5594,4.5594,4.5594,4.6308,4.6308,0.0,0.0,4.6308,4.6308,4.6308,4.6308,4.6308,4.6308,4.6308,4.6504,4.7187,4.8183,4.9121,4.9805,5.0742,5.1406,5.1406,5.1406,5.1406,5.1406,5.1406,5.1406,5.1406,5.1406,5.1406,5.1406,5.1562,5.168,5.168,5.1855,5.1953,5.1911,5.2488,5.2756,5.2697,5.3265,5.3498,5.3369,5.3369,5.3294,5.3217,5.3568,5.3645,5.3433,5.2563,5.2178,5.212,5.1298,5.0957,5.0938,5.0765,5.0707,5.0707,5.0707,5.0707,5.0707,5.0707,5.0707,5.0707,5.0707,5.0707,5.0707,5.0707,5.0707,5.0707,5.0707,5.0707,5.0707,5.0707,5.0707,5.0707,5.0707,5.0707,5.0707,5.0707,5.0707,5.0707,5.0707,5.0707,5.0707,5.0707,5.0707,5.0707,5.0707,5.0707,5.0707,5.0707,5.0707,5.0361,4.949,4.9221,4.8529,4.7024,4.6735,4.6336,4.5629,4.5594,4.5594,4.5594,4.5594,4.5594,4.5594,4.5594,4.5594,4.5594,4.5594,4.5594,4.5594,4.5594,4.5594,4.6308,0.0,0.0,4.6308,0.0,4.6308,4.6308,4.6308,4.6308,4.6308,4.6308,4.6445,4.6894,4.7695,4.8555,4.9433,5.0273,5.0957,5.1348,5.1406,5.1406,5.1406,5.1406,5.1406,5.1406,5.1406,5.1406,5.1406,5.1406,5.1406,5.1406,5.1406,5.1406,5.1406,5.177,5.1947,5.188,5.2265,5.2397,5.2308,5.2227,5.2129,5.201,5.239,5.2582,5.2524,5.1678,5.1337,5.1298,5.0861,5.0707,5.0707,5.0707,5.0707,5.0707,5.0707,5.0707,5.0707,5.0707,5.0707,5.0707,5.0707,5.0707,5.0707,5.0707,5.0707,5.0707,5.0707,5.0707,5.0707,5.0707,5.0707,5.0707,5.0707,5.0707,5.0707,5.0707,5.0707,5.0707,5.0707,5.0707,5.0707,5.0707,5.0707,5.0707,5.0707,5.0707,5.0707,5.0707,5.0707,5.0534,5.0072,4.9649,4.8875,4.7582,4.712,4.6528,4.5667,4.5594,4.5594,4.5594,4.5594,4.5594,4.5594,4.5594,4.5594,4.5594,4.5594,4.5594,4.5594,4.5594,4.5594,4.6308,0.0,4.6308,4.6308,4.6308,0.0,4.6308,4.6308,4.6308,4.6308,4.6308,4.6308,4.6308,4.7012,4.7832,4.8555,4.9531,5.043,5.1094,5.1308,5.1406,5.1406,5.1406,5.1406,5.1406,5.1406,5.1406,5.1406,5.1406,5.1406,5.1406,5.1406,5.1406,5.1406,5.1406,5.1344,5.1237,5.1237,5.1203,5.1124,5.0981,5.0856,5.0754,5.1419,5.1717,5.1659,5.0996,5.0707,5.0707,5.0707,5.0707,5.0707,5.0707,5.0707,5.0707,5.0707,5.0707,5.0707,5.0707,5.0707,5.0707,5.0707,5.0707,5.0707,5.0707,5.0707,5.0707,5.0707,5.0707,5.0707,5.0707,5.0707,5.0707,5.0707,5.0707,5.0707,5.0707,5.0707,5.0707,5.0707,5.0707,5.0707,5.0707,5.0707,5.0707,5.0707,5.0707,5.0707,5.0707,5.0707,5.0707,5.0707,5.0053,4.926,4.8394,4.7716,4.6894,4.5898,4.5821,4.5763,4.5614,4.5594,4.5594,4.5594,4.5594,4.5594,4.5594,4.5594,4.5594,4.5594,4.5594,4.5594,0.0,0.0,4.6308,0.0,4.6308,4.6308,0.0,0.0,4.6308,4.6308,4.6308,4.6308,4.6308,4.7012,4.7637,4.7754,4.9141,5.0234,5.0351,5.0957,5.1406,5.1406,5.1406,5.1406,5.1406,5.1406,5.1406,5.1406,5.1406,5.1406,5.1406,5.1406,5.1406,5.1406,5.1406,5.1387,5.1366,5.1366,5.1318,5.1188,5.1109,5.1007,5.089,5.0983,5.0979,5.0842,5.0745,5.0707,5.0707,5.0707,5.0707,5.0707,5.0707,5.0707,5.0707,5.0707,5.0707,5.0707,5.0707,5.0707,5.0707,5.0707,5.0707,5.0707,5.0707,5.0707,5.0707,5.0707,5.0707,5.0707,5.0707,5.0707,5.0707,5.0707,5.0707,5.0707,5.0707,5.0707,5.0707,5.0707,5.0707,5.0707,5.0707,5.0707,5.0707,5.0707,5.0707,5.0707,5.0707,5.0707,5.0707,5.0707,5.0592,5.0168,4.9298,4.9125,4.8394,4.6831,4.6735,4.6394,4.5633,4.5594,4.5594,4.5594,4.5594,4.5594,4.5594,4.5594,4.5594,4.5594,4.5594,4.5594,4.6308,4.6308,4.6308,0.0,4.6308,4.6308,4.6308,4.6308,4.6308,4.6308,4.6308,4.6308,4.6308,4.6601,4.7031,4.7519,4.8242,4.9082,5.0058,5.0508,5.0898,5.1348,5.1406,5.1406,5.1406,5.1406,5.1406,5.1406,5.1406,5.1406,5.1406,5.1406,5.1406,5.1406,5.1406,5.1406,5.1406,5.1406,5.1323,5.1202,5.1169,5.1114,5.1013,5.0939,5.0835,5.0707,5.0707,5.0707,5.0707,5.0707,5.0707,5.0707,5.0707,5.0707,5.0707,5.0707,5.0707,5.0707,5.0707,5.0707,5.0707,5.0707,5.0707,5.0707,5.0707,5.0707,5.0707,5.0707,5.0707,5.0707,5.0707,5.0707,5.0707,5.0707,5.0707,5.0707,5.0707,5.0707,5.0707,5.0707,5.0707,5.0707,5.0707,5.0707,5.0707,5.0707,5.0707,5.0707,5.0707,5.0707,5.0707,5.0707,5.0707,5.0341,4.9471,4.9394,4.8875,4.7658,4.7158,4.6735,4.6336,4.5859,4.5594,4.5594,4.5594,4.5594,4.5594,4.5594,4.5594,4.5594,4.5594,4.5594,0.0,0.0,4.6308,4.6308,4.6308,4.6308,0.0,4.6308,4.6308,4.6308,4.6308,4.6308,4.6308,4.6308,4.6504,4.7168,4.7461,4.8047,4.9355,4.9922,5.043,5.1016,5.1289,5.1406,5.1406,5.1406,5.1406,5.1406,5.1406,5.1406,5.1406,5.1406,5.1406,5.1406,5.1406,5.1406,5.1406,5.1406,5.1344,5.1243,5.1243,5.1212,5.1118,5.102,5.0912,5.0808,5.0726,5.0707,5.0707,5.0707,5.0707,5.0707,5.0707,5.0707,5.0707,5.0707,5.0707,5.0707,5.0707,5.0707,5.0707,5.0707,5.0707,5.0707,5.0707,5.0707,5.0707,5.0707,5.0707,5.0707,5.0707,5.0707,5.0707,5.0707,5.0707,5.0707,5.0707,5.0707,5.0707,5.0707,5.0707,5.0707,5.0707,5.0707,5.0707,5.0707,5.0707,5.0707,5.0707,5.0707,5.0707,5.0707,5.0707,5.0438,4.9784,4.9726,4.9356,4.849,4.787,4.7331,4.6928,4.6278,4.5821,4.5594,4.5594,4.5594,4.5594,4.5594,4.5594,4.5594,4.5594,4.5594,0.0,4.6308,0.0,4.6308,4.6308,4.6308,4.6308,4.6308,4.6308,4.6308,4.6308,4.6308,4.6308,4.6308,4.6308,4.6367,4.7051,4.7637,4.7715,4.916,5.0215,5.0254,5.0937,5.1406,5.1406,5.1406,5.1406,5.1406,5.1406,5.1406,5.1406,5.1406,5.1406,5.1406,5.1406,5.1406,5.1406,5.1406,5.1406,5.1386,5.1386,5.132,5.1197,5.1194,5.1146,5.1075,5.081,5.0707,5.0707,5.0707,5.0707,5.0707,5.0707,5.0707,5.0707,5.0707,5.0707,5.0707,5.0707,5.0707,5.0707,5.0707,5.0707,5.0707,5.0707,5.0707,5.0707,5.0707,5.0707,5.0707,5.0707,5.0707,5.0707,5.0707,5.0707,5.0707,5.0707,5.0707,5.0707,5.0707,5.0707,5.0707,5.0707,5.0707,5.0707,5.0707,5.0707,5.0707,5.0707,5.0707,5.0707,5.0707,5.0707,5.0668,5.063,5.063,5.0265,4.9394,4.9298,4.8567,4.6966,4.6851,4.6432,4.5614,4.5594,4.5594,4.5594,4.5594,4.5594,4.5594,4.5594,4.5594,0.0,0.0,0.0,4.6308,4.6308,4.6308,4.6308,4.6308,4.6308,4.6308,4.6308,4.6308,4.6308,4.6308,4.6308,4.6308,4.6562,4.6953,4.7519,4.8144,4.8945,5.0078,5.0449,5.082,5.1348,5.1406,5.1406,5.1406,5.1406,5.1406,5.1406,5.1406,5.1406,5.1406,5.1406,5.1406,5.1406,5.1406,5.1406,5.1406,5.1406,5.1366,5.1322,5.1239,5.1188,5.1154,5.1025,5.0966,5.0966,5.0966,5.0916,5.0839,5.0839,5.0788,5.0707,5.0707,5.0707,5.0707,5.0707,5.0707,5.0707,5.0707,5.0707,5.0707,5.0707,5.0707,5.0707,5.0707,5.0707,5.0707,5.0707,5.0707,5.0707,5.0707,5.0707,5.0707,5.0707,5.0707,5.0707,5.0707,5.0707,5.0707,5.0707,5.0707,5.0707,5.0707,5.0707,5.0707,5.0707,5.0707,5.0707,5.0707,5.0707,5.0707,5.0707,5.0707,5.0572,5.0245,4.9707,4.9125,4.8529,4.7466,4.6755,4.6432,4.5879,4.5594,4.5594,4.5594,4.5594,4.5594,4.5594,4.5594,4.6308,0.0,0.0,0.0,4.6308,4.6308,4.6308,4.6308,4.6308,4.6308,4.6308,4.6308,4.6308,4.6308,4.6308,4.6308,4.6308,4.6504,4.707,4.7422,4.8027,4.9199,4.9844,5.041,5.0957,5.123,5.1406,5.1406,5.1406,5.1406,5.1406,5.1406,5.1406,5.1406,5.1406,5.1406,5.1406,5.1406,5.1406,5.1406,5.1406,5.1406,5.1406,5.1318,5.1268,5.1267,5.1226,5.1164,5.1091,5.1091,5.1056,5.0963,5.0963,5.0907,5.0827,5.0827,5.0827,5.0827,5.0827,5.0827,5.0827,5.0827,5.0827,5.0827,5.0827,5.0797,5.0775,5.0775,5.0735,5.0707,5.0707,5.0707,5.0707,5.0707,5.0707,5.0707,5.0707,5.0707,5.0707,5.0707,5.0707,5.0707,5.0707,5.0707,5.0707,5.0707,5.0707,5.0707,5.0707,5.0707,5.0707,5.0707,5.0707,5.0707,5.0707,5.0707,5.0707,5.0707,5.0168,4.9707,4.9413,4.8336,4.7466,4.6908,4.6336,4.5898,4.5594,4.5594,4.5594,4.5594,4.5594,4.5594,0.0,0.0,0.0,4.6308,4.6308,4.6308,4.6308,4.6308,4.6308,4.6308,4.6308,4.6308,4.6308,4.6308,4.6308,4.6308,4.6308,4.6308,4.6308,4.7031,4.7578,4.7598,4.9082,5.0137,5.0195,5.0918,5.1367,5.1406,5.1406,5.1406,5.1406,5.1406,5.1406,5.1406,5.1406,5.1406,5.1406,5.1406,5.1406,5.1406,5.1406,5.1406,5.1406,5.1406,5.1406,5.1406,5.1406,5.1282,5.1103,5.1103,5.1101,5.1096,5.1096,5.1094,5.1091,5.1091,5.1091,5.1091,5.1091,5.1091,5.1091,5.1091,5.1091,5.1091,5.1091,5.1013,5.0916,5.0916,5.081,5.0712,5.0712,5.0712,5.0712,5.0702,5.0702,5.0697,5.0693,5.0707,5.0707,5.0707,5.0707,5.0707,5.0707,5.0707,5.0707,5.0707,5.0707,5.0707,5.0707,5.0707,5.0707,5.0707,5.0707,5.0707,5.0707,5.0707,5.0707,5.0707,5.0707,5.0322,4.9471,4.9413,4.8625,4.7005,4.6947,4.6509,4.5633,4.5614,4.5594,4.5594,4.5594,4.5594,4.6465,0.0,0.0,0.0,0.0,0.0,4.6308,4.6308,4.6308,4.6308,4.6308,4.6308,4.6308,4.6308,4.6308,4.6308,4.6308,4.6308,4.6308,4.6504,4.6894,4.7539,4.8027,4.8808,5.0078,5.0391,5.0762,5.1367,5.1406,5.1406,5.1406,5.1406,5.1406,5.1406,5.1406,5.1406,5.1406,5.1406,5.1406,5.1406,5.1406,5.1406,5.1406,5.1406,5.1406,5.1406,5.1406,5.1365,5.1313,5.1313,5.1255,5.1171,5.1171,5.1148,5.1091,5.1091,5.1091,5.1091,5.1091,5.1091,5.1091,5.1091,5.1091,5.1091,5.1091,5.1066,5.1034,5.1034,5.1024,5.0988,5.0988,5.0988,5.0959,5.0859,5.0844,5.0822,5.0731,5.0707,5.0707,5.0707,5.0707,5.0707,5.0707,5.0707,5.0707,5.0707,5.0707,5.0707,5.0707,5.0707,5.0707,5.0707,5.0707,5.0707,5.0707,5.0707,5.0707,5.0707,5.0707,5.0592,5.0341,4.9726,4.9183,4.8721,4.8082,4.7351,4.6547,4.5917,4.5594,4.5594,4.5594,4.5594,0.0,0.0,0.0,4.6308,0.0,0.0,4.6308,4.6308,4.6308,4.6308,4.6308,4.6308,4.6308,4.6308,4.6308,4.6308,4.6308,4.6308,4.6308,4.6308,4.6484,4.6992,4.7383,4.8008,4.9023,4.9433,5.0,5.084,5.0898,5.1055,5.1387,5.1406,5.1406,5.1406,5.1406,5.1406,5.1406,5.1406,5.1406,5.1406,5.1406,5.1406,5.1406,5.1406,5.1406,5.1406,5.1406,5.1406,5.1406,5.1406,5.1345,5.1273,5.1273,5.1257,5.1222,5.1222,5.1222,5.1222,5.1222,5.1222,5.1222,5.1222,5.1222,5.1222,5.1222,5.1198,5.1146,5.1146,5.1114,5.1091,5.1091,5.1091,5.1071,5.1004,5.0945,5.0879,5.0793,5.0744,5.0707,5.0707,5.0707,5.0707,5.0707,5.0707,5.0707,5.0707,5.0707,5.0707,5.0707,5.0707,5.0707,5.0707,5.0707,5.0707,5.0707,5.0707,5.0707,5.0707,5.0707,5.0707,5.0707,5.0207,4.9764,4.9413,4.8894,4.824,4.7408,4.6547,4.5956,4.5594,4.5594,4.5594,0.0,0.0,0.0,4.6328,4.6308,0.0,4.6308,4.6308,4.6308,4.6308,4.6308,4.6308,4.6308,4.6308,4.6308,4.6308,4.6308,4.6308,4.6308,4.6308,4.6308,4.6308,4.6973,4.748,4.7598,4.8301,4.9121,4.998,5.0156,5.0508,5.123,5.1348,5.1406,5.1406,5.1406,5.1406,5.1406,5.1406,5.1406,5.1406,5.1406,5.1406,5.1406,5.1406,5.1406,5.1406,5.1406,5.1406,5.1406,5.1406,5.1406,5.1406,5.1406,5.1406,5.1406,5.1406,5.1406,5.1406,5.1406,5.1406,5.1406,5.1406,5.1406,5.1406,5.1406,5.132,5.1213,5.1213,5.1185,5.1133,5.1133,5.1133,5.1129,5.1115,5.102,5.0926,5.0925,5.0818,5.0712,5.0712,5.0707,5.0707,5.0707,5.0707,5.0707,5.0707,5.0707,5.0707,5.0707,5.0707,5.0707,5.0707,5.0707,5.0707,5.0707,5.0707,5.0707,5.0707,5.0707,5.0707,5.0707,5.0707,5.0341,4.9548,4.9452,4.9029,4.8235,4.7331,4.6509,4.5744,4.5652,4.5594,4.7948,4.748,4.7187,4.6484,4.6308,0.0,4.6308,4.6308,4.6308,4.6308,4.6308,4.6308,4.6308,4.6308,4.6308,4.6308,4.6308,4.6308,4.6308,4.6308,4.6308,4.6308,4.6445,4.6836,4.7539,4.7754,4.8223,4.9082,4.9805,5.0273,5.043,5.1055,5.1406,5.1406,5.1406,5.1406,5.1406,5.1406,5.1406,5.1406,5.1406,5.1406,5.1406,5.1406,5.1406,5.1406,5.1406,5.1406,5.1406,5.1406,5.1406,5.1406,5.1406,5.1406,5.1406,5.1406,5.1406,5.1406,5.1406,5.1406,5.1406,5.1406,5.1406,5.1406,5.1406,5.1386,5.1365,5.1365,5.1344,5.134,5.134,5.134,5.1315,5.1214,5.1169,5.1136,5.1076,5.0966,5.0852,5.0852,5.0764,5.0707,5.0707,5.0707,5.0707,5.0707,5.0707,5.0707,5.0707,5.0707,5.0707,5.0707,5.0707,5.0707,5.0707,5.0707,5.0707,5.0707,5.0707,5.0707,5.0707,5.0707,5.0611,5.0457,4.9764,4.9317,4.9144,4.762,4.6812,4.662,4.5936,4.5594,4.91,4.8262,4.75,4.7051,4.6621,0.0,0.0,4.6308,4.6308,4.6308,4.6308,4.6308,4.6308,4.6308,4.6308,4.6308,4.6308,4.6308,4.6308,4.6308,4.6308,4.6308,4.6308,4.6465,4.6914,4.6953,4.7305,4.8183,4.9062,4.9551,4.9551,4.9922,5.0156,5.0156,5.0566,5.0801,5.0801,5.1191,5.1406,5.1406,5.1406,5.1406,5.1406,5.1406,5.1406,5.1406,5.1406,5.1406,5.1406,5.1406,5.1406,5.1406,5.1406,5.1406,5.1406,5.1406,5.1406,5.1406,5.1406,5.1406,5.1406,5.1406,5.1406,5.1406,5.1406,5.1406,5.1406,5.1406,5.1406,5.1406,5.1406,5.1406,5.1386,5.132,5.1242,5.1183,5.112,5.0994,5.0879,5.0814,5.0753,5.0707,5.0707,5.0707,5.0707,5.0707,5.0707,5.0707,5.0707,5.0707,5.0707,5.0707,5.0707,5.0707,5.0707,5.0707,5.0707,5.0707,5.0707,5.0707,5.0707,5.0707,5.0707,5.0707,5.0265,5.0053,5.0053,4.8779,4.7908,4.7485,4.6644,4.624,5.0193,4.918,4.8027,4.7676,4.707,4.6504,0.0,0.0,0.0,4.6308,4.6308,4.6308,4.6308,4.6308,4.6308,4.6308,4.6308,4.6308,4.6308,4.6308,4.6308,4.6308,4.6308,4.6308,4.6308,4.6308,4.6582,4.7305,4.8164,4.8652,4.8652,4.8808,4.8906,4.8906,4.957,4.9941,4.9941,5.0762,5.1172,5.1172,5.1328,5.1406,5.1406,5.1406,5.1406,5.1406,5.1406,5.1406,5.1406,5.1406,5.1406,5.1406,5.1406,5.1406,5.1406,5.1406,5.1406,5.1406,5.1406,5.1406,5.1406,5.1406,5.1406,5.1406,5.1406,5.1406,5.1406,5.1406,5.1406,5.1406,5.1406,5.1406,5.1406,5.1406,5.132,5.1225,5.1179,5.1042,5.0919,5.0808,5.0735,5.0707,5.0707,5.0707,5.0707,5.0707,5.0707,5.0707,5.0707,5.0707,5.0707,5.0707,5.0707,5.0707,5.0707,5.0707,5.0707,5.0707,5.0707,5.0707,5.0707,5.0707,5.0707,5.0707,5.0707,5.0707,5.0707,4.9995,4.9202,4.8336,4.7505,4.7139,5.0346,5.0058,4.9531,4.7988,4.7539,4.7246,4.6484,0.0,4.6308,4.6308,0.0,4.6308,4.6308,0.0,0.0,4.6308,4.6308,4.6308,4.6308,4.6308,4.6308,4.6308,4.6308,4.6308,4.6308,4.6308,4.6348,4.6445,4.7266,4.7754,4.7754,4.8476,4.8906,4.8906,4.9004,4.9043,4.9043,4.9902,5.0332,5.0332,5.1055,5.1406,5.1406,5.1406,5.1406,5.1406,5.1406,5.1406,5.1406,5.1406,5.1406,5.1406,5.1406,5.1406,5.1406,5.1406,5.1406,5.1406,5.1406,5.1406,5.1406,5.1406,5.1406,5.1406,5.1406,5.1406,5.1406,5.1406,5.1406,5.1406,5.1406,5.1406,5.1406,5.1406,5.1386,5.1386,5.1365,5.1216,5.1063,5.1067,5.0852,5.0707,5.0707,5.0707,5.0707,5.0707,5.0707,5.0707,5.0707,5.0707,5.0707,5.0707,5.0707,5.0707,5.0707,5.0707,5.0707,5.0707,5.0707,5.0707,5.0707,5.0707,5.0707,5.0707,5.0707,5.0707,5.0707,5.0592,5.0091,4.9221,4.8375,4.7966,5.0931,5.0566,5.0019,4.9297,4.8359,4.75,4.7148,4.666,4.6308,4.6308,0.0,0.0,0.0,0.0,0.0,0.0,4.6308,4.6308,4.6308,4.6308,4.6308,4.6308,4.6308,4.6308,4.6308,4.6308,4.6308,4.6308,4.6641,4.6855,4.6855,4.7187,4.7383,4.7383,4.7871,4.8144,4.8144,4.9004,4.9707,5.0195,5.0547,5.0957,5.1406,5.1406,5.1406,5.1406,5.1406,5.1406,5.1406,5.1406,5.1406,5.1406,5.1406,5.1406,5.1406,5.1406,5.1406,5.1406,5.1406,5.1406,5.1406,5.1406,5.1406,5.1406,5.1406,5.1406,5.1406,5.1406,5.1406,5.1406,5.1406,5.1406,5.1406,5.1406,5.1406,5.1386,5.1297,5.1219,5.1117,5.1019,5.0897,5.0795,5.0717,5.0707,5.0707,5.0707,5.0707,5.0707,5.0707,5.0707,5.0707,5.0707,5.0707,5.0707,5.0707,5.0707,5.0707,5.0707,5.0707,5.0707,5.0707,5.0707,5.0707,5.0707,5.0707,5.0707,5.0707,5.0707,5.0515,5.013,4.926,4.8856,5.1289,5.0914,5.0427,5.0254,4.9062,4.7891,4.7656,4.6933,4.6308,4.6308,4.6308,0.0,0.0,0.0,4.6308,4.6308,0.0,4.6308,4.6308,4.6308,4.6308,4.6308,4.6308,4.6308,4.6308,4.6308,4.6308,4.6308,4.6308,4.6308,4.6308,4.6308,4.6308,4.6308,4.6914,4.7246,4.7246,4.8105,4.8867,4.9492,4.9961,5.0508,5.1074,5.1308,5.1406,5.1406,5.1406,5.1406,5.1406,5.1406,5.1406,5.1406,5.1406,5.1406,5.1406,5.1406,5.1406,5.1406,5.1406,5.1406,5.1406,5.1406,5.1406,5.1406,5.1406,5.1406,5.1406,5.1406,5.1406,5.1406,5.1406,5.1406,5.1406,5.1406,5.1406,5.1366,5.1271,5.1233,5.1151,5.1,5.0979,5.0907,5.0773,5.0716,5.0707,5.0707,5.0707,5.0707,5.0707,5.0707,5.0707,5.0707,5.0707,5.0707,5.0707,5.0707,5.0707,5.0707,5.0707,5.0707,5.0707,5.0707,5.0707,5.0707,5.0707,5.0707,5.0707,5.0707,5.0707,5.0688,5.0053,4.9764,5.1145,5.1186,5.1004,5.035,4.9512,4.8633,4.7793,4.6933,4.6308,4.6308,4.6308,4.6308,4.6308,4.6308,4.6308,4.6308,4.6308,0.0,0.0,4.6308,4.6308,4.6308,4.6308,4.6308,4.6308,4.6308,4.6308,4.6308,4.6308,4.6308,4.6308,4.6308,4.6308,4.6308,4.6328,4.6348,4.6348,4.7207,4.7656,4.7695,4.9394,5.0215,5.0254,5.1035,5.1406,5.1406,5.1406,5.1406,5.1406,5.1406,5.1406,5.1406,5.1406,5.1406,5.1406,5.1406,5.1406,5.1406,5.1406,5.1406,5.1406,5.1406,5.1406,5.1406,5.1406,5.1406,5.1406,5.1406,5.1406,5.1406,5.1406,5.1406,5.1406,5.1406,5.1406,5.1406,5.1387,5.1294,5.1201,5.1197,5.1146,5.1042,5.0914,5.0786,5.0707,5.0707,5.0707,5.0707,5.0707,5.0707,5.0707,5.0707,5.0707,5.0707,5.0707,5.0707,5.0707,5.0707,5.0707,5.0707,5.0707,5.0707,5.0707,5.0707,5.0707,5.0707,5.0707,5.0707,5.0707,5.0707,5.0668,5.0649,5.1114,5.1239,5.1262,5.0939,5.0307,4.9531,4.8652,4.7793,4.6992,4.6426,4.6308,4.6308,4.6308,4.6308,4.6308,4.6308,4.6308,4.6308,0.0,4.6308,4.6308,4.6308,4.6308,4.6308,4.6308,4.6308,4.6308,4.6308,4.6308,4.6308,4.6308,4.6308,4.6308,4.6308,4.6308,4.6308,4.6308,4.6582,4.7031,4.7617,4.8203,4.8789,4.9375,5.0215,5.0605,5.0644,5.1172,5.1406,5.1406,5.1406,5.1406,5.1406,5.1406,5.1406,5.1406,5.1406,5.1406,5.1406,5.1406,5.1406,5.1406,5.1406,5.1406,5.1406,5.1406,5.1406,5.1406,5.1406,5.1406,5.1406,5.1406,5.1406,5.1406,5.1406,5.1406,5.1406,5.1406,5.1366,5.1318,5.121,5.1183,5.1133,5.1047,5.0918,5.0797,5.0717,5.0707,5.0707,5.0707,5.0707,5.0707,5.0707,5.0707,5.0707,5.0707,5.0707,5.0707,5.0707,5.0707,5.0707,5.0707,5.0707,5.0707,5.0707,5.0707,5.0707,5.0707,5.0707,5.0707,5.0707,5.0707,5.0707,5.1066,5.1197,5.1285,5.1268,5.0737,5.0058,4.9492,4.8457,4.7441,4.6875,4.6523,4.6308,4.6308,4.6308,4.6308,4.6308,4.6308,4.6308,0.0,4.6308,4.6308,4.6308,4.6308,4.6308,4.6308,4.6308,4.6308,4.6308,4.6308,4.6308,4.6308,4.6308,4.6308,4.6308,4.6308,4.6308,4.6308,4.6308,4.6582,4.7148,4.7441,4.7891,4.8476,4.9336,4.9746,4.9766,5.0293,5.0508,5.0527,5.0859,5.0976,5.0996,5.1289,5.1406,5.1406,5.1406,5.1406,5.1406,5.1406,5.1406,5.1406,5.1406,5.1406,5.1406,5.1406,5.1406,5.1348,5.1055,5.1172,5.1328,5.1055,5.1191,5.1406,5.1406,5.1406,5.1406,5.1406,5.1406,5.1366,5.1294,5.1269,5.1234,5.1156,5.1033,5.0925,5.0795,5.0726,5.0707,5.0707,5.0707,5.0707,5.0707,5.0707,5.0707,5.0707,5.0707,5.0707,5.0707,5.0707,5.0707,5.0707,5.0707,5.0707,5.0707,5.0707,5.0707,5.0707,5.0707,5.0707,5.0707,5.0707,5.0707]}]]